<?xml version="1.0" encoding="UTF-8" standalone="no" ?>
<gpx xmlns="http://www.topografix.com/GPX/1/1" xmlns:xsi="http://www.w3.org/2001/XMLSchema-instance" xsi:schemaLocation="http://www.topografix.com/GPX/1/1 http://www.topografix.com/GPX/1/1/gpx.xsd" version="1.1" creator="VisuGPX - https://www.visugpx.com">
  <metadata>
    <name>mardi 25 juin 24 matin</name>
  </metadata>
  <trk>
    <name><![CDATA[visugpx_NrXzgq9CJo_1]]></name>
    <extensions>
      <line xmlns="http://www.topografix.com/GPX/gpx_style/0/2">
        <color>0000FF</color>
        <width>4</width>
      </line>
    </extensions>
    <trkseg>
      <trkpt lat="50.39027" lon="4.45713">
        <ele>148</ele>
        <time>2024-06-25T08:15:48Z</time>
      </trkpt>
      <trkpt lat="50.39026" lon="4.45713">
        <ele>142.6</ele>
        <time>2024-06-25T08:16:01Z</time>
      </trkpt>
      <trkpt lat="50.39028" lon="4.45718">
        <ele>138.4</ele>
        <time>2024-06-25T08:16:13Z</time>
      </trkpt>
      <trkpt lat="50.39027" lon="4.45715">
        <ele>134.6</ele>
        <time>2024-06-25T08:16:33Z</time>
      </trkpt>
      <trkpt lat="50.39022" lon="4.45707">
        <ele>130.8</ele>
        <time>2024-06-25T08:16:52Z</time>
      </trkpt>
      <trkpt lat="50.39026" lon="4.45712">
        <ele>128.4</ele>
        <time>2024-06-25T08:17:09Z</time>
      </trkpt>
      <trkpt lat="50.39026" lon="4.45712">
        <ele>125.2</ele>
        <time>2024-06-25T08:17:41Z</time>
      </trkpt>
      <trkpt lat="50.39026" lon="4.45711">
        <ele>123.6</ele>
        <time>2024-06-25T08:18:03Z</time>
      </trkpt>
      <trkpt lat="50.39026" lon="4.45711">
        <ele>122.4</ele>
        <time>2024-06-25T08:18:30Z</time>
      </trkpt>
      <trkpt lat="50.39026" lon="4.45711">
        <ele>121.4</ele>
        <time>2024-06-25T08:19:00Z</time>
      </trkpt>
      <trkpt lat="50.39026" lon="4.45711">
        <ele>120.8</ele>
        <time>2024-06-25T08:19:30Z</time>
      </trkpt>
      <trkpt lat="50.39026" lon="4.45711">
        <ele>120.4</ele>
        <time>2024-06-25T08:19:55Z</time>
      </trkpt>
      <trkpt lat="50.39026" lon="4.45711">
        <ele>120.2</ele>
        <time>2024-06-25T08:20:19Z</time>
      </trkpt>
      <trkpt lat="50.39025" lon="4.4571">
        <ele>120</ele>
        <time>2024-06-25T08:20:54Z</time>
      </trkpt>
      <trkpt lat="50.39026" lon="4.4571">
        <ele>120</ele>
        <time>2024-06-25T08:21:23Z</time>
      </trkpt>
      <trkpt lat="50.39026" lon="4.45711">
        <ele>120</ele>
        <time>2024-06-25T08:21:51Z</time>
      </trkpt>
      <trkpt lat="50.39026" lon="4.45711">
        <ele>120</ele>
        <time>2024-06-25T08:22:20Z</time>
      </trkpt>
      <trkpt lat="50.39026" lon="4.45711">
        <ele>120</ele>
        <time>2024-06-25T08:22:46Z</time>
      </trkpt>
      <trkpt lat="50.39027" lon="4.45711">
        <ele>120</ele>
        <time>2024-06-25T08:23:17Z</time>
      </trkpt>
      <trkpt lat="50.39027" lon="4.45711">
        <ele>119.8</ele>
        <time>2024-06-25T08:23:44Z</time>
      </trkpt>
      <trkpt lat="50.39027" lon="4.45711">
        <ele>119.8</ele>
        <time>2024-06-25T08:24:13Z</time>
      </trkpt>
      <trkpt lat="50.39027" lon="4.45711">
        <ele>120</ele>
        <time>2024-06-25T08:24:42Z</time>
      </trkpt>
      <trkpt lat="50.39026" lon="4.45711">
        <ele>119.2</ele>
        <time>2024-06-25T08:25:13Z</time>
      </trkpt>
      <trkpt lat="50.39026" lon="4.45711">
        <ele>118.6</ele>
        <time>2024-06-25T08:25:37Z</time>
      </trkpt>
      <trkpt lat="50.39026" lon="4.4571">
        <ele>118.2</ele>
        <time>2024-06-25T08:26:02Z</time>
      </trkpt>
      <trkpt lat="50.39026" lon="4.45709">
        <ele>118</ele>
        <time>2024-06-25T08:26:27Z</time>
      </trkpt>
      <trkpt lat="50.39026" lon="4.45709">
        <ele>117.8</ele>
        <time>2024-06-25T08:26:50Z</time>
      </trkpt>
      <trkpt lat="50.39025" lon="4.45708">
        <ele>117.8</ele>
        <time>2024-06-25T08:27:21Z</time>
      </trkpt>
      <trkpt lat="50.39025" lon="4.45708">
        <ele>117.8</ele>
        <time>2024-06-25T08:27:47Z</time>
      </trkpt>
      <trkpt lat="50.39025" lon="4.45708">
        <ele>117.8</ele>
        <time>2024-06-25T08:28:06Z</time>
      </trkpt>
      <trkpt lat="50.39025" lon="4.45708">
        <ele>117.8</ele>
        <time>2024-06-25T08:28:28Z</time>
      </trkpt>
      <trkpt lat="50.39025" lon="4.45708">
        <ele>118</ele>
        <time>2024-06-25T08:28:59Z</time>
      </trkpt>
      <trkpt lat="50.39024" lon="4.45708">
        <ele>118.2</ele>
        <time>2024-06-25T08:29:18Z</time>
      </trkpt>
      <trkpt lat="50.39024" lon="4.45708">
        <ele>118.2</ele>
        <time>2024-06-25T08:29:34Z</time>
      </trkpt>
      <trkpt lat="50.39023" lon="4.45706">
        <ele>118.2</ele>
        <time>2024-06-25T08:29:46Z</time>
      </trkpt>
      <trkpt lat="50.39022" lon="4.45709">
        <ele>118.6</ele>
        <time>2024-06-25T08:29:53Z</time>
      </trkpt>
      <trkpt lat="50.39021" lon="4.45709">
        <ele>118.6</ele>
        <time>2024-06-25T08:29:57Z</time>
      </trkpt>
      <trkpt lat="50.39019" lon="4.45708">
        <ele>118.6</ele>
        <time>2024-06-25T08:29:59Z</time>
      </trkpt>
      <trkpt lat="50.39019" lon="4.45708">
        <ele>118.6</ele>
        <time>2024-06-25T08:30:05Z</time>
      </trkpt>
      <trkpt lat="50.39018" lon="4.45708">
        <ele>119</ele>
        <time>2024-06-25T08:30:23Z</time>
      </trkpt>
      <trkpt lat="50.39009" lon="4.45706">
        <ele>119</ele>
        <time>2024-06-25T08:30:29Z</time>
      </trkpt>
      <trkpt lat="50.39004" lon="4.45699">
        <ele>119</ele>
        <time>2024-06-25T08:30:32Z</time>
      </trkpt>
      <trkpt lat="50.39003" lon="4.45694">
        <ele>119</ele>
        <time>2024-06-25T08:30:34Z</time>
      </trkpt>
      <trkpt lat="50.39004" lon="4.45686">
        <ele>119.2</ele>
        <time>2024-06-25T08:30:38Z</time>
      </trkpt>
      <trkpt lat="50.39005" lon="4.45685">
        <ele>119</ele>
        <time>2024-06-25T08:30:39Z</time>
      </trkpt>
      <trkpt lat="50.39004" lon="4.45682">
        <ele>119.2</ele>
        <time>2024-06-25T08:30:44Z</time>
      </trkpt>
      <trkpt lat="50.39004" lon="4.45682">
        <ele>119.4</ele>
        <time>2024-06-25T08:31:01Z</time>
      </trkpt>
      <trkpt lat="50.39003" lon="4.45682">
        <ele>119.6</ele>
        <time>2024-06-25T08:31:22Z</time>
      </trkpt>
      <trkpt lat="50.39003" lon="4.45682">
        <ele>119.6</ele>
        <time>2024-06-25T08:31:39Z</time>
      </trkpt>
      <trkpt lat="50.39004" lon="4.45679">
        <ele>119.6</ele>
        <time>2024-06-25T08:31:41Z</time>
      </trkpt>
      <trkpt lat="50.39007" lon="4.45676">
        <ele>119.8</ele>
        <time>2024-06-25T08:31:43Z</time>
      </trkpt>
      <trkpt lat="50.39008" lon="4.45677">
        <ele>119.8</ele>
        <time>2024-06-25T08:31:44Z</time>
      </trkpt>
      <trkpt lat="50.39019" lon="4.45681">
        <ele>119.6</ele>
        <time>2024-06-25T08:31:48Z</time>
      </trkpt>
      <trkpt lat="50.39037" lon="4.45689">
        <ele>119.4</ele>
        <time>2024-06-25T08:31:53Z</time>
      </trkpt>
      <trkpt lat="50.39065" lon="4.45713">
        <ele>119.4</ele>
        <time>2024-06-25T08:32:00Z</time>
      </trkpt>
      <trkpt lat="50.39089" lon="4.45732">
        <ele>119.2</ele>
        <time>2024-06-25T08:32:07Z</time>
      </trkpt>
      <trkpt lat="50.39114" lon="4.45749">
        <ele>118.6</ele>
        <time>2024-06-25T08:32:14Z</time>
      </trkpt>
      <trkpt lat="50.39123" lon="4.45756">
        <ele>118.4</ele>
        <time>2024-06-25T08:32:18Z</time>
      </trkpt>
      <trkpt lat="50.39127" lon="4.45759">
        <ele>118.2</ele>
        <time>2024-06-25T08:32:20Z</time>
      </trkpt>
      <trkpt lat="50.39133" lon="4.45755">
        <ele>118</ele>
        <time>2024-06-25T08:32:22Z</time>
      </trkpt>
      <trkpt lat="50.39138" lon="4.45746">
        <ele>117.8</ele>
        <time>2024-06-25T08:32:24Z</time>
      </trkpt>
      <trkpt lat="50.39144" lon="4.45732">
        <ele>117.6</ele>
        <time>2024-06-25T08:32:26Z</time>
      </trkpt>
      <trkpt lat="50.39168" lon="4.45685">
        <ele>116.8</ele>
        <time>2024-06-25T08:32:32Z</time>
      </trkpt>
      <trkpt lat="50.39206" lon="4.45618">
        <ele>115.8</ele>
        <time>2024-06-25T08:32:40Z</time>
      </trkpt>
      <trkpt lat="50.39247" lon="4.45549">
        <ele>114.6</ele>
        <time>2024-06-25T08:32:48Z</time>
      </trkpt>
      <trkpt lat="50.39256" lon="4.45531">
        <ele>114.4</ele>
        <time>2024-06-25T08:32:50Z</time>
      </trkpt>
      <trkpt lat="50.3926" lon="4.45521">
        <ele>114.2</ele>
        <time>2024-06-25T08:32:51Z</time>
      </trkpt>
      <trkpt lat="50.39264" lon="4.4551">
        <ele>114.2</ele>
        <time>2024-06-25T08:32:52Z</time>
      </trkpt>
      <trkpt lat="50.39273" lon="4.4548">
        <ele>113.8</ele>
        <time>2024-06-25T08:32:55Z</time>
      </trkpt>
      <trkpt lat="50.39275" lon="4.4547">
        <ele>113.8</ele>
        <time>2024-06-25T08:32:56Z</time>
      </trkpt>
      <trkpt lat="50.39274" lon="4.45453">
        <ele>113.6</ele>
        <time>2024-06-25T08:32:58Z</time>
      </trkpt>
      <trkpt lat="50.39268" lon="4.4543">
        <ele>113.6</ele>
        <time>2024-06-25T08:33:01Z</time>
      </trkpt>
      <trkpt lat="50.39266" lon="4.45412">
        <ele>113.4</ele>
        <time>2024-06-25T08:33:03Z</time>
      </trkpt>
      <trkpt lat="50.39263" lon="4.45379">
        <ele>113.4</ele>
        <time>2024-06-25T08:33:07Z</time>
      </trkpt>
      <trkpt lat="50.39261" lon="4.45361">
        <ele>113.4</ele>
        <time>2024-06-25T08:33:09Z</time>
      </trkpt>
      <trkpt lat="50.39255" lon="4.45334">
        <ele>113.4</ele>
        <time>2024-06-25T08:33:12Z</time>
      </trkpt>
      <trkpt lat="50.39239" lon="4.45271">
        <ele>113.4</ele>
        <time>2024-06-25T08:33:20Z</time>
      </trkpt>
      <trkpt lat="50.39224" lon="4.45212">
        <ele>113.8</ele>
        <time>2024-06-25T08:33:28Z</time>
      </trkpt>
      <trkpt lat="50.39218" lon="4.45185">
        <ele>113.8</ele>
        <time>2024-06-25T08:33:32Z</time>
      </trkpt>
      <trkpt lat="50.39217" lon="4.4517">
        <ele>114</ele>
        <time>2024-06-25T08:33:34Z</time>
      </trkpt>
      <trkpt lat="50.3922" lon="4.45155">
        <ele>114</ele>
        <time>2024-06-25T08:33:36Z</time>
      </trkpt>
      <trkpt lat="50.39224" lon="4.45141">
        <ele>114.2</ele>
        <time>2024-06-25T08:33:38Z</time>
      </trkpt>
      <trkpt lat="50.3923" lon="4.45127">
        <ele>114.2</ele>
        <time>2024-06-25T08:33:40Z</time>
      </trkpt>
      <trkpt lat="50.39243" lon="4.45101">
        <ele>114.4</ele>
        <time>2024-06-25T08:33:44Z</time>
      </trkpt>
      <trkpt lat="50.39263" lon="4.45051">
        <ele>114.8</ele>
        <time>2024-06-25T08:33:51Z</time>
      </trkpt>
      <trkpt lat="50.39273" lon="4.45008">
        <ele>115</ele>
        <time>2024-06-25T08:33:57Z</time>
      </trkpt>
      <trkpt lat="50.3928" lon="4.44958">
        <ele>115.4</ele>
        <time>2024-06-25T08:34:04Z</time>
      </trkpt>
      <trkpt lat="50.39286" lon="4.4491">
        <ele>115.8</ele>
        <time>2024-06-25T08:34:11Z</time>
      </trkpt>
      <trkpt lat="50.39291" lon="4.44875">
        <ele>116</ele>
        <time>2024-06-25T08:34:17Z</time>
      </trkpt>
      <trkpt lat="50.39295" lon="4.44849">
        <ele>116.2</ele>
        <time>2024-06-25T08:34:23Z</time>
      </trkpt>
      <trkpt lat="50.39296" lon="4.44845">
        <ele>116.4</ele>
        <time>2024-06-25T08:34:26Z</time>
      </trkpt>
      <trkpt lat="50.39296" lon="4.44845">
        <ele>116.8</ele>
        <time>2024-06-25T08:34:41Z</time>
      </trkpt>
      <trkpt lat="50.39296" lon="4.4484">
        <ele>117.4</ele>
        <time>2024-06-25T08:34:55Z</time>
      </trkpt>
      <trkpt lat="50.39296" lon="4.44814">
        <ele>117.6</ele>
        <time>2024-06-25T08:35:00Z</time>
      </trkpt>
      <trkpt lat="50.39297" lon="4.44778">
        <ele>118</ele>
        <time>2024-06-25T08:35:05Z</time>
      </trkpt>
      <trkpt lat="50.393" lon="4.44725">
        <ele>118</ele>
        <time>2024-06-25T08:35:12Z</time>
      </trkpt>
      <trkpt lat="50.39298" lon="4.44689">
        <ele>118.2</ele>
        <time>2024-06-25T08:35:17Z</time>
      </trkpt>
      <trkpt lat="50.39296" lon="4.44682">
        <ele>118.2</ele>
        <time>2024-06-25T08:35:18Z</time>
      </trkpt>
      <trkpt lat="50.39283" lon="4.44618">
        <ele>118.6</ele>
        <time>2024-06-25T08:35:27Z</time>
      </trkpt>
      <trkpt lat="50.39272" lon="4.44562">
        <ele>119</ele>
        <time>2024-06-25T08:35:35Z</time>
      </trkpt>
      <trkpt lat="50.39259" lon="4.44501">
        <ele>120.2</ele>
        <time>2024-06-25T08:35:44Z</time>
      </trkpt>
      <trkpt lat="50.39246" lon="4.44438">
        <ele>121</ele>
        <time>2024-06-25T08:35:53Z</time>
      </trkpt>
      <trkpt lat="50.39235" lon="4.44385">
        <ele>121.8</ele>
        <time>2024-06-25T08:36:00Z</time>
      </trkpt>
      <trkpt lat="50.39231" lon="4.44371">
        <ele>122</ele>
        <time>2024-06-25T08:36:02Z</time>
      </trkpt>
      <trkpt lat="50.39226" lon="4.44349">
        <ele>122</ele>
        <time>2024-06-25T08:36:05Z</time>
      </trkpt>
      <trkpt lat="50.39214" lon="4.44288">
        <ele>122.8</ele>
        <time>2024-06-25T08:36:13Z</time>
      </trkpt>
      <trkpt lat="50.39202" lon="4.44232">
        <ele>123.2</ele>
        <time>2024-06-25T08:36:21Z</time>
      </trkpt>
      <trkpt lat="50.39186" lon="4.44163">
        <ele>123.6</ele>
        <time>2024-06-25T08:36:31Z</time>
      </trkpt>
      <trkpt lat="50.39175" lon="4.44108">
        <ele>124.2</ele>
        <time>2024-06-25T08:36:39Z</time>
      </trkpt>
      <trkpt lat="50.39163" lon="4.44052">
        <ele>124.8</ele>
        <time>2024-06-25T08:36:47Z</time>
      </trkpt>
      <trkpt lat="50.39149" lon="4.43988">
        <ele>125.8</ele>
        <time>2024-06-25T08:36:56Z</time>
      </trkpt>
      <trkpt lat="50.39132" lon="4.43916">
        <ele>126.4</ele>
        <time>2024-06-25T08:37:06Z</time>
      </trkpt>
      <trkpt lat="50.39119" lon="4.43861">
        <ele>127.2</ele>
        <time>2024-06-25T08:37:14Z</time>
      </trkpt>
      <trkpt lat="50.39115" lon="4.43844">
        <ele>127.2</ele>
        <time>2024-06-25T08:37:18Z</time>
      </trkpt>
      <trkpt lat="50.39114" lon="4.43839">
        <ele>127.6</ele>
        <time>2024-06-25T08:37:23Z</time>
      </trkpt>
      <trkpt lat="50.39114" lon="4.43839">
        <ele>128.8</ele>
        <time>2024-06-25T08:37:44Z</time>
      </trkpt>
      <trkpt lat="50.39114" lon="4.43839">
        <ele>129</ele>
        <time>2024-06-25T08:37:49Z</time>
      </trkpt>
      <trkpt lat="50.39112" lon="4.43832">
        <ele>129.2</ele>
        <time>2024-06-25T08:37:51Z</time>
      </trkpt>
      <trkpt lat="50.39108" lon="4.43809">
        <ele>129.4</ele>
        <time>2024-06-25T08:37:55Z</time>
      </trkpt>
      <trkpt lat="50.39108" lon="4.43801">
        <ele>129.4</ele>
        <time>2024-06-25T08:37:56Z</time>
      </trkpt>
      <trkpt lat="50.39107" lon="4.43793">
        <ele>129.6</ele>
        <time>2024-06-25T08:37:57Z</time>
      </trkpt>
      <trkpt lat="50.39103" lon="4.43776">
        <ele>129.6</ele>
        <time>2024-06-25T08:37:59Z</time>
      </trkpt>
      <trkpt lat="50.391" lon="4.43769">
        <ele>129.6</ele>
        <time>2024-06-25T08:38:00Z</time>
      </trkpt>
      <trkpt lat="50.39092" lon="4.43747">
        <ele>129.8</ele>
        <time>2024-06-25T08:38:03Z</time>
      </trkpt>
      <trkpt lat="50.39088" lon="4.43731">
        <ele>130</ele>
        <time>2024-06-25T08:38:05Z</time>
      </trkpt>
      <trkpt lat="50.39077" lon="4.43672">
        <ele>130.6</ele>
        <time>2024-06-25T08:38:13Z</time>
      </trkpt>
      <trkpt lat="50.39065" lon="4.4361">
        <ele>131.2</ele>
        <time>2024-06-25T08:38:21Z</time>
      </trkpt>
      <trkpt lat="50.39052" lon="4.43542">
        <ele>131.6</ele>
        <time>2024-06-25T08:38:30Z</time>
      </trkpt>
      <trkpt lat="50.39041" lon="4.4348">
        <ele>132</ele>
        <time>2024-06-25T08:38:38Z</time>
      </trkpt>
      <trkpt lat="50.39033" lon="4.43438">
        <ele>132.6</ele>
        <time>2024-06-25T08:38:44Z</time>
      </trkpt>
      <trkpt lat="50.39023" lon="4.43378">
        <ele>133.2</ele>
        <time>2024-06-25T08:38:52Z</time>
      </trkpt>
      <trkpt lat="50.39017" lon="4.4333">
        <ele>134</ele>
        <time>2024-06-25T08:38:59Z</time>
      </trkpt>
      <trkpt lat="50.39006" lon="4.43246">
        <ele>135</ele>
        <time>2024-06-25T08:39:10Z</time>
      </trkpt>
      <trkpt lat="50.38996" lon="4.43169">
        <ele>136.2</ele>
        <time>2024-06-25T08:39:20Z</time>
      </trkpt>
      <trkpt lat="50.3899" lon="4.43109">
        <ele>137.2</ele>
        <time>2024-06-25T08:39:28Z</time>
      </trkpt>
      <trkpt lat="50.38985" lon="4.4305">
        <ele>138.2</ele>
        <time>2024-06-25T08:39:36Z</time>
      </trkpt>
      <trkpt lat="50.38981" lon="4.42985">
        <ele>140</ele>
        <time>2024-06-25T08:39:45Z</time>
      </trkpt>
      <trkpt lat="50.38979" lon="4.42926">
        <ele>142.2</ele>
        <time>2024-06-25T08:39:53Z</time>
      </trkpt>
      <trkpt lat="50.38984" lon="4.42857">
        <ele>144</ele>
        <time>2024-06-25T08:40:02Z</time>
      </trkpt>
      <trkpt lat="50.38994" lon="4.42797">
        <ele>145.2</ele>
        <time>2024-06-25T08:40:10Z</time>
      </trkpt>
      <trkpt lat="50.39005" lon="4.42747">
        <ele>146.2</ele>
        <time>2024-06-25T08:40:17Z</time>
      </trkpt>
      <trkpt lat="50.39026" lon="4.42678">
        <ele>147.2</ele>
        <time>2024-06-25T08:40:27Z</time>
      </trkpt>
      <trkpt lat="50.39043" lon="4.42634">
        <ele>147.6</ele>
        <time>2024-06-25T08:40:34Z</time>
      </trkpt>
      <trkpt lat="50.39072" lon="4.42565">
        <ele>148.4</ele>
        <time>2024-06-25T08:40:45Z</time>
      </trkpt>
      <trkpt lat="50.39092" lon="4.42516">
        <ele>149.2</ele>
        <time>2024-06-25T08:40:53Z</time>
      </trkpt>
      <trkpt lat="50.39107" lon="4.42478">
        <ele>149.6</ele>
        <time>2024-06-25T08:40:59Z</time>
      </trkpt>
      <trkpt lat="50.39108" lon="4.4247">
        <ele>149.6</ele>
        <time>2024-06-25T08:41:00Z</time>
      </trkpt>
      <trkpt lat="50.39111" lon="4.42465">
        <ele>149.6</ele>
        <time>2024-06-25T08:41:01Z</time>
      </trkpt>
      <trkpt lat="50.39132" lon="4.42427">
        <ele>149.8</ele>
        <time>2024-06-25T08:41:08Z</time>
      </trkpt>
      <trkpt lat="50.3914" lon="4.42409">
        <ele>150.2</ele>
        <time>2024-06-25T08:41:11Z</time>
      </trkpt>
      <trkpt lat="50.39149" lon="4.42394">
        <ele>150.2</ele>
        <time>2024-06-25T08:41:14Z</time>
      </trkpt>
      <trkpt lat="50.39163" lon="4.42368">
        <ele>150.4</ele>
        <time>2024-06-25T08:41:19Z</time>
      </trkpt>
      <trkpt lat="50.39169" lon="4.42358">
        <ele>150.4</ele>
        <time>2024-06-25T08:41:21Z</time>
      </trkpt>
      <trkpt lat="50.39186" lon="4.42334">
        <ele>150.8</ele>
        <time>2024-06-25T08:41:27Z</time>
      </trkpt>
      <trkpt lat="50.39194" lon="4.42335">
        <ele>151</ele>
        <time>2024-06-25T08:41:29Z</time>
      </trkpt>
      <trkpt lat="50.39203" lon="4.42341">
        <ele>151</ele>
        <time>2024-06-25T08:41:31Z</time>
      </trkpt>
      <trkpt lat="50.39229" lon="4.42374">
        <ele>151.2</ele>
        <time>2024-06-25T08:41:37Z</time>
      </trkpt>
      <trkpt lat="50.39259" lon="4.42416">
        <ele>151</ele>
        <time>2024-06-25T08:41:44Z</time>
      </trkpt>
      <trkpt lat="50.39268" lon="4.42416">
        <ele>151</ele>
        <time>2024-06-25T08:41:46Z</time>
      </trkpt>
      <trkpt lat="50.39274" lon="4.42406">
        <ele>151</ele>
        <time>2024-06-25T08:41:48Z</time>
      </trkpt>
      <trkpt lat="50.39281" lon="4.42394">
        <ele>151</ele>
        <time>2024-06-25T08:41:50Z</time>
      </trkpt>
      <trkpt lat="50.39299" lon="4.42368">
        <ele>150.8</ele>
        <time>2024-06-25T08:41:56Z</time>
      </trkpt>
      <trkpt lat="50.39306" lon="4.42364">
        <ele>150.8</ele>
        <time>2024-06-25T08:41:58Z</time>
      </trkpt>
      <trkpt lat="50.39313" lon="4.42356">
        <ele>151</ele>
        <time>2024-06-25T08:42:00Z</time>
      </trkpt>
      <trkpt lat="50.39314" lon="4.4235">
        <ele>151</ele>
        <time>2024-06-25T08:42:01Z</time>
      </trkpt>
      <trkpt lat="50.39315" lon="4.42343">
        <ele>150.8</ele>
        <time>2024-06-25T08:42:02Z</time>
      </trkpt>
      <trkpt lat="50.39317" lon="4.42331">
        <ele>150.8</ele>
        <time>2024-06-25T08:42:04Z</time>
      </trkpt>
      <trkpt lat="50.39335" lon="4.42299">
        <ele>150.4</ele>
        <time>2024-06-25T08:42:10Z</time>
      </trkpt>
      <trkpt lat="50.39359" lon="4.42258">
        <ele>149.8</ele>
        <time>2024-06-25T08:42:17Z</time>
      </trkpt>
      <trkpt lat="50.39362" lon="4.42254">
        <ele>149.8</ele>
        <time>2024-06-25T08:42:18Z</time>
      </trkpt>
      <trkpt lat="50.39366" lon="4.42251">
        <ele>149.8</ele>
        <time>2024-06-25T08:42:19Z</time>
      </trkpt>
      <trkpt lat="50.39373" lon="4.42246">
        <ele>149.6</ele>
        <time>2024-06-25T08:42:21Z</time>
      </trkpt>
      <trkpt lat="50.39375" lon="4.42241">
        <ele>149.6</ele>
        <time>2024-06-25T08:42:22Z</time>
      </trkpt>
      <trkpt lat="50.39376" lon="4.42237">
        <ele>149.4</ele>
        <time>2024-06-25T08:42:23Z</time>
      </trkpt>
      <trkpt lat="50.39374" lon="4.42227">
        <ele>149.2</ele>
        <time>2024-06-25T08:42:25Z</time>
      </trkpt>
      <trkpt lat="50.39367" lon="4.42224">
        <ele>149</ele>
        <time>2024-06-25T08:42:28Z</time>
      </trkpt>
      <trkpt lat="50.39365" lon="4.42222">
        <ele>149</ele>
        <time>2024-06-25T08:42:29Z</time>
      </trkpt>
      <trkpt lat="50.39362" lon="4.42215">
        <ele>148.8</ele>
        <time>2024-06-25T08:42:31Z</time>
      </trkpt>
      <trkpt lat="50.39347" lon="4.42182">
        <ele>148.8</ele>
        <time>2024-06-25T08:42:37Z</time>
      </trkpt>
      <trkpt lat="50.39341" lon="4.42171">
        <ele>148.8</ele>
        <time>2024-06-25T08:42:39Z</time>
      </trkpt>
      <trkpt lat="50.39328" lon="4.42152">
        <ele>148.8</ele>
        <time>2024-06-25T08:42:43Z</time>
      </trkpt>
      <trkpt lat="50.39326" lon="4.42147">
        <ele>148.8</ele>
        <time>2024-06-25T08:42:44Z</time>
      </trkpt>
      <trkpt lat="50.39325" lon="4.42135">
        <ele>148.8</ele>
        <time>2024-06-25T08:42:46Z</time>
      </trkpt>
      <trkpt lat="50.39327" lon="4.42131">
        <ele>148.8</ele>
        <time>2024-06-25T08:42:47Z</time>
      </trkpt>
      <trkpt lat="50.3933" lon="4.42128">
        <ele>148.8</ele>
        <time>2024-06-25T08:42:48Z</time>
      </trkpt>
      <trkpt lat="50.39337" lon="4.42121">
        <ele>148.8</ele>
        <time>2024-06-25T08:42:50Z</time>
      </trkpt>
      <trkpt lat="50.39349" lon="4.42107">
        <ele>148.8</ele>
        <time>2024-06-25T08:42:53Z</time>
      </trkpt>
      <trkpt lat="50.39356" lon="4.42094">
        <ele>149</ele>
        <time>2024-06-25T08:42:55Z</time>
      </trkpt>
      <trkpt lat="50.39359" lon="4.42087">
        <ele>149</ele>
        <time>2024-06-25T08:42:56Z</time>
      </trkpt>
      <trkpt lat="50.39364" lon="4.42069">
        <ele>149</ele>
        <time>2024-06-25T08:42:59Z</time>
      </trkpt>
      <trkpt lat="50.39368" lon="4.42063">
        <ele>149</ele>
        <time>2024-06-25T08:43:03Z</time>
      </trkpt>
      <trkpt lat="50.39368" lon="4.42063">
        <ele>149</ele>
        <time>2024-06-25T08:43:13Z</time>
      </trkpt>
      <trkpt lat="50.39373" lon="4.42055">
        <ele>148.8</ele>
        <time>2024-06-25T08:43:17Z</time>
      </trkpt>
      <trkpt lat="50.39383" lon="4.42038">
        <ele>148.8</ele>
        <time>2024-06-25T08:43:22Z</time>
      </trkpt>
      <trkpt lat="50.39399" lon="4.42024">
        <ele>148.4</ele>
        <time>2024-06-25T08:43:27Z</time>
      </trkpt>
      <trkpt lat="50.39423" lon="4.42007">
        <ele>148.2</ele>
        <time>2024-06-25T08:43:34Z</time>
      </trkpt>
      <trkpt lat="50.39431" lon="4.41992">
        <ele>148</ele>
        <time>2024-06-25T08:43:38Z</time>
      </trkpt>
      <trkpt lat="50.39436" lon="4.41976">
        <ele>148</ele>
        <time>2024-06-25T08:43:43Z</time>
      </trkpt>
      <trkpt lat="50.39449" lon="4.41969">
        <ele>148</ele>
        <time>2024-06-25T08:43:47Z</time>
      </trkpt>
      <trkpt lat="50.39456" lon="4.41963">
        <ele>148</ele>
        <time>2024-06-25T08:43:49Z</time>
      </trkpt>
      <trkpt lat="50.39462" lon="4.41954">
        <ele>148</ele>
        <time>2024-06-25T08:43:51Z</time>
      </trkpt>
      <trkpt lat="50.39481" lon="4.41927">
        <ele>148</ele>
        <time>2024-06-25T08:43:58Z</time>
      </trkpt>
      <trkpt lat="50.39496" lon="4.41904">
        <ele>147.8</ele>
        <time>2024-06-25T08:44:03Z</time>
      </trkpt>
      <trkpt lat="50.39515" lon="4.41867">
        <ele>147.6</ele>
        <time>2024-06-25T08:44:09Z</time>
      </trkpt>
      <trkpt lat="50.39539" lon="4.41824">
        <ele>147.2</ele>
        <time>2024-06-25T08:44:17Z</time>
      </trkpt>
      <trkpt lat="50.39553" lon="4.41806">
        <ele>146.8</ele>
        <time>2024-06-25T08:44:22Z</time>
      </trkpt>
      <trkpt lat="50.39567" lon="4.41785">
        <ele>146.4</ele>
        <time>2024-06-25T08:44:27Z</time>
      </trkpt>
      <trkpt lat="50.39576" lon="4.41765">
        <ele>145.8</ele>
        <time>2024-06-25T08:44:32Z</time>
      </trkpt>
      <trkpt lat="50.39576" lon="4.41764">
        <ele>145.6</ele>
        <time>2024-06-25T08:44:37Z</time>
      </trkpt>
      <trkpt lat="50.39576" lon="4.41764">
        <ele>145.2</ele>
        <time>2024-06-25T08:44:47Z</time>
      </trkpt>
      <trkpt lat="50.39578" lon="4.4176">
        <ele>145.4</ele>
        <time>2024-06-25T08:44:49Z</time>
      </trkpt>
      <trkpt lat="50.39576" lon="4.41745">
        <ele>145.4</ele>
        <time>2024-06-25T08:44:52Z</time>
      </trkpt>
      <trkpt lat="50.39573" lon="4.41739">
        <ele>145.2</ele>
        <time>2024-06-25T08:44:53Z</time>
      </trkpt>
      <trkpt lat="50.39567" lon="4.41727">
        <ele>145.2</ele>
        <time>2024-06-25T08:44:55Z</time>
      </trkpt>
      <trkpt lat="50.39556" lon="4.4171">
        <ele>145.4</ele>
        <time>2024-06-25T08:44:58Z</time>
      </trkpt>
      <trkpt lat="50.39533" lon="4.41668">
        <ele>145.6</ele>
        <time>2024-06-25T08:45:04Z</time>
      </trkpt>
      <trkpt lat="50.39516" lon="4.41637">
        <ele>145.6</ele>
        <time>2024-06-25T08:45:09Z</time>
      </trkpt>
      <trkpt lat="50.39515" lon="4.4163">
        <ele>145.6</ele>
        <time>2024-06-25T08:45:10Z</time>
      </trkpt>
      <trkpt lat="50.39517" lon="4.41623">
        <ele>145.8</ele>
        <time>2024-06-25T08:45:11Z</time>
      </trkpt>
      <trkpt lat="50.39525" lon="4.41612">
        <ele>145.8</ele>
        <time>2024-06-25T08:45:13Z</time>
      </trkpt>
      <trkpt lat="50.39544" lon="4.41588">
        <ele>145.8</ele>
        <time>2024-06-25T08:45:18Z</time>
      </trkpt>
      <trkpt lat="50.39547" lon="4.41583">
        <ele>145.8</ele>
        <time>2024-06-25T08:45:19Z</time>
      </trkpt>
      <trkpt lat="50.39557" lon="4.41558">
        <ele>145.8</ele>
        <time>2024-06-25T08:45:24Z</time>
      </trkpt>
      <trkpt lat="50.3956" lon="4.41545">
        <ele>145.2</ele>
        <time>2024-06-25T08:45:26Z</time>
      </trkpt>
      <trkpt lat="50.39561" lon="4.41539">
        <ele>145.4</ele>
        <time>2024-06-25T08:45:27Z</time>
      </trkpt>
      <trkpt lat="50.39565" lon="4.41505">
        <ele>145</ele>
        <time>2024-06-25T08:45:33Z</time>
      </trkpt>
      <trkpt lat="50.39565" lon="4.41497">
        <ele>144.8</ele>
        <time>2024-06-25T08:45:35Z</time>
      </trkpt>
      <trkpt lat="50.39565" lon="4.41495">
        <ele>144.8</ele>
        <time>2024-06-25T08:45:36Z</time>
      </trkpt>
      <trkpt lat="50.39567" lon="4.41492">
        <ele>144.6</ele>
        <time>2024-06-25T08:45:40Z</time>
      </trkpt>
      <trkpt lat="50.39568" lon="4.41487">
        <ele>144.6</ele>
        <time>2024-06-25T08:45:42Z</time>
      </trkpt>
      <trkpt lat="50.39568" lon="4.41473">
        <ele>144.2</ele>
        <time>2024-06-25T08:45:47Z</time>
      </trkpt>
      <trkpt lat="50.39569" lon="4.41462">
        <ele>144</ele>
        <time>2024-06-25T08:45:50Z</time>
      </trkpt>
      <trkpt lat="50.3957" lon="4.41454">
        <ele>144</ele>
        <time>2024-06-25T08:45:52Z</time>
      </trkpt>
      <trkpt lat="50.39574" lon="4.41448">
        <ele>143.8</ele>
        <time>2024-06-25T08:45:54Z</time>
      </trkpt>
      <trkpt lat="50.39575" lon="4.41447">
        <ele>143.8</ele>
        <time>2024-06-25T08:45:55Z</time>
      </trkpt>
      <trkpt lat="50.39577" lon="4.41447">
        <ele>143.8</ele>
        <time>2024-06-25T08:45:56Z</time>
      </trkpt>
      <trkpt lat="50.39584" lon="4.41454">
        <ele>143.6</ele>
        <time>2024-06-25T08:45:59Z</time>
      </trkpt>
      <trkpt lat="50.39599" lon="4.4147">
        <ele>143</ele>
        <time>2024-06-25T08:46:04Z</time>
      </trkpt>
      <trkpt lat="50.39602" lon="4.41474">
        <ele>142.8</ele>
        <time>2024-06-25T08:46:05Z</time>
      </trkpt>
      <trkpt lat="50.39622" lon="4.41496">
        <ele>142.2</ele>
        <time>2024-06-25T08:46:09Z</time>
      </trkpt>
      <trkpt lat="50.39629" lon="4.41499">
        <ele>141.8</ele>
        <time>2024-06-25T08:46:12Z</time>
      </trkpt>
      <trkpt lat="50.39637" lon="4.41499">
        <ele>141.4</ele>
        <time>2024-06-25T08:46:16Z</time>
      </trkpt>
      <trkpt lat="50.39639" lon="4.41497">
        <ele>141.4</ele>
        <time>2024-06-25T08:46:17Z</time>
      </trkpt>
      <trkpt lat="50.39648" lon="4.41491">
        <ele>140.8</ele>
        <time>2024-06-25T08:46:20Z</time>
      </trkpt>
      <trkpt lat="50.39653" lon="4.41489">
        <ele>140.4</ele>
        <time>2024-06-25T08:46:22Z</time>
      </trkpt>
      <trkpt lat="50.39659" lon="4.41486">
        <ele>140</ele>
        <time>2024-06-25T08:46:25Z</time>
      </trkpt>
      <trkpt lat="50.39672" lon="4.41489">
        <ele>139</ele>
        <time>2024-06-25T08:46:30Z</time>
      </trkpt>
      <trkpt lat="50.39683" lon="4.41496">
        <ele>138.6</ele>
        <time>2024-06-25T08:46:34Z</time>
      </trkpt>
      <trkpt lat="50.39697" lon="4.41504">
        <ele>137.8</ele>
        <time>2024-06-25T08:46:38Z</time>
      </trkpt>
      <trkpt lat="50.39712" lon="4.41511">
        <ele>136.8</ele>
        <time>2024-06-25T08:46:43Z</time>
      </trkpt>
      <trkpt lat="50.39715" lon="4.41511">
        <ele>136.6</ele>
        <time>2024-06-25T08:46:44Z</time>
      </trkpt>
      <trkpt lat="50.3972" lon="4.41507">
        <ele>136.6</ele>
        <time>2024-06-25T08:46:46Z</time>
      </trkpt>
      <trkpt lat="50.39722" lon="4.41503">
        <ele>136.4</ele>
        <time>2024-06-25T08:46:47Z</time>
      </trkpt>
      <trkpt lat="50.39727" lon="4.41491">
        <ele>136.6</ele>
        <time>2024-06-25T08:46:50Z</time>
      </trkpt>
      <trkpt lat="50.39729" lon="4.41488">
        <ele>136.4</ele>
        <time>2024-06-25T08:46:51Z</time>
      </trkpt>
      <trkpt lat="50.39736" lon="4.41474">
        <ele>136.2</ele>
        <time>2024-06-25T08:46:55Z</time>
      </trkpt>
      <trkpt lat="50.39737" lon="4.41471">
        <ele>136.2</ele>
        <time>2024-06-25T08:46:56Z</time>
      </trkpt>
      <trkpt lat="50.39741" lon="4.41464">
        <ele>136</ele>
        <time>2024-06-25T08:46:59Z</time>
      </trkpt>
      <trkpt lat="50.39744" lon="4.41463">
        <ele>136</ele>
        <time>2024-06-25T08:47:00Z</time>
      </trkpt>
      <trkpt lat="50.39751" lon="4.41467">
        <ele>135.6</ele>
        <time>2024-06-25T08:47:03Z</time>
      </trkpt>
      <trkpt lat="50.39756" lon="4.41465">
        <ele>135.6</ele>
        <time>2024-06-25T08:47:07Z</time>
      </trkpt>
      <trkpt lat="50.39757" lon="4.41464">
        <ele>135.4</ele>
        <time>2024-06-25T08:47:08Z</time>
      </trkpt>
      <trkpt lat="50.3976" lon="4.41458">
        <ele>135.4</ele>
        <time>2024-06-25T08:47:10Z</time>
      </trkpt>
      <trkpt lat="50.39765" lon="4.41446">
        <ele>135.4</ele>
        <time>2024-06-25T08:47:13Z</time>
      </trkpt>
      <trkpt lat="50.39768" lon="4.4144">
        <ele>135.4</ele>
        <time>2024-06-25T08:47:15Z</time>
      </trkpt>
      <trkpt lat="50.39769" lon="4.41433">
        <ele>135.6</ele>
        <time>2024-06-25T08:47:17Z</time>
      </trkpt>
      <trkpt lat="50.39772" lon="4.41421">
        <ele>136.6</ele>
        <time>2024-06-25T08:47:20Z</time>
      </trkpt>
      <trkpt lat="50.39778" lon="4.41399">
        <ele>136.2</ele>
        <time>2024-06-25T08:47:25Z</time>
      </trkpt>
      <trkpt lat="50.39777" lon="4.41375">
        <ele>136.2</ele>
        <time>2024-06-25T08:47:30Z</time>
      </trkpt>
      <trkpt lat="50.3978" lon="4.41353">
        <ele>136.2</ele>
        <time>2024-06-25T08:47:35Z</time>
      </trkpt>
      <trkpt lat="50.39776" lon="4.41344">
        <ele>136.4</ele>
        <time>2024-06-25T08:47:38Z</time>
      </trkpt>
      <trkpt lat="50.39773" lon="4.41339">
        <ele>136.4</ele>
        <time>2024-06-25T08:47:40Z</time>
      </trkpt>
      <trkpt lat="50.39771" lon="4.41335">
        <ele>136.4</ele>
        <time>2024-06-25T08:47:41Z</time>
      </trkpt>
      <trkpt lat="50.39766" lon="4.41315">
        <ele>136.6</ele>
        <time>2024-06-25T08:47:46Z</time>
      </trkpt>
      <trkpt lat="50.39762" lon="4.41313">
        <ele>136.8</ele>
        <time>2024-06-25T08:47:48Z</time>
      </trkpt>
      <trkpt lat="50.39761" lon="4.41316">
        <ele>136.8</ele>
        <time>2024-06-25T08:47:49Z</time>
      </trkpt>
      <trkpt lat="50.39753" lon="4.41333">
        <ele>136.6</ele>
        <time>2024-06-25T08:47:54Z</time>
      </trkpt>
      <trkpt lat="50.39745" lon="4.41351">
        <ele>136.2</ele>
        <time>2024-06-25T08:47:59Z</time>
      </trkpt>
      <trkpt lat="50.39744" lon="4.41358">
        <ele>136.4</ele>
        <time>2024-06-25T08:48:01Z</time>
      </trkpt>
      <trkpt lat="50.39741" lon="4.41364">
        <ele>136.2</ele>
        <time>2024-06-25T08:48:03Z</time>
      </trkpt>
      <trkpt lat="50.39733" lon="4.41374">
        <ele>135.8</ele>
        <time>2024-06-25T08:48:07Z</time>
      </trkpt>
      <trkpt lat="50.39725" lon="4.41387">
        <ele>136.6</ele>
        <time>2024-06-25T08:48:12Z</time>
      </trkpt>
      <trkpt lat="50.39721" lon="4.41389">
        <ele>136.6</ele>
        <time>2024-06-25T08:48:14Z</time>
      </trkpt>
      <trkpt lat="50.39719" lon="4.41395">
        <ele>136.4</ele>
        <time>2024-06-25T08:48:16Z</time>
      </trkpt>
      <trkpt lat="50.39715" lon="4.41404">
        <ele>136</ele>
        <time>2024-06-25T08:48:19Z</time>
      </trkpt>
      <trkpt lat="50.39714" lon="4.41407">
        <ele>135.8</ele>
        <time>2024-06-25T08:48:20Z</time>
      </trkpt>
      <trkpt lat="50.39713" lon="4.41409">
        <ele>135.8</ele>
        <time>2024-06-25T08:48:21Z</time>
      </trkpt>
      <trkpt lat="50.39708" lon="4.41411">
        <ele>135</ele>
        <time>2024-06-25T08:48:24Z</time>
      </trkpt>
      <trkpt lat="50.39699" lon="4.41408">
        <ele>134.2</ele>
        <time>2024-06-25T08:48:28Z</time>
      </trkpt>
      <trkpt lat="50.39687" lon="4.41405">
        <ele>133</ele>
        <time>2024-06-25T08:48:32Z</time>
      </trkpt>
      <trkpt lat="50.39681" lon="4.41402">
        <ele>132.8</ele>
        <time>2024-06-25T08:48:34Z</time>
      </trkpt>
      <trkpt lat="50.39675" lon="4.41401">
        <ele>132.4</ele>
        <time>2024-06-25T08:48:36Z</time>
      </trkpt>
      <trkpt lat="50.39656" lon="4.41393">
        <ele>132.2</ele>
        <time>2024-06-25T08:48:41Z</time>
      </trkpt>
      <trkpt lat="50.39634" lon="4.41383">
        <ele>131.6</ele>
        <time>2024-06-25T08:48:47Z</time>
      </trkpt>
      <trkpt lat="50.39619" lon="4.41379">
        <ele>131.4</ele>
        <time>2024-06-25T08:48:51Z</time>
      </trkpt>
      <trkpt lat="50.39597" lon="4.41368">
        <ele>131</ele>
        <time>2024-06-25T08:48:57Z</time>
      </trkpt>
      <trkpt lat="50.39583" lon="4.41353">
        <ele>131.4</ele>
        <time>2024-06-25T08:49:02Z</time>
      </trkpt>
      <trkpt lat="50.39581" lon="4.41345">
        <ele>131.6</ele>
        <time>2024-06-25T08:49:04Z</time>
      </trkpt>
      <trkpt lat="50.39581" lon="4.41333">
        <ele>132.4</ele>
        <time>2024-06-25T08:49:06Z</time>
      </trkpt>
      <trkpt lat="50.39583" lon="4.41315">
        <ele>133</ele>
        <time>2024-06-25T08:49:09Z</time>
      </trkpt>
      <trkpt lat="50.39583" lon="4.41309">
        <ele>133.4</ele>
        <time>2024-06-25T08:49:10Z</time>
      </trkpt>
      <trkpt lat="50.39591" lon="4.41281">
        <ele>134.4</ele>
        <time>2024-06-25T08:49:15Z</time>
      </trkpt>
      <trkpt lat="50.39593" lon="4.41277">
        <ele>134.6</ele>
        <time>2024-06-25T08:49:16Z</time>
      </trkpt>
      <trkpt lat="50.39597" lon="4.4127">
        <ele>134.8</ele>
        <time>2024-06-25T08:49:18Z</time>
      </trkpt>
      <trkpt lat="50.39609" lon="4.41245">
        <ele>135.6</ele>
        <time>2024-06-25T08:49:24Z</time>
      </trkpt>
      <trkpt lat="50.39619" lon="4.41224">
        <ele>136.4</ele>
        <time>2024-06-25T08:49:29Z</time>
      </trkpt>
      <trkpt lat="50.39628" lon="4.4121">
        <ele>136.8</ele>
        <time>2024-06-25T08:49:33Z</time>
      </trkpt>
      <trkpt lat="50.39638" lon="4.41198">
        <ele>137.4</ele>
        <time>2024-06-25T08:49:37Z</time>
      </trkpt>
      <trkpt lat="50.39641" lon="4.41197">
        <ele>137.6</ele>
        <time>2024-06-25T08:49:38Z</time>
      </trkpt>
      <trkpt lat="50.39652" lon="4.41194">
        <ele>138</ele>
        <time>2024-06-25T08:49:42Z</time>
      </trkpt>
      <trkpt lat="50.39656" lon="4.41193">
        <ele>138</ele>
        <time>2024-06-25T08:49:43Z</time>
      </trkpt>
      <trkpt lat="50.39665" lon="4.41189">
        <ele>138</ele>
        <time>2024-06-25T08:49:45Z</time>
      </trkpt>
      <trkpt lat="50.3968" lon="4.41185">
        <ele>137.8</ele>
        <time>2024-06-25T08:49:48Z</time>
      </trkpt>
      <trkpt lat="50.39685" lon="4.41185">
        <ele>137.8</ele>
        <time>2024-06-25T08:49:49Z</time>
      </trkpt>
      <trkpt lat="50.39699" lon="4.41184">
        <ele>137.8</ele>
        <time>2024-06-25T08:49:53Z</time>
      </trkpt>
      <trkpt lat="50.39707" lon="4.4118">
        <ele>137.6</ele>
        <time>2024-06-25T08:49:56Z</time>
      </trkpt>
      <trkpt lat="50.39713" lon="4.41176">
        <ele>138.4</ele>
        <time>2024-06-25T08:49:58Z</time>
      </trkpt>
      <trkpt lat="50.39721" lon="4.41166">
        <ele>137</ele>
        <time>2024-06-25T08:50:01Z</time>
      </trkpt>
      <trkpt lat="50.39723" lon="4.41161">
        <ele>136.8</ele>
        <time>2024-06-25T08:50:02Z</time>
      </trkpt>
      <trkpt lat="50.39731" lon="4.41145">
        <ele>136.2</ele>
        <time>2024-06-25T08:50:06Z</time>
      </trkpt>
      <trkpt lat="50.39741" lon="4.41128">
        <ele>136</ele>
        <time>2024-06-25T08:50:11Z</time>
      </trkpt>
      <trkpt lat="50.39755" lon="4.41113">
        <ele>135.6</ele>
        <time>2024-06-25T08:50:17Z</time>
      </trkpt>
      <trkpt lat="50.39765" lon="4.41099">
        <ele>135</ele>
        <time>2024-06-25T08:50:22Z</time>
      </trkpt>
      <trkpt lat="50.39771" lon="4.41079">
        <ele>134.6</ele>
        <time>2024-06-25T08:50:27Z</time>
      </trkpt>
      <trkpt lat="50.39771" lon="4.41065">
        <ele>134.2</ele>
        <time>2024-06-25T08:50:31Z</time>
      </trkpt>
      <trkpt lat="50.39768" lon="4.4105">
        <ele>134.4</ele>
        <time>2024-06-25T08:50:35Z</time>
      </trkpt>
      <trkpt lat="50.39759" lon="4.41041">
        <ele>133.8</ele>
        <time>2024-06-25T08:50:39Z</time>
      </trkpt>
      <trkpt lat="50.3974" lon="4.41039">
        <ele>132.8</ele>
        <time>2024-06-25T08:50:45Z</time>
      </trkpt>
      <trkpt lat="50.39719" lon="4.41035">
        <ele>132.4</ele>
        <time>2024-06-25T08:50:51Z</time>
      </trkpt>
      <trkpt lat="50.39682" lon="4.4103">
        <ele>132</ele>
        <time>2024-06-25T08:51:01Z</time>
      </trkpt>
      <trkpt lat="50.39674" lon="4.41028">
        <ele>132.4</ele>
        <time>2024-06-25T08:51:05Z</time>
      </trkpt>
      <trkpt lat="50.39672" lon="4.41026">
        <ele>132.4</ele>
        <time>2024-06-25T08:51:06Z</time>
      </trkpt>
      <trkpt lat="50.39672" lon="4.41021">
        <ele>132.2</ele>
        <time>2024-06-25T08:51:08Z</time>
      </trkpt>
      <trkpt lat="50.39672" lon="4.41019">
        <ele>133</ele>
        <time>2024-06-25T08:51:10Z</time>
      </trkpt>
      <trkpt lat="50.39672" lon="4.41013">
        <ele>132.8</ele>
        <time>2024-06-25T08:51:18Z</time>
      </trkpt>
      <trkpt lat="50.3967" lon="4.40989">
        <ele>133</ele>
        <time>2024-06-25T08:51:23Z</time>
      </trkpt>
      <trkpt lat="50.39665" lon="4.40977">
        <ele>133.6</ele>
        <time>2024-06-25T08:51:28Z</time>
      </trkpt>
      <trkpt lat="50.39665" lon="4.40976">
        <ele>134</ele>
        <time>2024-06-25T08:51:33Z</time>
      </trkpt>
      <trkpt lat="50.39665" lon="4.40976">
        <ele>134.4</ele>
        <time>2024-06-25T08:51:44Z</time>
      </trkpt>
      <trkpt lat="50.39665" lon="4.40976">
        <ele>135.4</ele>
        <time>2024-06-25T08:52:08Z</time>
      </trkpt>
      <trkpt lat="50.39664" lon="4.40975">
        <ele>136</ele>
        <time>2024-06-25T08:52:24Z</time>
      </trkpt>
      <trkpt lat="50.39662" lon="4.4097">
        <ele>136.4</ele>
        <time>2024-06-25T08:52:34Z</time>
      </trkpt>
      <trkpt lat="50.39655" lon="4.40954">
        <ele>136.6</ele>
        <time>2024-06-25T08:52:38Z</time>
      </trkpt>
      <trkpt lat="50.39649" lon="4.40942">
        <ele>136.6</ele>
        <time>2024-06-25T08:52:41Z</time>
      </trkpt>
      <trkpt lat="50.39646" lon="4.40934">
        <ele>136.6</ele>
        <time>2024-06-25T08:52:43Z</time>
      </trkpt>
      <trkpt lat="50.39635" lon="4.40909">
        <ele>136.8</ele>
        <time>2024-06-25T08:52:49Z</time>
      </trkpt>
      <trkpt lat="50.39627" lon="4.4088">
        <ele>137.2</ele>
        <time>2024-06-25T08:52:56Z</time>
      </trkpt>
      <trkpt lat="50.39625" lon="4.40867">
        <ele>137.2</ele>
        <time>2024-06-25T08:52:59Z</time>
      </trkpt>
      <trkpt lat="50.3962" lon="4.4086">
        <ele>137.4</ele>
        <time>2024-06-25T08:53:01Z</time>
      </trkpt>
      <trkpt lat="50.39605" lon="4.40859">
        <ele>137.4</ele>
        <time>2024-06-25T08:53:05Z</time>
      </trkpt>
      <trkpt lat="50.39603" lon="4.40858">
        <ele>137.4</ele>
        <time>2024-06-25T08:53:06Z</time>
      </trkpt>
      <trkpt lat="50.39601" lon="4.40851">
        <ele>137.6</ele>
        <time>2024-06-25T08:53:08Z</time>
      </trkpt>
      <trkpt lat="50.39607" lon="4.40831">
        <ele>137.6</ele>
        <time>2024-06-25T08:53:12Z</time>
      </trkpt>
      <trkpt lat="50.39612" lon="4.4081">
        <ele>137.6</ele>
        <time>2024-06-25T08:53:16Z</time>
      </trkpt>
      <trkpt lat="50.39625" lon="4.40777">
        <ele>137.6</ele>
        <time>2024-06-25T08:53:23Z</time>
      </trkpt>
      <trkpt lat="50.39638" lon="4.40759">
        <ele>137.8</ele>
        <time>2024-06-25T08:53:28Z</time>
      </trkpt>
      <trkpt lat="50.39645" lon="4.40743">
        <ele>138</ele>
        <time>2024-06-25T08:53:32Z</time>
      </trkpt>
      <trkpt lat="50.39655" lon="4.40723">
        <ele>138</ele>
        <time>2024-06-25T08:53:37Z</time>
      </trkpt>
      <trkpt lat="50.39657" lon="4.40721">
        <ele>138</ele>
        <time>2024-06-25T08:53:38Z</time>
      </trkpt>
      <trkpt lat="50.39664" lon="4.40718">
        <ele>138</ele>
        <time>2024-06-25T08:53:40Z</time>
      </trkpt>
      <trkpt lat="50.39677" lon="4.40713">
        <ele>137.6</ele>
        <time>2024-06-25T08:53:44Z</time>
      </trkpt>
      <trkpt lat="50.39679" lon="4.40713">
        <ele>137.4</ele>
        <time>2024-06-25T08:53:45Z</time>
      </trkpt>
      <trkpt lat="50.39686" lon="4.40707">
        <ele>137.4</ele>
        <time>2024-06-25T08:53:48Z</time>
      </trkpt>
      <trkpt lat="50.39691" lon="4.40706">
        <ele>137.2</ele>
        <time>2024-06-25T08:53:52Z</time>
      </trkpt>
      <trkpt lat="50.39692" lon="4.40704">
        <ele>137.2</ele>
        <time>2024-06-25T08:53:53Z</time>
      </trkpt>
      <trkpt lat="50.39696" lon="4.40701">
        <ele>136.8</ele>
        <time>2024-06-25T08:53:56Z</time>
      </trkpt>
      <trkpt lat="50.39699" lon="4.40701">
        <ele>136.8</ele>
        <time>2024-06-25T08:53:57Z</time>
      </trkpt>
      <trkpt lat="50.39716" lon="4.40707">
        <ele>136.2</ele>
        <time>2024-06-25T08:54:02Z</time>
      </trkpt>
      <trkpt lat="50.39728" lon="4.4071">
        <ele>135.8</ele>
        <time>2024-06-25T08:54:06Z</time>
      </trkpt>
      <trkpt lat="50.39729" lon="4.40711">
        <ele>135.4</ele>
        <time>2024-06-25T08:54:12Z</time>
      </trkpt>
      <trkpt lat="50.39729" lon="4.40711">
        <ele>135</ele>
        <time>2024-06-25T08:54:18Z</time>
      </trkpt>
      <trkpt lat="50.39724" lon="4.40708">
        <ele>134.8</ele>
        <time>2024-06-25T08:54:26Z</time>
      </trkpt>
      <trkpt lat="50.39723" lon="4.40708">
        <ele>134.8</ele>
        <time>2024-06-25T08:54:32Z</time>
      </trkpt>
      <trkpt lat="50.39724" lon="4.40705">
        <ele>134.4</ele>
        <time>2024-06-25T08:54:39Z</time>
      </trkpt>
      <trkpt lat="50.39727" lon="4.40686">
        <ele>134.2</ele>
        <time>2024-06-25T08:54:45Z</time>
      </trkpt>
      <trkpt lat="50.39731" lon="4.40665">
        <ele>134.2</ele>
        <time>2024-06-25T08:54:51Z</time>
      </trkpt>
      <trkpt lat="50.39731" lon="4.40649">
        <ele>134</ele>
        <time>2024-06-25T08:54:55Z</time>
      </trkpt>
      <trkpt lat="50.39733" lon="4.40626">
        <ele>133.8</ele>
        <time>2024-06-25T08:55:00Z</time>
      </trkpt>
      <trkpt lat="50.39726" lon="4.40618">
        <ele>133.6</ele>
        <time>2024-06-25T08:55:05Z</time>
      </trkpt>
      <trkpt lat="50.39712" lon="4.40615">
        <ele>133.4</ele>
        <time>2024-06-25T08:55:11Z</time>
      </trkpt>
      <trkpt lat="50.397" lon="4.4061">
        <ele>133.2</ele>
        <time>2024-06-25T08:55:18Z</time>
      </trkpt>
      <trkpt lat="50.39686" lon="4.40602">
        <ele>132.8</ele>
        <time>2024-06-25T08:55:25Z</time>
      </trkpt>
      <trkpt lat="50.39673" lon="4.40597">
        <ele>132.4</ele>
        <time>2024-06-25T08:55:31Z</time>
      </trkpt>
      <trkpt lat="50.39662" lon="4.40592">
        <ele>132</ele>
        <time>2024-06-25T08:55:37Z</time>
      </trkpt>
      <trkpt lat="50.39649" lon="4.40585">
        <ele>131.2</ele>
        <time>2024-06-25T08:55:46Z</time>
      </trkpt>
      <trkpt lat="50.39638" lon="4.40576">
        <ele>131</ele>
        <time>2024-06-25T08:55:50Z</time>
      </trkpt>
      <trkpt lat="50.39636" lon="4.40576">
        <ele>130.8</ele>
        <time>2024-06-25T08:55:51Z</time>
      </trkpt>
      <trkpt lat="50.39631" lon="4.40578">
        <ele>130.8</ele>
        <time>2024-06-25T08:55:53Z</time>
      </trkpt>
      <trkpt lat="50.39621" lon="4.40575">
        <ele>130.6</ele>
        <time>2024-06-25T08:55:57Z</time>
      </trkpt>
      <trkpt lat="50.39611" lon="4.40571">
        <ele>130.6</ele>
        <time>2024-06-25T08:56:02Z</time>
      </trkpt>
      <trkpt lat="50.39601" lon="4.40564">
        <ele>130.6</ele>
        <time>2024-06-25T08:56:07Z</time>
      </trkpt>
      <trkpt lat="50.396" lon="4.40561">
        <ele>130.6</ele>
        <time>2024-06-25T08:56:08Z</time>
      </trkpt>
      <trkpt lat="50.39598" lon="4.40559">
        <ele>130.6</ele>
        <time>2024-06-25T08:56:09Z</time>
      </trkpt>
      <trkpt lat="50.39595" lon="4.40561">
        <ele>130.4</ele>
        <time>2024-06-25T08:56:11Z</time>
      </trkpt>
      <trkpt lat="50.39595" lon="4.40562">
        <ele>130.4</ele>
        <time>2024-06-25T08:56:15Z</time>
      </trkpt>
      <trkpt lat="50.39593" lon="4.40566">
        <ele>130</ele>
        <time>2024-06-25T08:56:21Z</time>
      </trkpt>
      <trkpt lat="50.39589" lon="4.40587">
        <ele>129.6</ele>
        <time>2024-06-25T08:56:27Z</time>
      </trkpt>
      <trkpt lat="50.39587" lon="4.40594">
        <ele>129.2</ele>
        <time>2024-06-25T08:56:30Z</time>
      </trkpt>
      <trkpt lat="50.39583" lon="4.40596">
        <ele>129</ele>
        <time>2024-06-25T08:56:32Z</time>
      </trkpt>
      <trkpt lat="50.39571" lon="4.40589">
        <ele>128.6</ele>
        <time>2024-06-25T08:56:38Z</time>
      </trkpt>
      <trkpt lat="50.39569" lon="4.40586">
        <ele>128.6</ele>
        <time>2024-06-25T08:56:42Z</time>
      </trkpt>
      <trkpt lat="50.39569" lon="4.40586">
        <ele>128</ele>
        <time>2024-06-25T08:56:55Z</time>
      </trkpt>
      <trkpt lat="50.39569" lon="4.40586">
        <ele>127.2</ele>
        <time>2024-06-25T08:57:12Z</time>
      </trkpt>
      <trkpt lat="50.39569" lon="4.40586">
        <ele>127</ele>
        <time>2024-06-25T08:57:32Z</time>
      </trkpt>
      <trkpt lat="50.39569" lon="4.40586">
        <ele>126.8</ele>
        <time>2024-06-25T08:57:38Z</time>
      </trkpt>
      <trkpt lat="50.39567" lon="4.40584">
        <ele>126.8</ele>
        <time>2024-06-25T08:57:39Z</time>
      </trkpt>
      <trkpt lat="50.39562" lon="4.40566">
        <ele>126.8</ele>
        <time>2024-06-25T08:57:43Z</time>
      </trkpt>
      <trkpt lat="50.39562" lon="4.40552">
        <ele>126.8</ele>
        <time>2024-06-25T08:57:45Z</time>
      </trkpt>
      <trkpt lat="50.39563" lon="4.40536">
        <ele>126.8</ele>
        <time>2024-06-25T08:57:47Z</time>
      </trkpt>
      <trkpt lat="50.39562" lon="4.40521">
        <ele>126.6</ele>
        <time>2024-06-25T08:57:49Z</time>
      </trkpt>
      <trkpt lat="50.3956" lon="4.40513">
        <ele>126.6</ele>
        <time>2024-06-25T08:57:50Z</time>
      </trkpt>
      <trkpt lat="50.39555" lon="4.40492">
        <ele>126.4</ele>
        <time>2024-06-25T08:57:53Z</time>
      </trkpt>
      <trkpt lat="50.39555" lon="4.4048">
        <ele>126.2</ele>
        <time>2024-06-25T08:57:55Z</time>
      </trkpt>
      <trkpt lat="50.39556" lon="4.40447">
        <ele>126</ele>
        <time>2024-06-25T08:58:00Z</time>
      </trkpt>
      <trkpt lat="50.39557" lon="4.40439">
        <ele>125.8</ele>
        <time>2024-06-25T08:58:01Z</time>
      </trkpt>
      <trkpt lat="50.39551" lon="4.40397">
        <ele>125.2</ele>
        <time>2024-06-25T08:58:08Z</time>
      </trkpt>
      <trkpt lat="50.39549" lon="4.4038">
        <ele>124.6</ele>
        <time>2024-06-25T08:58:12Z</time>
      </trkpt>
      <trkpt lat="50.39546" lon="4.40356">
        <ele>123.8</ele>
        <time>2024-06-25T08:58:18Z</time>
      </trkpt>
      <trkpt lat="50.39539" lon="4.40321">
        <ele>122.6</ele>
        <time>2024-06-25T08:58:26Z</time>
      </trkpt>
      <trkpt lat="50.39537" lon="4.40309">
        <ele>121.6</ele>
        <time>2024-06-25T08:58:30Z</time>
      </trkpt>
      <trkpt lat="50.39534" lon="4.40305">
        <ele>121.4</ele>
        <time>2024-06-25T08:58:31Z</time>
      </trkpt>
      <trkpt lat="50.39512" lon="4.40282">
        <ele>120.2</ele>
        <time>2024-06-25T08:58:37Z</time>
      </trkpt>
      <trkpt lat="50.39509" lon="4.40273">
        <ele>119.8</ele>
        <time>2024-06-25T08:58:39Z</time>
      </trkpt>
      <trkpt lat="50.39509" lon="4.40268">
        <ele>119.6</ele>
        <time>2024-06-25T08:58:40Z</time>
      </trkpt>
      <trkpt lat="50.39521" lon="4.40237">
        <ele>118.8</ele>
        <time>2024-06-25T08:58:46Z</time>
      </trkpt>
      <trkpt lat="50.39541" lon="4.40193">
        <ele>117.6</ele>
        <time>2024-06-25T08:58:54Z</time>
      </trkpt>
      <trkpt lat="50.39564" lon="4.40149">
        <ele>116.8</ele>
        <time>2024-06-25T08:59:02Z</time>
      </trkpt>
      <trkpt lat="50.39589" lon="4.40102">
        <ele>115.8</ele>
        <time>2024-06-25T08:59:10Z</time>
      </trkpt>
      <trkpt lat="50.39612" lon="4.40058">
        <ele>114.8</ele>
        <time>2024-06-25T08:59:18Z</time>
      </trkpt>
      <trkpt lat="50.39635" lon="4.40016">
        <ele>114.2</ele>
        <time>2024-06-25T08:59:25Z</time>
      </trkpt>
      <trkpt lat="50.39657" lon="4.39972">
        <ele>113.6</ele>
        <time>2024-06-25T08:59:32Z</time>
      </trkpt>
      <trkpt lat="50.39672" lon="4.39938">
        <ele>113</ele>
        <time>2024-06-25T08:59:37Z</time>
      </trkpt>
      <trkpt lat="50.39679" lon="4.39894">
        <ele>112.8</ele>
        <time>2024-06-25T08:59:43Z</time>
      </trkpt>
      <trkpt lat="50.39689" lon="4.39847">
        <ele>112.2</ele>
        <time>2024-06-25T08:59:49Z</time>
      </trkpt>
      <trkpt lat="50.39703" lon="4.39822">
        <ele>112</ele>
        <time>2024-06-25T08:59:54Z</time>
      </trkpt>
      <trkpt lat="50.39717" lon="4.39809">
        <ele>111.8</ele>
        <time>2024-06-25T09:00:00Z</time>
      </trkpt>
      <trkpt lat="50.39734" lon="4.39792">
        <ele>111.4</ele>
        <time>2024-06-25T09:00:06Z</time>
      </trkpt>
      <trkpt lat="50.39734" lon="4.39783">
        <ele>111.2</ele>
        <time>2024-06-25T09:00:08Z</time>
      </trkpt>
      <trkpt lat="50.39732" lon="4.39779">
        <ele>111.2</ele>
        <time>2024-06-25T09:00:09Z</time>
      </trkpt>
      <trkpt lat="50.39722" lon="4.39772">
        <ele>110.8</ele>
        <time>2024-06-25T09:00:12Z</time>
      </trkpt>
      <trkpt lat="50.39718" lon="4.3977">
        <ele>110.8</ele>
        <time>2024-06-25T09:00:13Z</time>
      </trkpt>
      <trkpt lat="50.39686" lon="4.3976">
        <ele>110.2</ele>
        <time>2024-06-25T09:00:20Z</time>
      </trkpt>
      <trkpt lat="50.39634" lon="4.39746">
        <ele>109.6</ele>
        <time>2024-06-25T09:00:31Z</time>
      </trkpt>
      <trkpt lat="50.39618" lon="4.39742">
        <ele>109.4</ele>
        <time>2024-06-25T09:00:34Z</time>
      </trkpt>
      <trkpt lat="50.39605" lon="4.39739">
        <ele>109.2</ele>
        <time>2024-06-25T09:00:37Z</time>
      </trkpt>
      <trkpt lat="50.39572" lon="4.39728">
        <ele>109</ele>
        <time>2024-06-25T09:00:45Z</time>
      </trkpt>
      <trkpt lat="50.3954" lon="4.3972">
        <ele>109</ele>
        <time>2024-06-25T09:00:52Z</time>
      </trkpt>
      <trkpt lat="50.39508" lon="4.39712">
        <ele>109</ele>
        <time>2024-06-25T09:00:59Z</time>
      </trkpt>
      <trkpt lat="50.39474" lon="4.39703">
        <ele>108.6</ele>
        <time>2024-06-25T09:01:06Z</time>
      </trkpt>
      <trkpt lat="50.39442" lon="4.39697">
        <ele>109</ele>
        <time>2024-06-25T09:01:13Z</time>
      </trkpt>
      <trkpt lat="50.39411" lon="4.39689">
        <ele>109.2</ele>
        <time>2024-06-25T09:01:20Z</time>
      </trkpt>
      <trkpt lat="50.39374" lon="4.39677">
        <ele>109.4</ele>
        <time>2024-06-25T09:01:27Z</time>
      </trkpt>
      <trkpt lat="50.39338" lon="4.39653">
        <ele>109.4</ele>
        <time>2024-06-25T09:01:34Z</time>
      </trkpt>
      <trkpt lat="50.39334" lon="4.3965">
        <ele>109.4</ele>
        <time>2024-06-25T09:01:35Z</time>
      </trkpt>
      <trkpt lat="50.39311" lon="4.39635">
        <ele>109.4</ele>
        <time>2024-06-25T09:01:40Z</time>
      </trkpt>
      <trkpt lat="50.39276" lon="4.39612">
        <ele>109.4</ele>
        <time>2024-06-25T09:01:48Z</time>
      </trkpt>
      <trkpt lat="50.39271" lon="4.39608">
        <ele>109.4</ele>
        <time>2024-06-25T09:01:49Z</time>
      </trkpt>
      <trkpt lat="50.3926" lon="4.39595">
        <ele>109.6</ele>
        <time>2024-06-25T09:01:52Z</time>
      </trkpt>
      <trkpt lat="50.39256" lon="4.39589">
        <ele>109.6</ele>
        <time>2024-06-25T09:01:53Z</time>
      </trkpt>
      <trkpt lat="50.39243" lon="4.39563">
        <ele>109.6</ele>
        <time>2024-06-25T09:01:57Z</time>
      </trkpt>
      <trkpt lat="50.39222" lon="4.39516">
        <ele>109.4</ele>
        <time>2024-06-25T09:02:04Z</time>
      </trkpt>
      <trkpt lat="50.39203" lon="4.39475">
        <ele>109.6</ele>
        <time>2024-06-25T09:02:10Z</time>
      </trkpt>
      <trkpt lat="50.39177" lon="4.3942">
        <ele>110</ele>
        <time>2024-06-25T09:02:18Z</time>
      </trkpt>
      <trkpt lat="50.39161" lon="4.39374">
        <ele>110.2</ele>
        <time>2024-06-25T09:02:24Z</time>
      </trkpt>
      <trkpt lat="50.39157" lon="4.39358">
        <ele>110.2</ele>
        <time>2024-06-25T09:02:26Z</time>
      </trkpt>
      <trkpt lat="50.39149" lon="4.39335">
        <ele>110.4</ele>
        <time>2024-06-25T09:02:29Z</time>
      </trkpt>
      <trkpt lat="50.39145" lon="4.39328">
        <ele>110.4</ele>
        <time>2024-06-25T09:02:30Z</time>
      </trkpt>
      <trkpt lat="50.3912" lon="4.39289">
        <ele>110.6</ele>
        <time>2024-06-25T09:02:36Z</time>
      </trkpt>
      <trkpt lat="50.39102" lon="4.39265">
        <ele>110.6</ele>
        <time>2024-06-25T09:02:40Z</time>
      </trkpt>
      <trkpt lat="50.39094" lon="4.39254">
        <ele>110.4</ele>
        <time>2024-06-25T09:02:42Z</time>
      </trkpt>
      <trkpt lat="50.39064" lon="4.39214">
        <ele>110.6</ele>
        <time>2024-06-25T09:02:49Z</time>
      </trkpt>
      <trkpt lat="50.39033" lon="4.3917">
        <ele>110.8</ele>
        <time>2024-06-25T09:02:57Z</time>
      </trkpt>
      <trkpt lat="50.39009" lon="4.39138">
        <ele>111</ele>
        <time>2024-06-25T09:03:03Z</time>
      </trkpt>
      <trkpt lat="50.38985" lon="4.39106">
        <ele>111.2</ele>
        <time>2024-06-25T09:03:09Z</time>
      </trkpt>
      <trkpt lat="50.38962" lon="4.39075">
        <ele>111.2</ele>
        <time>2024-06-25T09:03:15Z</time>
      </trkpt>
      <trkpt lat="50.38943" lon="4.39055">
        <ele>111.6</ele>
        <time>2024-06-25T09:03:20Z</time>
      </trkpt>
      <trkpt lat="50.38925" lon="4.39033">
        <ele>111.6</ele>
        <time>2024-06-25T09:03:25Z</time>
      </trkpt>
      <trkpt lat="50.38922" lon="4.39029">
        <ele>111.8</ele>
        <time>2024-06-25T09:03:26Z</time>
      </trkpt>
      <trkpt lat="50.38896" lon="4.3899">
        <ele>112</ele>
        <time>2024-06-25T09:03:34Z</time>
      </trkpt>
      <trkpt lat="50.38875" lon="4.38963">
        <ele>112</ele>
        <time>2024-06-25T09:03:40Z</time>
      </trkpt>
      <trkpt lat="50.38872" lon="4.38958">
        <ele>112</ele>
        <time>2024-06-25T09:03:41Z</time>
      </trkpt>
      <trkpt lat="50.38856" lon="4.38931">
        <ele>112.2</ele>
        <time>2024-06-25T09:03:47Z</time>
      </trkpt>
      <trkpt lat="50.38844" lon="4.38917">
        <ele>112.2</ele>
        <time>2024-06-25T09:03:52Z</time>
      </trkpt>
      <trkpt lat="50.38831" lon="4.38894">
        <ele>111.6</ele>
        <time>2024-06-25T09:03:57Z</time>
      </trkpt>
      <trkpt lat="50.38828" lon="4.38889">
        <ele>111.8</ele>
        <time>2024-06-25T09:03:58Z</time>
      </trkpt>
      <trkpt lat="50.38818" lon="4.38872">
        <ele>111.6</ele>
        <time>2024-06-25T09:04:01Z</time>
      </trkpt>
      <trkpt lat="50.38811" lon="4.38851">
        <ele>110.8</ele>
        <time>2024-06-25T09:04:05Z</time>
      </trkpt>
      <trkpt lat="50.38808" lon="4.38845">
        <ele>110.6</ele>
        <time>2024-06-25T09:04:06Z</time>
      </trkpt>
      <trkpt lat="50.38802" lon="4.3883">
        <ele>110.2</ele>
        <time>2024-06-25T09:04:08Z</time>
      </trkpt>
      <trkpt lat="50.388" lon="4.38823">
        <ele>110</ele>
        <time>2024-06-25T09:04:09Z</time>
      </trkpt>
      <trkpt lat="50.3879" lon="4.38803">
        <ele>109.4</ele>
        <time>2024-06-25T09:04:13Z</time>
      </trkpt>
      <trkpt lat="50.38771" lon="4.38778">
        <ele>108.8</ele>
        <time>2024-06-25T09:04:18Z</time>
      </trkpt>
      <trkpt lat="50.38768" lon="4.38773">
        <ele>108.8</ele>
        <time>2024-06-25T09:04:19Z</time>
      </trkpt>
      <trkpt lat="50.38743" lon="4.38742">
        <ele>108.6</ele>
        <time>2024-06-25T09:04:26Z</time>
      </trkpt>
      <trkpt lat="50.38735" lon="4.38727">
        <ele>108.8</ele>
        <time>2024-06-25T09:04:29Z</time>
      </trkpt>
      <trkpt lat="50.38729" lon="4.38717">
        <ele>109</ele>
        <time>2024-06-25T09:04:31Z</time>
      </trkpt>
      <trkpt lat="50.38724" lon="4.38707">
        <ele>107.4</ele>
        <time>2024-06-25T09:04:33Z</time>
      </trkpt>
      <trkpt lat="50.38717" lon="4.38699">
        <ele>108.6</ele>
        <time>2024-06-25T09:04:35Z</time>
      </trkpt>
      <trkpt lat="50.38705" lon="4.38687">
        <ele>110.6</ele>
        <time>2024-06-25T09:04:39Z</time>
      </trkpt>
      <trkpt lat="50.38692" lon="4.38676">
        <ele>109.8</ele>
        <time>2024-06-25T09:04:43Z</time>
      </trkpt>
      <trkpt lat="50.38677" lon="4.38674">
        <ele>110</ele>
        <time>2024-06-25T09:04:47Z</time>
      </trkpt>
      <trkpt lat="50.38673" lon="4.38676">
        <ele>110.2</ele>
        <time>2024-06-25T09:04:48Z</time>
      </trkpt>
      <trkpt lat="50.38664" lon="4.38682">
        <ele>110.4</ele>
        <time>2024-06-25T09:04:50Z</time>
      </trkpt>
      <trkpt lat="50.38659" lon="4.38685">
        <ele>110.4</ele>
        <time>2024-06-25T09:04:51Z</time>
      </trkpt>
      <trkpt lat="50.38643" lon="4.38689">
        <ele>110.8</ele>
        <time>2024-06-25T09:04:55Z</time>
      </trkpt>
      <trkpt lat="50.38626" lon="4.38689">
        <ele>111</ele>
        <time>2024-06-25T09:05:00Z</time>
      </trkpt>
      <trkpt lat="50.38604" lon="4.38688">
        <ele>111.6</ele>
        <time>2024-06-25T09:05:06Z</time>
      </trkpt>
      <trkpt lat="50.3859" lon="4.38686">
        <ele>111.6</ele>
        <time>2024-06-25T09:05:10Z</time>
      </trkpt>
      <trkpt lat="50.38567" lon="4.38688">
        <ele>111.8</ele>
        <time>2024-06-25T09:05:16Z</time>
      </trkpt>
      <trkpt lat="50.38558" lon="4.38687">
        <ele>111.8</ele>
        <time>2024-06-25T09:05:20Z</time>
      </trkpt>
      <trkpt lat="50.38542" lon="4.38688">
        <ele>112</ele>
        <time>2024-06-25T09:05:26Z</time>
      </trkpt>
      <trkpt lat="50.38524" lon="4.38689">
        <ele>112.2</ele>
        <time>2024-06-25T09:05:31Z</time>
      </trkpt>
      <trkpt lat="50.38509" lon="4.38692">
        <ele>112</ele>
        <time>2024-06-25T09:05:36Z</time>
      </trkpt>
      <trkpt lat="50.38494" lon="4.38695">
        <ele>112.4</ele>
        <time>2024-06-25T09:05:40Z</time>
      </trkpt>
      <trkpt lat="50.38468" lon="4.38703">
        <ele>112.4</ele>
        <time>2024-06-25T09:05:47Z</time>
      </trkpt>
      <trkpt lat="50.3845" lon="4.38705">
        <ele>112</ele>
        <time>2024-06-25T09:05:52Z</time>
      </trkpt>
      <trkpt lat="50.38434" lon="4.38708">
        <ele>111.6</ele>
        <time>2024-06-25T09:05:56Z</time>
      </trkpt>
      <trkpt lat="50.38411" lon="4.38709">
        <ele>111.8</ele>
        <time>2024-06-25T09:06:02Z</time>
      </trkpt>
      <trkpt lat="50.3838" lon="4.38711">
        <ele>111.8</ele>
        <time>2024-06-25T09:06:09Z</time>
      </trkpt>
      <trkpt lat="50.38356" lon="4.38711">
        <ele>111.6</ele>
        <time>2024-06-25T09:06:15Z</time>
      </trkpt>
      <trkpt lat="50.38341" lon="4.38713">
        <ele>111.6</ele>
        <time>2024-06-25T09:06:20Z</time>
      </trkpt>
      <trkpt lat="50.38324" lon="4.38719">
        <ele>110.8</ele>
        <time>2024-06-25T09:06:25Z</time>
      </trkpt>
      <trkpt lat="50.38321" lon="4.38719">
        <ele>110</ele>
        <time>2024-06-25T09:06:31Z</time>
      </trkpt>
      <trkpt lat="50.38321" lon="4.38719">
        <ele>109.6</ele>
        <time>2024-06-25T09:06:44Z</time>
      </trkpt>
      <trkpt lat="50.38321" lon="4.38719">
        <ele>108.8</ele>
        <time>2024-06-25T09:06:58Z</time>
      </trkpt>
      <trkpt lat="50.38322" lon="4.38718">
        <ele>108.2</ele>
        <time>2024-06-25T09:07:12Z</time>
      </trkpt>
      <trkpt lat="50.38322" lon="4.38718">
        <ele>107.6</ele>
        <time>2024-06-25T09:07:33Z</time>
      </trkpt>
      <trkpt lat="50.38322" lon="4.38718">
        <ele>107.2</ele>
        <time>2024-06-25T09:07:47Z</time>
      </trkpt>
      <trkpt lat="50.38321" lon="4.3872">
        <ele>106.8</ele>
        <time>2024-06-25T09:08:06Z</time>
      </trkpt>
      <trkpt lat="50.38308" lon="4.38731">
        <ele>106.8</ele>
        <time>2024-06-25T09:08:12Z</time>
      </trkpt>
      <trkpt lat="50.383" lon="4.38744">
        <ele>107.6</ele>
        <time>2024-06-25T09:08:18Z</time>
      </trkpt>
      <trkpt lat="50.38298" lon="4.38748">
        <ele>107.8</ele>
        <time>2024-06-25T09:08:24Z</time>
      </trkpt>
      <trkpt lat="50.38296" lon="4.38753">
        <ele>108</ele>
        <time>2024-06-25T09:08:27Z</time>
      </trkpt>
      <trkpt lat="50.38295" lon="4.38756">
        <ele>108</ele>
        <time>2024-06-25T09:08:28Z</time>
      </trkpt>
      <trkpt lat="50.38296" lon="4.38759">
        <ele>108.2</ele>
        <time>2024-06-25T09:08:29Z</time>
      </trkpt>
      <trkpt lat="50.38296" lon="4.38766">
        <ele>108.2</ele>
        <time>2024-06-25T09:08:31Z</time>
      </trkpt>
      <trkpt lat="50.38295" lon="4.3877">
        <ele>108.2</ele>
        <time>2024-06-25T09:08:32Z</time>
      </trkpt>
      <trkpt lat="50.38284" lon="4.38776">
        <ele>108.4</ele>
        <time>2024-06-25T09:08:36Z</time>
      </trkpt>
      <trkpt lat="50.38273" lon="4.38777">
        <ele>108.2</ele>
        <time>2024-06-25T09:08:41Z</time>
      </trkpt>
      <trkpt lat="50.3826" lon="4.38783">
        <ele>108.6</ele>
        <time>2024-06-25T09:08:45Z</time>
      </trkpt>
      <trkpt lat="50.38249" lon="4.38789">
        <ele>107.4</ele>
        <time>2024-06-25T09:08:48Z</time>
      </trkpt>
      <trkpt lat="50.38238" lon="4.38792">
        <ele>107.4</ele>
        <time>2024-06-25T09:08:51Z</time>
      </trkpt>
      <trkpt lat="50.38224" lon="4.38793">
        <ele>106.8</ele>
        <time>2024-06-25T09:08:55Z</time>
      </trkpt>
      <trkpt lat="50.38209" lon="4.38786">
        <ele>106.6</ele>
        <time>2024-06-25T09:08:59Z</time>
      </trkpt>
      <trkpt lat="50.38185" lon="4.3879">
        <ele>107</ele>
        <time>2024-06-25T09:09:05Z</time>
      </trkpt>
      <trkpt lat="50.38157" lon="4.388">
        <ele>106.8</ele>
        <time>2024-06-25T09:09:11Z</time>
      </trkpt>
      <trkpt lat="50.38144" lon="4.38802">
        <ele>106.6</ele>
        <time>2024-06-25T09:09:14Z</time>
      </trkpt>
      <trkpt lat="50.38136" lon="4.38798">
        <ele>106.6</ele>
        <time>2024-06-25T09:09:16Z</time>
      </trkpt>
      <trkpt lat="50.38118" lon="4.38785">
        <ele>106.6</ele>
        <time>2024-06-25T09:09:21Z</time>
      </trkpt>
      <trkpt lat="50.3811" lon="4.38781">
        <ele>106.6</ele>
        <time>2024-06-25T09:09:23Z</time>
      </trkpt>
      <trkpt lat="50.38091" lon="4.38777">
        <ele>106.6</ele>
        <time>2024-06-25T09:09:28Z</time>
      </trkpt>
      <trkpt lat="50.38078" lon="4.3878">
        <ele>106.8</ele>
        <time>2024-06-25T09:09:32Z</time>
      </trkpt>
      <trkpt lat="50.38064" lon="4.38785">
        <ele>106.6</ele>
        <time>2024-06-25T09:09:36Z</time>
      </trkpt>
      <trkpt lat="50.38046" lon="4.38793">
        <ele>106.4</ele>
        <time>2024-06-25T09:09:41Z</time>
      </trkpt>
      <trkpt lat="50.38035" lon="4.38802">
        <ele>106.2</ele>
        <time>2024-06-25T09:09:44Z</time>
      </trkpt>
      <trkpt lat="50.38026" lon="4.3881">
        <ele>106.2</ele>
        <time>2024-06-25T09:09:46Z</time>
      </trkpt>
      <trkpt lat="50.38013" lon="4.38819">
        <ele>106.2</ele>
        <time>2024-06-25T09:09:50Z</time>
      </trkpt>
      <trkpt lat="50.37993" lon="4.38834">
        <ele>105.2</ele>
        <time>2024-06-25T09:09:56Z</time>
      </trkpt>
      <trkpt lat="50.37977" lon="4.38839">
        <ele>104.4</ele>
        <time>2024-06-25T09:10:01Z</time>
      </trkpt>
      <trkpt lat="50.37958" lon="4.38844">
        <ele>103.8</ele>
        <time>2024-06-25T09:10:06Z</time>
      </trkpt>
      <trkpt lat="50.3795" lon="4.38847">
        <ele>103.6</ele>
        <time>2024-06-25T09:10:08Z</time>
      </trkpt>
      <trkpt lat="50.37941" lon="4.38851">
        <ele>103.4</ele>
        <time>2024-06-25T09:10:10Z</time>
      </trkpt>
      <trkpt lat="50.37928" lon="4.38855">
        <ele>102.8</ele>
        <time>2024-06-25T09:10:14Z</time>
      </trkpt>
      <trkpt lat="50.37921" lon="4.38855">
        <ele>102.4</ele>
        <time>2024-06-25T09:10:17Z</time>
      </trkpt>
      <trkpt lat="50.37916" lon="4.38858">
        <ele>102.2</ele>
        <time>2024-06-25T09:10:19Z</time>
      </trkpt>
      <trkpt lat="50.37905" lon="4.38863">
        <ele>101.8</ele>
        <time>2024-06-25T09:10:23Z</time>
      </trkpt>
      <trkpt lat="50.37897" lon="4.38866">
        <ele>101.4</ele>
        <time>2024-06-25T09:10:26Z</time>
      </trkpt>
      <trkpt lat="50.37894" lon="4.38868">
        <ele>101.2</ele>
        <time>2024-06-25T09:10:27Z</time>
      </trkpt>
      <trkpt lat="50.3789" lon="4.3887">
        <ele>100.8</ele>
        <time>2024-06-25T09:10:29Z</time>
      </trkpt>
      <trkpt lat="50.37873" lon="4.38879">
        <ele>100.2</ele>
        <time>2024-06-25T09:10:34Z</time>
      </trkpt>
      <trkpt lat="50.37852" lon="4.38888">
        <ele>99.8</ele>
        <time>2024-06-25T09:10:38Z</time>
      </trkpt>
      <trkpt lat="50.37828" lon="4.38896">
        <ele>99.4</ele>
        <time>2024-06-25T09:10:43Z</time>
      </trkpt>
      <trkpt lat="50.37817" lon="4.38899">
        <ele>99.6</ele>
        <time>2024-06-25T09:10:48Z</time>
      </trkpt>
      <trkpt lat="50.37807" lon="4.38902">
        <ele>99.6</ele>
        <time>2024-06-25T09:10:54Z</time>
      </trkpt>
      <trkpt lat="50.37795" lon="4.38905">
        <ele>99.6</ele>
        <time>2024-06-25T09:11:00Z</time>
      </trkpt>
      <trkpt lat="50.37789" lon="4.38904">
        <ele>99.4</ele>
        <time>2024-06-25T09:11:04Z</time>
      </trkpt>
      <trkpt lat="50.37786" lon="4.38903">
        <ele>99.6</ele>
        <time>2024-06-25T09:11:06Z</time>
      </trkpt>
      <trkpt lat="50.37776" lon="4.38899">
        <ele>100.6</ele>
        <time>2024-06-25T09:11:11Z</time>
      </trkpt>
      <trkpt lat="50.37769" lon="4.38899">
        <ele>101.2</ele>
        <time>2024-06-25T09:11:16Z</time>
      </trkpt>
      <trkpt lat="50.3776" lon="4.38894">
        <ele>101.8</ele>
        <time>2024-06-25T09:11:20Z</time>
      </trkpt>
      <trkpt lat="50.37745" lon="4.38879">
        <ele>102.8</ele>
        <time>2024-06-25T09:11:26Z</time>
      </trkpt>
      <trkpt lat="50.37738" lon="4.38871">
        <ele>103.6</ele>
        <time>2024-06-25T09:11:32Z</time>
      </trkpt>
      <trkpt lat="50.37735" lon="4.38868">
        <ele>104.2</ele>
        <time>2024-06-25T09:11:37Z</time>
      </trkpt>
      <trkpt lat="50.37734" lon="4.38867">
        <ele>104.4</ele>
        <time>2024-06-25T09:11:38Z</time>
      </trkpt>
      <trkpt lat="50.37731" lon="4.38864">
        <ele>104.6</ele>
        <time>2024-06-25T09:11:41Z</time>
      </trkpt>
      <trkpt lat="50.37728" lon="4.38862">
        <ele>104.8</ele>
        <time>2024-06-25T09:11:43Z</time>
      </trkpt>
      <trkpt lat="50.37722" lon="4.38855">
        <ele>105.4</ele>
        <time>2024-06-25T09:11:47Z</time>
      </trkpt>
      <trkpt lat="50.37721" lon="4.38839">
        <ele>106</ele>
        <time>2024-06-25T09:11:50Z</time>
      </trkpt>
      <trkpt lat="50.37723" lon="4.38814">
        <ele>107</ele>
        <time>2024-06-25T09:11:55Z</time>
      </trkpt>
      <trkpt lat="50.37732" lon="4.38787">
        <ele>107.8</ele>
        <time>2024-06-25T09:12:00Z</time>
      </trkpt>
      <trkpt lat="50.37734" lon="4.38781">
        <ele>107.8</ele>
        <time>2024-06-25T09:12:01Z</time>
      </trkpt>
      <trkpt lat="50.37742" lon="4.38752">
        <ele>108.6</ele>
        <time>2024-06-25T09:12:06Z</time>
      </trkpt>
      <trkpt lat="50.37755" lon="4.3871">
        <ele>109.6</ele>
        <time>2024-06-25T09:12:14Z</time>
      </trkpt>
      <trkpt lat="50.37769" lon="4.38675">
        <ele>110.2</ele>
        <time>2024-06-25T09:12:21Z</time>
      </trkpt>
      <trkpt lat="50.37786" lon="4.38634">
        <ele>111.4</ele>
        <time>2024-06-25T09:12:30Z</time>
      </trkpt>
      <trkpt lat="50.37801" lon="4.38598">
        <ele>112.4</ele>
        <time>2024-06-25T09:12:38Z</time>
      </trkpt>
      <trkpt lat="50.37818" lon="4.38558">
        <ele>113.8</ele>
        <time>2024-06-25T09:12:47Z</time>
      </trkpt>
      <trkpt lat="50.37838" lon="4.38513">
        <ele>115.2</ele>
        <time>2024-06-25T09:12:56Z</time>
      </trkpt>
      <trkpt lat="50.3785" lon="4.38487">
        <ele>116.2</ele>
        <time>2024-06-25T09:13:02Z</time>
      </trkpt>
      <trkpt lat="50.37866" lon="4.38462">
        <ele>117.8</ele>
        <time>2024-06-25T09:13:09Z</time>
      </trkpt>
      <trkpt lat="50.37886" lon="4.38442">
        <ele>119.6</ele>
        <time>2024-06-25T09:13:16Z</time>
      </trkpt>
      <trkpt lat="50.37905" lon="4.38432">
        <ele>121.4</ele>
        <time>2024-06-25T09:13:22Z</time>
      </trkpt>
      <trkpt lat="50.37923" lon="4.3842">
        <ele>122.8</ele>
        <time>2024-06-25T09:13:28Z</time>
      </trkpt>
      <trkpt lat="50.37925" lon="4.38403">
        <ele>123.6</ele>
        <time>2024-06-25T09:13:31Z</time>
      </trkpt>
      <trkpt lat="50.37923" lon="4.38378">
        <ele>124.4</ele>
        <time>2024-06-25T09:13:35Z</time>
      </trkpt>
      <trkpt lat="50.37922" lon="4.38372">
        <ele>124.6</ele>
        <time>2024-06-25T09:13:36Z</time>
      </trkpt>
      <trkpt lat="50.37918" lon="4.38333">
        <ele>125.6</ele>
        <time>2024-06-25T09:13:42Z</time>
      </trkpt>
      <trkpt lat="50.37915" lon="4.383">
        <ele>126.8</ele>
        <time>2024-06-25T09:13:48Z</time>
      </trkpt>
      <trkpt lat="50.37908" lon="4.38263">
        <ele>128.2</ele>
        <time>2024-06-25T09:13:55Z</time>
      </trkpt>
      <trkpt lat="50.37896" lon="4.38224">
        <ele>129.6</ele>
        <time>2024-06-25T09:14:02Z</time>
      </trkpt>
      <trkpt lat="50.37892" lon="4.38199">
        <ele>130.4</ele>
        <time>2024-06-25T09:14:06Z</time>
      </trkpt>
      <trkpt lat="50.37889" lon="4.38178">
        <ele>130.8</ele>
        <time>2024-06-25T09:14:09Z</time>
      </trkpt>
      <trkpt lat="50.37884" lon="4.38121">
        <ele>131.2</ele>
        <time>2024-06-25T09:14:15Z</time>
      </trkpt>
      <trkpt lat="50.37884" lon="4.38091">
        <ele>131.4</ele>
        <time>2024-06-25T09:14:18Z</time>
      </trkpt>
      <trkpt lat="50.37884" lon="4.38083">
        <ele>131.4</ele>
        <time>2024-06-25T09:14:19Z</time>
      </trkpt>
      <trkpt lat="50.37886" lon="4.38052">
        <ele>131.8</ele>
        <time>2024-06-25T09:14:24Z</time>
      </trkpt>
      <trkpt lat="50.37886" lon="4.3802">
        <ele>132.4</ele>
        <time>2024-06-25T09:14:30Z</time>
      </trkpt>
      <trkpt lat="50.37885" lon="4.37998">
        <ele>133</ele>
        <time>2024-06-25T09:14:34Z</time>
      </trkpt>
      <trkpt lat="50.37887" lon="4.37993">
        <ele>133.2</ele>
        <time>2024-06-25T09:14:35Z</time>
      </trkpt>
      <trkpt lat="50.37895" lon="4.37977">
        <ele>134.6</ele>
        <time>2024-06-25T09:14:41Z</time>
      </trkpt>
      <trkpt lat="50.37902" lon="4.37968">
        <ele>135.6</ele>
        <time>2024-06-25T09:14:47Z</time>
      </trkpt>
      <trkpt lat="50.37902" lon="4.37967">
        <ele>136.2</ele>
        <time>2024-06-25T09:14:52Z</time>
      </trkpt>
      <trkpt lat="50.3791" lon="4.37953">
        <ele>136.8</ele>
        <time>2024-06-25T09:14:56Z</time>
      </trkpt>
      <trkpt lat="50.37917" lon="4.37941">
        <ele>137.4</ele>
        <time>2024-06-25T09:14:59Z</time>
      </trkpt>
      <trkpt lat="50.3792" lon="4.37936">
        <ele>137.6</ele>
        <time>2024-06-25T09:15:00Z</time>
      </trkpt>
      <trkpt lat="50.37937" lon="4.37903">
        <ele>138.6</ele>
        <time>2024-06-25T09:15:07Z</time>
      </trkpt>
      <trkpt lat="50.37959" lon="4.37857">
        <ele>140.2</ele>
        <time>2024-06-25T09:15:17Z</time>
      </trkpt>
      <trkpt lat="50.37975" lon="4.37814">
        <ele>142</ele>
        <time>2024-06-25T09:15:26Z</time>
      </trkpt>
      <trkpt lat="50.37986" lon="4.37783">
        <ele>143</ele>
        <time>2024-06-25T09:15:32Z</time>
      </trkpt>
      <trkpt lat="50.37994" lon="4.37751">
        <ele>144.2</ele>
        <time>2024-06-25T09:15:38Z</time>
      </trkpt>
      <trkpt lat="50.38003" lon="4.37728">
        <ele>145.2</ele>
        <time>2024-06-25T09:15:43Z</time>
      </trkpt>
      <trkpt lat="50.38004" lon="4.37707">
        <ele>145.8</ele>
        <time>2024-06-25T09:15:47Z</time>
      </trkpt>
      <trkpt lat="50.38" lon="4.37694">
        <ele>146</ele>
        <time>2024-06-25T09:15:49Z</time>
      </trkpt>
      <trkpt lat="50.37995" lon="4.37683">
        <ele>146.4</ele>
        <time>2024-06-25T09:15:51Z</time>
      </trkpt>
      <trkpt lat="50.37992" lon="4.37677">
        <ele>146.6</ele>
        <time>2024-06-25T09:15:52Z</time>
      </trkpt>
      <trkpt lat="50.37991" lon="4.37664">
        <ele>146.8</ele>
        <time>2024-06-25T09:15:54Z</time>
      </trkpt>
      <trkpt lat="50.37993" lon="4.37649">
        <ele>147</ele>
        <time>2024-06-25T09:15:56Z</time>
      </trkpt>
      <trkpt lat="50.37998" lon="4.37637">
        <ele>147.2</ele>
        <time>2024-06-25T09:15:58Z</time>
      </trkpt>
      <trkpt lat="50.3802" lon="4.37594">
        <ele>148.2</ele>
        <time>2024-06-25T09:16:06Z</time>
      </trkpt>
      <trkpt lat="50.38044" lon="4.37546">
        <ele>149.4</ele>
        <time>2024-06-25T09:16:15Z</time>
      </trkpt>
      <trkpt lat="50.38063" lon="4.37504">
        <ele>150.2</ele>
        <time>2024-06-25T09:16:23Z</time>
      </trkpt>
      <trkpt lat="50.3807" lon="4.37485">
        <ele>150.6</ele>
        <time>2024-06-25T09:16:27Z</time>
      </trkpt>
      <trkpt lat="50.38071" lon="4.37482">
        <ele>150.8</ele>
        <time>2024-06-25T09:16:28Z</time>
      </trkpt>
      <trkpt lat="50.38076" lon="4.37471">
        <ele>151.6</ele>
        <time>2024-06-25T09:16:35Z</time>
      </trkpt>
      <trkpt lat="50.38078" lon="4.37468">
        <ele>152.6</ele>
        <time>2024-06-25T09:16:45Z</time>
      </trkpt>
      <trkpt lat="50.38087" lon="4.37456">
        <ele>152.8</ele>
        <time>2024-06-25T09:16:49Z</time>
      </trkpt>
      <trkpt lat="50.38099" lon="4.37432">
        <ele>153.4</ele>
        <time>2024-06-25T09:16:54Z</time>
      </trkpt>
      <trkpt lat="50.38121" lon="4.37398">
        <ele>154.2</ele>
        <time>2024-06-25T09:17:02Z</time>
      </trkpt>
      <trkpt lat="50.38142" lon="4.37359">
        <ele>154.8</ele>
        <time>2024-06-25T09:17:09Z</time>
      </trkpt>
      <trkpt lat="50.38166" lon="4.37321">
        <ele>155.2</ele>
        <time>2024-06-25T09:17:16Z</time>
      </trkpt>
      <trkpt lat="50.38188" lon="4.37279">
        <ele>155.4</ele>
        <time>2024-06-25T09:17:22Z</time>
      </trkpt>
      <trkpt lat="50.38209" lon="4.37233">
        <ele>155.6</ele>
        <time>2024-06-25T09:17:28Z</time>
      </trkpt>
      <trkpt lat="50.38236" lon="4.37178">
        <ele>155.4</ele>
        <time>2024-06-25T09:17:35Z</time>
      </trkpt>
      <trkpt lat="50.38255" lon="4.37131">
        <ele>155.8</ele>
        <time>2024-06-25T09:17:40Z</time>
      </trkpt>
      <trkpt lat="50.38268" lon="4.37069">
        <ele>155</ele>
        <time>2024-06-25T09:17:45Z</time>
      </trkpt>
      <trkpt lat="50.38288" lon="4.36988">
        <ele>154.6</ele>
        <time>2024-06-25T09:17:52Z</time>
      </trkpt>
      <trkpt lat="50.38291" lon="4.36978">
        <ele>154.6</ele>
        <time>2024-06-25T09:17:53Z</time>
      </trkpt>
      <trkpt lat="50.38302" lon="4.36955">
        <ele>154.6</ele>
        <time>2024-06-25T09:17:56Z</time>
      </trkpt>
      <trkpt lat="50.38326" lon="4.36921">
        <ele>154.8</ele>
        <time>2024-06-25T09:18:02Z</time>
      </trkpt>
      <trkpt lat="50.38358" lon="4.36876">
        <ele>155</ele>
        <time>2024-06-25T09:18:11Z</time>
      </trkpt>
      <trkpt lat="50.38392" lon="4.36826">
        <ele>155.6</ele>
        <time>2024-06-25T09:18:21Z</time>
      </trkpt>
      <trkpt lat="50.38416" lon="4.36777">
        <ele>156</ele>
        <time>2024-06-25T09:18:29Z</time>
      </trkpt>
      <trkpt lat="50.38434" lon="4.36735">
        <ele>156.2</ele>
        <time>2024-06-25T09:18:36Z</time>
      </trkpt>
      <trkpt lat="50.38436" lon="4.36729">
        <ele>156.2</ele>
        <time>2024-06-25T09:18:37Z</time>
      </trkpt>
      <trkpt lat="50.38444" lon="4.36699">
        <ele>156</ele>
        <time>2024-06-25T09:18:41Z</time>
      </trkpt>
      <trkpt lat="50.38459" lon="4.36655">
        <ele>155.2</ele>
        <time>2024-06-25T09:18:46Z</time>
      </trkpt>
      <trkpt lat="50.38473" lon="4.36624">
        <ele>155.2</ele>
        <time>2024-06-25T09:18:50Z</time>
      </trkpt>
      <trkpt lat="50.38481" lon="4.36611">
        <ele>155.2</ele>
        <time>2024-06-25T09:18:52Z</time>
      </trkpt>
      <trkpt lat="50.38498" lon="4.36583">
        <ele>154.8</ele>
        <time>2024-06-25T09:18:57Z</time>
      </trkpt>
      <trkpt lat="50.38502" lon="4.36577">
        <ele>154.8</ele>
        <time>2024-06-25T09:18:58Z</time>
      </trkpt>
      <trkpt lat="50.38516" lon="4.36555">
        <ele>154.8</ele>
        <time>2024-06-25T09:19:02Z</time>
      </trkpt>
      <trkpt lat="50.38521" lon="4.36541">
        <ele>154.8</ele>
        <time>2024-06-25T09:19:04Z</time>
      </trkpt>
      <trkpt lat="50.38542" lon="4.36487">
        <ele>155.4</ele>
        <time>2024-06-25T09:19:13Z</time>
      </trkpt>
      <trkpt lat="50.38557" lon="4.36436">
        <ele>155.8</ele>
        <time>2024-06-25T09:19:21Z</time>
      </trkpt>
      <trkpt lat="50.38563" lon="4.36396">
        <ele>156</ele>
        <time>2024-06-25T09:19:27Z</time>
      </trkpt>
      <trkpt lat="50.38568" lon="4.36371">
        <ele>156.2</ele>
        <time>2024-06-25T09:19:32Z</time>
      </trkpt>
      <trkpt lat="50.3857" lon="4.36347">
        <ele>156.2</ele>
        <time>2024-06-25T09:19:38Z</time>
      </trkpt>
      <trkpt lat="50.38571" lon="4.36315">
        <ele>156.2</ele>
        <time>2024-06-25T09:19:44Z</time>
      </trkpt>
      <trkpt lat="50.38572" lon="4.36296">
        <ele>156.2</ele>
        <time>2024-06-25T09:19:47Z</time>
      </trkpt>
      <trkpt lat="50.38574" lon="4.3627">
        <ele>156.2</ele>
        <time>2024-06-25T09:19:51Z</time>
      </trkpt>
      <trkpt lat="50.38578" lon="4.3623">
        <ele>155.8</ele>
        <time>2024-06-25T09:19:58Z</time>
      </trkpt>
      <trkpt lat="50.3858" lon="4.3621">
        <ele>155.6</ele>
        <time>2024-06-25T09:20:01Z</time>
      </trkpt>
      <trkpt lat="50.38579" lon="4.36194">
        <ele>155.4</ele>
        <time>2024-06-25T09:20:03Z</time>
      </trkpt>
      <trkpt lat="50.38575" lon="4.36144">
        <ele>154.6</ele>
        <time>2024-06-25T09:20:10Z</time>
      </trkpt>
      <trkpt lat="50.38574" lon="4.36131">
        <ele>154.2</ele>
        <time>2024-06-25T09:20:12Z</time>
      </trkpt>
      <trkpt lat="50.38574" lon="4.36118">
        <ele>153.8</ele>
        <time>2024-06-25T09:20:14Z</time>
      </trkpt>
      <trkpt lat="50.38572" lon="4.36073">
        <ele>152.4</ele>
        <time>2024-06-25T09:20:21Z</time>
      </trkpt>
      <trkpt lat="50.3857" lon="4.36041">
        <ele>151.2</ele>
        <time>2024-06-25T09:20:26Z</time>
      </trkpt>
      <trkpt lat="50.38569" lon="4.36033">
        <ele>150.8</ele>
        <time>2024-06-25T09:20:27Z</time>
      </trkpt>
      <trkpt lat="50.38563" lon="4.36007">
        <ele>149.6</ele>
        <time>2024-06-25T09:20:31Z</time>
      </trkpt>
      <trkpt lat="50.38561" lon="4.36001">
        <ele>149.4</ele>
        <time>2024-06-25T09:20:32Z</time>
      </trkpt>
      <trkpt lat="50.38552" lon="4.35979">
        <ele>148</ele>
        <time>2024-06-25T09:20:36Z</time>
      </trkpt>
      <trkpt lat="50.38534" lon="4.35951">
        <ele>146.2</ele>
        <time>2024-06-25T09:20:42Z</time>
      </trkpt>
      <trkpt lat="50.38527" lon="4.35941">
        <ele>145.6</ele>
        <time>2024-06-25T09:20:44Z</time>
      </trkpt>
      <trkpt lat="50.38523" lon="4.35932">
        <ele>145</ele>
        <time>2024-06-25T09:20:46Z</time>
      </trkpt>
      <trkpt lat="50.38512" lon="4.35903">
        <ele>143</ele>
        <time>2024-06-25T09:20:51Z</time>
      </trkpt>
      <trkpt lat="50.38504" lon="4.35883">
        <ele>141.8</ele>
        <time>2024-06-25T09:20:54Z</time>
      </trkpt>
      <trkpt lat="50.385" lon="4.35877">
        <ele>141.4</ele>
        <time>2024-06-25T09:20:55Z</time>
      </trkpt>
      <trkpt lat="50.38483" lon="4.35851">
        <ele>139.2</ele>
        <time>2024-06-25T09:21:00Z</time>
      </trkpt>
      <trkpt lat="50.38478" lon="4.35839">
        <ele>138.2</ele>
        <time>2024-06-25T09:21:02Z</time>
      </trkpt>
      <trkpt lat="50.38473" lon="4.35829">
        <ele>137.4</ele>
        <time>2024-06-25T09:21:04Z</time>
      </trkpt>
      <trkpt lat="50.38464" lon="4.35817">
        <ele>136</ele>
        <time>2024-06-25T09:21:07Z</time>
      </trkpt>
      <trkpt lat="50.38445" lon="4.35786">
        <ele>134</ele>
        <time>2024-06-25T09:21:13Z</time>
      </trkpt>
      <trkpt lat="50.38422" lon="4.35746">
        <ele>132.6</ele>
        <time>2024-06-25T09:21:19Z</time>
      </trkpt>
      <trkpt lat="50.38419" lon="4.35739">
        <ele>132.2</ele>
        <time>2024-06-25T09:21:20Z</time>
      </trkpt>
      <trkpt lat="50.3841" lon="4.35717">
        <ele>131</ele>
        <time>2024-06-25T09:21:23Z</time>
      </trkpt>
      <trkpt lat="50.38407" lon="4.35709">
        <ele>130.8</ele>
        <time>2024-06-25T09:21:24Z</time>
      </trkpt>
      <trkpt lat="50.38402" lon="4.35695">
        <ele>130</ele>
        <time>2024-06-25T09:21:26Z</time>
      </trkpt>
      <trkpt lat="50.38396" lon="4.35676">
        <ele>129</ele>
        <time>2024-06-25T09:21:29Z</time>
      </trkpt>
      <trkpt lat="50.3839" lon="4.35662">
        <ele>128.2</ele>
        <time>2024-06-25T09:21:31Z</time>
      </trkpt>
      <trkpt lat="50.38383" lon="4.35647">
        <ele>127.8</ele>
        <time>2024-06-25T09:21:33Z</time>
      </trkpt>
      <trkpt lat="50.38377" lon="4.35634">
        <ele>127.2</ele>
        <time>2024-06-25T09:21:35Z</time>
      </trkpt>
      <trkpt lat="50.38368" lon="4.35623">
        <ele>126.8</ele>
        <time>2024-06-25T09:21:37Z</time>
      </trkpt>
      <trkpt lat="50.38353" lon="4.35613">
        <ele>126</ele>
        <time>2024-06-25T09:21:41Z</time>
      </trkpt>
      <trkpt lat="50.38336" lon="4.35607">
        <ele>124.8</ele>
        <time>2024-06-25T09:21:46Z</time>
      </trkpt>
      <trkpt lat="50.38323" lon="4.35603">
        <ele>124.2</ele>
        <time>2024-06-25T09:21:49Z</time>
      </trkpt>
      <trkpt lat="50.38309" lon="4.35601">
        <ele>123.6</ele>
        <time>2024-06-25T09:21:52Z</time>
      </trkpt>
      <trkpt lat="50.38287" lon="4.35599">
        <ele>122.8</ele>
        <time>2024-06-25T09:21:56Z</time>
      </trkpt>
      <trkpt lat="50.38276" lon="4.35595">
        <ele>122.4</ele>
        <time>2024-06-25T09:21:58Z</time>
      </trkpt>
      <trkpt lat="50.38241" lon="4.35585">
        <ele>121</ele>
        <time>2024-06-25T09:22:05Z</time>
      </trkpt>
      <trkpt lat="50.38213" lon="4.35581">
        <ele>120.2</ele>
        <time>2024-06-25T09:22:11Z</time>
      </trkpt>
      <trkpt lat="50.3819" lon="4.35581">
        <ele>119.2</ele>
        <time>2024-06-25T09:22:17Z</time>
      </trkpt>
      <trkpt lat="50.3817" lon="4.3559">
        <ele>118.2</ele>
        <time>2024-06-25T09:22:23Z</time>
      </trkpt>
      <trkpt lat="50.38156" lon="4.35599">
        <ele>117.6</ele>
        <time>2024-06-25T09:22:27Z</time>
      </trkpt>
      <trkpt lat="50.38153" lon="4.35601">
        <ele>117.6</ele>
        <time>2024-06-25T09:22:28Z</time>
      </trkpt>
      <trkpt lat="50.38139" lon="4.35607">
        <ele>117</ele>
        <time>2024-06-25T09:22:32Z</time>
      </trkpt>
      <trkpt lat="50.38125" lon="4.35612">
        <ele>116.4</ele>
        <time>2024-06-25T09:22:36Z</time>
      </trkpt>
      <trkpt lat="50.38115" lon="4.35616">
        <ele>116.2</ele>
        <time>2024-06-25T09:22:38Z</time>
      </trkpt>
      <trkpt lat="50.38105" lon="4.3562">
        <ele>116</ele>
        <time>2024-06-25T09:22:40Z</time>
      </trkpt>
      <trkpt lat="50.38101" lon="4.35623">
        <ele>115.8</ele>
        <time>2024-06-25T09:22:41Z</time>
      </trkpt>
      <trkpt lat="50.38086" lon="4.3563">
        <ele>115.2</ele>
        <time>2024-06-25T09:22:45Z</time>
      </trkpt>
      <trkpt lat="50.38074" lon="4.35637">
        <ele>114.6</ele>
        <time>2024-06-25T09:22:50Z</time>
      </trkpt>
      <trkpt lat="50.38071" lon="4.35636">
        <ele>114.2</ele>
        <time>2024-06-25T09:22:56Z</time>
      </trkpt>
      <trkpt lat="50.3807" lon="4.35637">
        <ele>113.4</ele>
        <time>2024-06-25T09:23:06Z</time>
      </trkpt>
      <trkpt lat="50.38059" lon="4.35643">
        <ele>113.4</ele>
        <time>2024-06-25T09:23:11Z</time>
      </trkpt>
      <trkpt lat="50.38045" lon="4.3565">
        <ele>113</ele>
        <time>2024-06-25T09:23:16Z</time>
      </trkpt>
      <trkpt lat="50.38027" lon="4.35655">
        <ele>113</ele>
        <time>2024-06-25T09:23:21Z</time>
      </trkpt>
      <trkpt lat="50.38012" lon="4.35663">
        <ele>112.6</ele>
        <time>2024-06-25T09:23:26Z</time>
      </trkpt>
      <trkpt lat="50.37995" lon="4.35675">
        <ele>112.2</ele>
        <time>2024-06-25T09:23:31Z</time>
      </trkpt>
      <trkpt lat="50.3799" lon="4.35698">
        <ele>111.6</ele>
        <time>2024-06-25T09:23:35Z</time>
      </trkpt>
      <trkpt lat="50.37988" lon="4.35725">
        <ele>111</ele>
        <time>2024-06-25T09:23:39Z</time>
      </trkpt>
      <trkpt lat="50.37981" lon="4.35752">
        <ele>110.2</ele>
        <time>2024-06-25T09:23:43Z</time>
      </trkpt>
      <trkpt lat="50.37977" lon="4.35759">
        <ele>110</ele>
        <time>2024-06-25T09:23:44Z</time>
      </trkpt>
      <trkpt lat="50.37969" lon="4.35774">
        <ele>109.8</ele>
        <time>2024-06-25T09:23:47Z</time>
      </trkpt>
      <trkpt lat="50.37965" lon="4.35779">
        <ele>109.6</ele>
        <time>2024-06-25T09:23:48Z</time>
      </trkpt>
      <trkpt lat="50.37942" lon="4.3582">
        <ele>109.8</ele>
        <time>2024-06-25T09:23:55Z</time>
      </trkpt>
      <trkpt lat="50.37934" lon="4.3583">
        <ele>110</ele>
        <time>2024-06-25T09:23:57Z</time>
      </trkpt>
      <trkpt lat="50.37925" lon="4.35839">
        <ele>109.8</ele>
        <time>2024-06-25T09:23:59Z</time>
      </trkpt>
      <trkpt lat="50.37921" lon="4.35844">
        <ele>109.8</ele>
        <time>2024-06-25T09:24:00Z</time>
      </trkpt>
      <trkpt lat="50.37907" lon="4.35856">
        <ele>109.6</ele>
        <time>2024-06-25T09:24:03Z</time>
      </trkpt>
      <trkpt lat="50.37883" lon="4.35874">
        <ele>109</ele>
        <time>2024-06-25T09:24:08Z</time>
      </trkpt>
      <trkpt lat="50.37864" lon="4.35879">
        <ele>108.8</ele>
        <time>2024-06-25T09:24:13Z</time>
      </trkpt>
      <trkpt lat="50.37862" lon="4.35866">
        <ele>109</ele>
        <time>2024-06-25T09:24:16Z</time>
      </trkpt>
      <trkpt lat="50.37864" lon="4.3586">
        <ele>109.2</ele>
        <time>2024-06-25T09:24:17Z</time>
      </trkpt>
      <trkpt lat="50.37866" lon="4.35845">
        <ele>109.2</ele>
        <time>2024-06-25T09:24:19Z</time>
      </trkpt>
      <trkpt lat="50.37866" lon="4.35838">
        <ele>108.8</ele>
        <time>2024-06-25T09:24:20Z</time>
      </trkpt>
      <trkpt lat="50.37866" lon="4.3583">
        <ele>109</ele>
        <time>2024-06-25T09:24:21Z</time>
      </trkpt>
      <trkpt lat="50.37863" lon="4.35809">
        <ele>109.2</ele>
        <time>2024-06-25T09:24:24Z</time>
      </trkpt>
      <trkpt lat="50.37859" lon="4.35791">
        <ele>109.8</ele>
        <time>2024-06-25T09:24:27Z</time>
      </trkpt>
      <trkpt lat="50.37857" lon="4.35771">
        <ele>109.4</ele>
        <time>2024-06-25T09:24:30Z</time>
      </trkpt>
      <trkpt lat="50.37855" lon="4.35758">
        <ele>109.6</ele>
        <time>2024-06-25T09:24:32Z</time>
      </trkpt>
      <trkpt lat="50.37856" lon="4.35742">
        <ele>109.6</ele>
        <time>2024-06-25T09:24:34Z</time>
      </trkpt>
      <trkpt lat="50.37858" lon="4.35734">
        <ele>109.6</ele>
        <time>2024-06-25T09:24:35Z</time>
      </trkpt>
      <trkpt lat="50.37861" lon="4.35727">
        <ele>109.6</ele>
        <time>2024-06-25T09:24:36Z</time>
      </trkpt>
      <trkpt lat="50.37873" lon="4.35707">
        <ele>109.8</ele>
        <time>2024-06-25T09:24:39Z</time>
      </trkpt>
      <trkpt lat="50.37892" lon="4.35686">
        <ele>109.2</ele>
        <time>2024-06-25T09:24:44Z</time>
      </trkpt>
      <trkpt lat="50.37915" lon="4.35659">
        <ele>109.2</ele>
        <time>2024-06-25T09:24:52Z</time>
      </trkpt>
      <trkpt lat="50.37926" lon="4.35642">
        <ele>108.8</ele>
        <time>2024-06-25T09:24:58Z</time>
      </trkpt>
      <trkpt lat="50.37929" lon="4.35629">
        <ele>108.8</ele>
        <time>2024-06-25T09:25:02Z</time>
      </trkpt>
      <trkpt lat="50.37931" lon="4.35611">
        <ele>108.6</ele>
        <time>2024-06-25T09:25:08Z</time>
      </trkpt>
      <trkpt lat="50.37927" lon="4.356">
        <ele>109.2</ele>
        <time>2024-06-25T09:25:14Z</time>
      </trkpt>
      <trkpt lat="50.37927" lon="4.35599">
        <ele>109.2</ele>
        <time>2024-06-25T09:25:20Z</time>
      </trkpt>
      <trkpt lat="50.37925" lon="4.35594">
        <ele>109.2</ele>
        <time>2024-06-25T09:25:25Z</time>
      </trkpt>
      <trkpt lat="50.3792" lon="4.35588">
        <ele>108.4</ele>
        <time>2024-06-25T09:25:31Z</time>
      </trkpt>
      <trkpt lat="50.37917" lon="4.35583">
        <ele>108.6</ele>
        <time>2024-06-25T09:25:38Z</time>
      </trkpt>
      <trkpt lat="50.37917" lon="4.35582">
        <ele>108.6</ele>
        <time>2024-06-25T09:25:40Z</time>
      </trkpt>
      <trkpt lat="50.37915" lon="4.35577">
        <ele>108.4</ele>
        <time>2024-06-25T09:25:42Z</time>
      </trkpt>
      <trkpt lat="50.3791" lon="4.35564">
        <ele>107.2</ele>
        <time>2024-06-25T09:25:48Z</time>
      </trkpt>
      <trkpt lat="50.3791" lon="4.35545">
        <ele>106.2</ele>
        <time>2024-06-25T09:25:53Z</time>
      </trkpt>
      <trkpt lat="50.37914" lon="4.35526">
        <ele>105.8</ele>
        <time>2024-06-25T09:25:58Z</time>
      </trkpt>
      <trkpt lat="50.37909" lon="4.35509">
        <ele>106.4</ele>
        <time>2024-06-25T09:26:02Z</time>
      </trkpt>
      <trkpt lat="50.37896" lon="4.35491">
        <ele>106.4</ele>
        <time>2024-06-25T09:26:08Z</time>
      </trkpt>
      <trkpt lat="50.37886" lon="4.35475">
        <ele>105.6</ele>
        <time>2024-06-25T09:26:13Z</time>
      </trkpt>
      <trkpt lat="50.37868" lon="4.35444">
        <ele>107</ele>
        <time>2024-06-25T09:26:21Z</time>
      </trkpt>
      <trkpt lat="50.37852" lon="4.35407">
        <ele>107.8</ele>
        <time>2024-06-25T09:26:30Z</time>
      </trkpt>
      <trkpt lat="50.37845" lon="4.35385">
        <ele>108.2</ele>
        <time>2024-06-25T09:26:36Z</time>
      </trkpt>
      <trkpt lat="50.37835" lon="4.3534">
        <ele>109.4</ele>
        <time>2024-06-25T09:26:46Z</time>
      </trkpt>
      <trkpt lat="50.3783" lon="4.35312">
        <ele>110.2</ele>
        <time>2024-06-25T09:26:53Z</time>
      </trkpt>
      <trkpt lat="50.37823" lon="4.35289">
        <ele>111.2</ele>
        <time>2024-06-25T09:27:01Z</time>
      </trkpt>
      <trkpt lat="50.37812" lon="4.35256">
        <ele>112.2</ele>
        <time>2024-06-25T09:27:09Z</time>
      </trkpt>
      <trkpt lat="50.378" lon="4.35223">
        <ele>113.2</ele>
        <time>2024-06-25T09:27:16Z</time>
      </trkpt>
      <trkpt lat="50.37788" lon="4.35211">
        <ele>113.6</ele>
        <time>2024-06-25T09:27:20Z</time>
      </trkpt>
      <trkpt lat="50.37775" lon="4.3522">
        <ele>114</ele>
        <time>2024-06-25T09:27:24Z</time>
      </trkpt>
      <trkpt lat="50.37754" lon="4.35232">
        <ele>114.6</ele>
        <time>2024-06-25T09:27:31Z</time>
      </trkpt>
      <trkpt lat="50.37744" lon="4.35243">
        <ele>114.8</ele>
        <time>2024-06-25T09:27:35Z</time>
      </trkpt>
      <trkpt lat="50.37742" lon="4.35265">
        <ele>115</ele>
        <time>2024-06-25T09:27:39Z</time>
      </trkpt>
      <trkpt lat="50.37751" lon="4.3529">
        <ele>115</ele>
        <time>2024-06-25T09:27:44Z</time>
      </trkpt>
      <trkpt lat="50.37765" lon="4.35319">
        <ele>115.4</ele>
        <time>2024-06-25T09:27:51Z</time>
      </trkpt>
      <trkpt lat="50.37771" lon="4.35328">
        <ele>115.6</ele>
        <time>2024-06-25T09:27:54Z</time>
      </trkpt>
      <trkpt lat="50.37773" lon="4.35328">
        <ele>115.6</ele>
        <time>2024-06-25T09:27:55Z</time>
      </trkpt>
      <trkpt lat="50.3779" lon="4.35313">
        <ele>115.8</ele>
        <time>2024-06-25T09:28:01Z</time>
      </trkpt>
      <trkpt lat="50.37809" lon="4.35298">
        <ele>116</ele>
        <time>2024-06-25T09:28:07Z</time>
      </trkpt>
      <trkpt lat="50.37817" lon="4.35291">
        <ele>116.4</ele>
        <time>2024-06-25T09:28:12Z</time>
      </trkpt>
      <trkpt lat="50.37819" lon="4.35293">
        <ele>116.2</ele>
        <time>2024-06-25T09:28:13Z</time>
      </trkpt>
      <trkpt lat="50.37822" lon="4.35299">
        <ele>116.2</ele>
        <time>2024-06-25T09:28:15Z</time>
      </trkpt>
      <trkpt lat="50.37822" lon="4.35305">
        <ele>116.2</ele>
        <time>2024-06-25T09:28:18Z</time>
      </trkpt>
      <trkpt lat="50.37822" lon="4.35305">
        <ele>116.4</ele>
        <time>2024-06-25T09:28:26Z</time>
      </trkpt>
      <trkpt lat="50.37822" lon="4.35305">
        <ele>116.6</ele>
        <time>2024-06-25T09:28:33Z</time>
      </trkpt>
      <trkpt lat="50.37822" lon="4.35305">
        <ele>116.8</ele>
        <time>2024-06-25T09:28:43Z</time>
      </trkpt>
      <trkpt lat="50.37821" lon="4.35305">
        <ele>117</ele>
        <time>2024-06-25T09:28:53Z</time>
      </trkpt>
      <trkpt lat="50.37822" lon="4.35307">
        <ele>117.2</ele>
        <time>2024-06-25T09:29:04Z</time>
      </trkpt>
      <trkpt lat="50.37822" lon="4.35308">
        <ele>117.4</ele>
        <time>2024-06-25T09:29:13Z</time>
      </trkpt>
      <trkpt lat="50.37822" lon="4.35308">
        <ele>117.6</ele>
        <time>2024-06-25T09:29:29Z</time>
      </trkpt>
      <trkpt lat="50.37822" lon="4.35308">
        <ele>118</ele>
        <time>2024-06-25T09:29:48Z</time>
      </trkpt>
      <trkpt lat="50.37822" lon="4.35308">
        <ele>118.2</ele>
        <time>2024-06-25T09:30:05Z</time>
      </trkpt>
      <trkpt lat="50.37822" lon="4.35308">
        <ele>118.4</ele>
        <time>2024-06-25T09:30:21Z</time>
      </trkpt>
      <trkpt lat="50.37822" lon="4.35309">
        <ele>118.6</ele>
        <time>2024-06-25T09:30:38Z</time>
      </trkpt>
      <trkpt lat="50.37822" lon="4.35309">
        <ele>118.8</ele>
        <time>2024-06-25T09:31:04Z</time>
      </trkpt>
      <trkpt lat="50.37823" lon="4.3531">
        <ele>119</ele>
        <time>2024-06-25T09:31:28Z</time>
      </trkpt>
      <trkpt lat="50.37823" lon="4.3531">
        <ele>119.2</ele>
        <time>2024-06-25T09:31:40Z</time>
      </trkpt>
      <trkpt lat="50.37823" lon="4.3531">
        <ele>119.4</ele>
        <time>2024-06-25T09:32:00Z</time>
      </trkpt>
      <trkpt lat="50.37823" lon="4.3531">
        <ele>119.4</ele>
        <time>2024-06-25T09:32:31Z</time>
      </trkpt>
      <trkpt lat="50.37823" lon="4.3531">
        <ele>119.6</ele>
        <time>2024-06-25T09:32:51Z</time>
      </trkpt>
      <trkpt lat="50.37823" lon="4.3531">
        <ele>119.6</ele>
        <time>2024-06-25T09:33:14Z</time>
      </trkpt>
      <trkpt lat="50.37823" lon="4.3531">
        <ele>119.6</ele>
        <time>2024-06-25T09:33:35Z</time>
      </trkpt>
      <trkpt lat="50.37823" lon="4.3531">
        <ele>119.6</ele>
        <time>2024-06-25T09:33:52Z</time>
      </trkpt>
      <trkpt lat="50.37823" lon="4.3531">
        <ele>119.6</ele>
        <time>2024-06-25T09:34:23Z</time>
      </trkpt>
      <trkpt lat="50.37823" lon="4.3531">
        <ele>119.4</ele>
        <time>2024-06-25T09:34:54Z</time>
      </trkpt>
      <trkpt lat="50.37823" lon="4.3531">
        <ele>119.4</ele>
        <time>2024-06-25T09:35:23Z</time>
      </trkpt>
      <trkpt lat="50.37823" lon="4.3531">
        <ele>119.4</ele>
        <time>2024-06-25T09:35:44Z</time>
      </trkpt>
      <trkpt lat="50.37823" lon="4.3531">
        <ele>119.4</ele>
        <time>2024-06-25T09:36:11Z</time>
      </trkpt>
      <trkpt lat="50.37823" lon="4.3531">
        <ele>119.6</ele>
        <time>2024-06-25T09:36:31Z</time>
      </trkpt>
      <trkpt lat="50.37823" lon="4.3531">
        <ele>119.6</ele>
        <time>2024-06-25T09:36:50Z</time>
      </trkpt>
      <trkpt lat="50.37823" lon="4.3531">
        <ele>119.6</ele>
        <time>2024-06-25T09:37:16Z</time>
      </trkpt>
      <trkpt lat="50.37823" lon="4.3531">
        <ele>119.6</ele>
        <time>2024-06-25T09:37:39Z</time>
      </trkpt>
      <trkpt lat="50.37823" lon="4.35309">
        <ele>119.8</ele>
        <time>2024-06-25T09:38:02Z</time>
      </trkpt>
      <trkpt lat="50.37824" lon="4.3531">
        <ele>119.8</ele>
        <time>2024-06-25T09:38:26Z</time>
      </trkpt>
      <trkpt lat="50.37824" lon="4.3531">
        <ele>120</ele>
        <time>2024-06-25T09:38:48Z</time>
      </trkpt>
      <trkpt lat="50.37824" lon="4.3531">
        <ele>120</ele>
        <time>2024-06-25T09:39:00Z</time>
      </trkpt>
      <trkpt lat="50.37824" lon="4.3531">
        <ele>120.2</ele>
        <time>2024-06-25T09:39:30Z</time>
      </trkpt>
      <trkpt lat="50.37824" lon="4.3531">
        <ele>120.2</ele>
        <time>2024-06-25T09:39:40Z</time>
      </trkpt>
      <trkpt lat="50.37824" lon="4.3531">
        <ele>120.2</ele>
        <time>2024-06-25T09:40:01Z</time>
      </trkpt>
      <trkpt lat="50.37824" lon="4.3531">
        <ele>120.4</ele>
        <time>2024-06-25T09:40:15Z</time>
      </trkpt>
      <trkpt lat="50.37826" lon="4.35309">
        <ele>120.4</ele>
        <time>2024-06-25T09:40:23Z</time>
      </trkpt>
      <trkpt lat="50.37826" lon="4.35309">
        <ele>120.6</ele>
        <time>2024-06-25T09:40:40Z</time>
      </trkpt>
      <trkpt lat="50.37826" lon="4.3531">
        <ele>120.8</ele>
        <time>2024-06-25T09:41:01Z</time>
      </trkpt>
      <trkpt lat="50.37826" lon="4.3531">
        <ele>120.8</ele>
        <time>2024-06-25T09:41:25Z</time>
      </trkpt>
      <trkpt lat="50.37826" lon="4.3531">
        <ele>121.2</ele>
        <time>2024-06-25T09:41:48Z</time>
      </trkpt>
      <trkpt lat="50.37826" lon="4.3531">
        <ele>121.4</ele>
        <time>2024-06-25T09:42:10Z</time>
      </trkpt>
      <trkpt lat="50.37826" lon="4.3531">
        <ele>121.4</ele>
        <time>2024-06-25T09:42:29Z</time>
      </trkpt>
      <trkpt lat="50.37826" lon="4.3531">
        <ele>121.6</ele>
        <time>2024-06-25T09:42:53Z</time>
      </trkpt>
      <trkpt lat="50.37826" lon="4.35309">
        <ele>121.8</ele>
        <time>2024-06-25T09:43:02Z</time>
      </trkpt>
      <trkpt lat="50.37826" lon="4.35309">
        <ele>121.8</ele>
        <time>2024-06-25T09:43:24Z</time>
      </trkpt>
      <trkpt lat="50.37827" lon="4.35309">
        <ele>122</ele>
        <time>2024-06-25T09:43:49Z</time>
      </trkpt>
      <trkpt lat="50.37827" lon="4.35309">
        <ele>122.2</ele>
        <time>2024-06-25T09:44:10Z</time>
      </trkpt>
      <trkpt lat="50.37826" lon="4.35309">
        <ele>122.4</ele>
        <time>2024-06-25T09:44:25Z</time>
      </trkpt>
      <trkpt lat="50.37826" lon="4.35309">
        <ele>122.4</ele>
        <time>2024-06-25T09:44:48Z</time>
      </trkpt>
      <trkpt lat="50.37826" lon="4.35309">
        <ele>122.6</ele>
        <time>2024-06-25T09:45:08Z</time>
      </trkpt>
      <trkpt lat="50.37826" lon="4.35309">
        <ele>122.8</ele>
        <time>2024-06-25T09:45:30Z</time>
      </trkpt>
      <trkpt lat="50.37826" lon="4.3531">
        <ele>122.8</ele>
        <time>2024-06-25T09:45:55Z</time>
      </trkpt>
      <trkpt lat="50.37826" lon="4.3531">
        <ele>123</ele>
        <time>2024-06-25T09:46:14Z</time>
      </trkpt>
      <trkpt lat="50.37826" lon="4.35309">
        <ele>123</ele>
        <time>2024-06-25T09:46:26Z</time>
      </trkpt>
      <trkpt lat="50.37826" lon="4.35309">
        <ele>123</ele>
        <time>2024-06-25T09:46:51Z</time>
      </trkpt>
      <trkpt lat="50.37826" lon="4.35309">
        <ele>123</ele>
        <time>2024-06-25T09:47:07Z</time>
      </trkpt>
      <trkpt lat="50.37826" lon="4.35309">
        <ele>123</ele>
        <time>2024-06-25T09:47:24Z</time>
      </trkpt>
      <trkpt lat="50.37826" lon="4.35309">
        <ele>123.2</ele>
        <time>2024-06-25T09:47:47Z</time>
      </trkpt>
      <trkpt lat="50.37826" lon="4.35309">
        <ele>123.4</ele>
        <time>2024-06-25T09:48:00Z</time>
      </trkpt>
      <trkpt lat="50.37826" lon="4.35309">
        <ele>123.4</ele>
        <time>2024-06-25T09:48:11Z</time>
      </trkpt>
      <trkpt lat="50.37826" lon="4.35309">
        <ele>123.6</ele>
        <time>2024-06-25T09:48:36Z</time>
      </trkpt>
      <trkpt lat="50.37826" lon="4.35308">
        <ele>123.8</ele>
        <time>2024-06-25T09:49:08Z</time>
      </trkpt>
      <trkpt lat="50.37826" lon="4.35308">
        <ele>123.8</ele>
        <time>2024-06-25T09:49:28Z</time>
      </trkpt>
      <trkpt lat="50.37825" lon="4.35308">
        <ele>123.8</ele>
        <time>2024-06-25T09:49:59Z</time>
      </trkpt>
      <trkpt lat="50.37825" lon="4.35307">
        <ele>123.6</ele>
        <time>2024-06-25T09:50:22Z</time>
      </trkpt>
      <trkpt lat="50.37825" lon="4.35307">
        <ele>123.6</ele>
        <time>2024-06-25T09:50:35Z</time>
      </trkpt>
      <trkpt lat="50.37825" lon="4.35307">
        <ele>123.6</ele>
        <time>2024-06-25T09:50:39Z</time>
      </trkpt>
      <trkpt lat="50.37825" lon="4.35307">
        <ele>123.6</ele>
        <time>2024-06-25T09:50:49Z</time>
      </trkpt>
      <trkpt lat="50.37825" lon="4.35307">
        <ele>123.6</ele>
        <time>2024-06-25T09:50:56Z</time>
      </trkpt>
      <trkpt lat="50.37826" lon="4.35306">
        <ele>123.4</ele>
        <time>2024-06-25T09:50:59Z</time>
      </trkpt>
      <trkpt lat="50.37828" lon="4.35302">
        <ele>123.2</ele>
        <time>2024-06-25T09:51:01Z</time>
      </trkpt>
      <trkpt lat="50.37829" lon="4.35299">
        <ele>123.2</ele>
        <time>2024-06-25T09:51:02Z</time>
      </trkpt>
      <trkpt lat="50.37827" lon="4.35295">
        <ele>123.2</ele>
        <time>2024-06-25T09:51:05Z</time>
      </trkpt>
      <trkpt lat="50.37827" lon="4.35295">
        <ele>123.2</ele>
        <time>2024-06-25T09:51:13Z</time>
      </trkpt>
      <trkpt lat="50.3782" lon="4.35278">
        <ele>123.2</ele>
        <time>2024-06-25T09:51:18Z</time>
      </trkpt>
      <trkpt lat="50.37814" lon="4.3526">
        <ele>123.4</ele>
        <time>2024-06-25T09:51:23Z</time>
      </trkpt>
      <trkpt lat="50.37802" lon="4.35228">
        <ele>123.4</ele>
        <time>2024-06-25T09:51:31Z</time>
      </trkpt>
      <trkpt lat="50.37803" lon="4.3521">
        <ele>123.6</ele>
        <time>2024-06-25T09:51:35Z</time>
      </trkpt>
      <trkpt lat="50.37815" lon="4.35191">
        <ele>123.8</ele>
        <time>2024-06-25T09:51:40Z</time>
      </trkpt>
      <trkpt lat="50.37827" lon="4.35164">
        <ele>123.8</ele>
        <time>2024-06-25T09:51:46Z</time>
      </trkpt>
      <trkpt lat="50.37832" lon="4.35148">
        <ele>124</ele>
        <time>2024-06-25T09:51:49Z</time>
      </trkpt>
      <trkpt lat="50.37839" lon="4.35138">
        <ele>124</ele>
        <time>2024-06-25T09:51:51Z</time>
      </trkpt>
      <trkpt lat="50.3785" lon="4.35126">
        <ele>124.4</ele>
        <time>2024-06-25T09:51:55Z</time>
      </trkpt>
      <trkpt lat="50.37871" lon="4.35107">
        <ele>124.8</ele>
        <time>2024-06-25T09:52:02Z</time>
      </trkpt>
      <trkpt lat="50.37889" lon="4.35096">
        <ele>125</ele>
        <time>2024-06-25T09:52:07Z</time>
      </trkpt>
      <trkpt lat="50.37897" lon="4.35095">
        <ele>125</ele>
        <time>2024-06-25T09:52:09Z</time>
      </trkpt>
      <trkpt lat="50.37916" lon="4.35092">
        <ele>125.6</ele>
        <time>2024-06-25T09:52:14Z</time>
      </trkpt>
      <trkpt lat="50.37931" lon="4.3509">
        <ele>126</ele>
        <time>2024-06-25T09:52:18Z</time>
      </trkpt>
      <trkpt lat="50.37952" lon="4.35087">
        <ele>126.8</ele>
        <time>2024-06-25T09:52:23Z</time>
      </trkpt>
      <trkpt lat="50.37976" lon="4.35084">
        <ele>127.4</ele>
        <time>2024-06-25T09:52:29Z</time>
      </trkpt>
      <trkpt lat="50.37981" lon="4.35079">
        <ele>127.6</ele>
        <time>2024-06-25T09:52:31Z</time>
      </trkpt>
      <trkpt lat="50.37982" lon="4.35069">
        <ele>127.6</ele>
        <time>2024-06-25T09:52:33Z</time>
      </trkpt>
      <trkpt lat="50.37979" lon="4.35046">
        <ele>127.8</ele>
        <time>2024-06-25T09:52:37Z</time>
      </trkpt>
      <trkpt lat="50.37979" lon="4.35006">
        <ele>128.6</ele>
        <time>2024-06-25T09:52:44Z</time>
      </trkpt>
      <trkpt lat="50.37979" lon="4.34969">
        <ele>129.2</ele>
        <time>2024-06-25T09:52:51Z</time>
      </trkpt>
      <trkpt lat="50.37977" lon="4.34938">
        <ele>129.8</ele>
        <time>2024-06-25T09:52:57Z</time>
      </trkpt>
      <trkpt lat="50.37975" lon="4.34908">
        <ele>130.4</ele>
        <time>2024-06-25T09:53:03Z</time>
      </trkpt>
      <trkpt lat="50.3797" lon="4.34892">
        <ele>130.8</ele>
        <time>2024-06-25T09:53:07Z</time>
      </trkpt>
      <trkpt lat="50.37969" lon="4.34887">
        <ele>131</ele>
        <time>2024-06-25T09:53:08Z</time>
      </trkpt>
      <trkpt lat="50.37963" lon="4.34863">
        <ele>131.6</ele>
        <time>2024-06-25T09:53:13Z</time>
      </trkpt>
      <trkpt lat="50.37956" lon="4.34838">
        <ele>132.2</ele>
        <time>2024-06-25T09:53:18Z</time>
      </trkpt>
      <trkpt lat="50.37949" lon="4.34812">
        <ele>133</ele>
        <time>2024-06-25T09:53:23Z</time>
      </trkpt>
      <trkpt lat="50.37943" lon="4.34785">
        <ele>134.2</ele>
        <time>2024-06-25T09:53:29Z</time>
      </trkpt>
      <trkpt lat="50.37937" lon="4.34758">
        <ele>135.2</ele>
        <time>2024-06-25T09:53:35Z</time>
      </trkpt>
      <trkpt lat="50.37935" lon="4.34751">
        <ele>135.4</ele>
        <time>2024-06-25T09:53:37Z</time>
      </trkpt>
      <trkpt lat="50.37933" lon="4.34748">
        <ele>135.6</ele>
        <time>2024-06-25T09:53:38Z</time>
      </trkpt>
      <trkpt lat="50.37931" lon="4.34743">
        <ele>135.8</ele>
        <time>2024-06-25T09:53:40Z</time>
      </trkpt>
      <trkpt lat="50.3793" lon="4.34737">
        <ele>136.2</ele>
        <time>2024-06-25T09:53:42Z</time>
      </trkpt>
      <trkpt lat="50.3793" lon="4.34731">
        <ele>136.4</ele>
        <time>2024-06-25T09:53:44Z</time>
      </trkpt>
      <trkpt lat="50.3793" lon="4.34729">
        <ele>136.6</ele>
        <time>2024-06-25T09:53:45Z</time>
      </trkpt>
      <trkpt lat="50.37931" lon="4.34726">
        <ele>137.2</ele>
        <time>2024-06-25T09:53:49Z</time>
      </trkpt>
      <trkpt lat="50.37932" lon="4.34723">
        <ele>138.4</ele>
        <time>2024-06-25T09:53:57Z</time>
      </trkpt>
      <trkpt lat="50.37932" lon="4.3472">
        <ele>139</ele>
        <time>2024-06-25T09:54:02Z</time>
      </trkpt>
      <trkpt lat="50.37932" lon="4.34713">
        <ele>140</ele>
        <time>2024-06-25T09:54:08Z</time>
      </trkpt>
      <trkpt lat="50.37929" lon="4.34709">
        <ele>140.8</ele>
        <time>2024-06-25T09:54:14Z</time>
      </trkpt>
      <trkpt lat="50.37926" lon="4.34703">
        <ele>141.4</ele>
        <time>2024-06-25T09:54:20Z</time>
      </trkpt>
      <trkpt lat="50.37924" lon="4.34704">
        <ele>141.4</ele>
        <time>2024-06-25T09:54:22Z</time>
      </trkpt>
      <trkpt lat="50.37925" lon="4.34707">
        <ele>141.6</ele>
        <time>2024-06-25T09:54:24Z</time>
      </trkpt>
      <trkpt lat="50.37925" lon="4.34708">
        <ele>141.8</ele>
        <time>2024-06-25T09:54:28Z</time>
      </trkpt>
      <trkpt lat="50.3793" lon="4.34711">
        <ele>142.4</ele>
        <time>2024-06-25T09:54:34Z</time>
      </trkpt>
      <trkpt lat="50.37937" lon="4.34712">
        <ele>142.8</ele>
        <time>2024-06-25T09:54:37Z</time>
      </trkpt>
      <trkpt lat="50.37939" lon="4.34709">
        <ele>142.8</ele>
        <time>2024-06-25T09:54:38Z</time>
      </trkpt>
      <trkpt lat="50.37945" lon="4.34695">
        <ele>143.6</ele>
        <time>2024-06-25T09:54:43Z</time>
      </trkpt>
      <trkpt lat="50.37958" lon="4.34681">
        <ele>144.4</ele>
        <time>2024-06-25T09:54:49Z</time>
      </trkpt>
      <trkpt lat="50.37975" lon="4.34663">
        <ele>145.8</ele>
        <time>2024-06-25T09:54:57Z</time>
      </trkpt>
      <trkpt lat="50.37986" lon="4.34649">
        <ele>147</ele>
        <time>2024-06-25T09:55:03Z</time>
      </trkpt>
      <trkpt lat="50.38002" lon="4.3463">
        <ele>148.6</ele>
        <time>2024-06-25T09:55:11Z</time>
      </trkpt>
      <trkpt lat="50.38009" lon="4.34609">
        <ele>149.8</ele>
        <time>2024-06-25T09:55:17Z</time>
      </trkpt>
      <trkpt lat="50.38012" lon="4.3459">
        <ele>150.8</ele>
        <time>2024-06-25T09:55:22Z</time>
      </trkpt>
      <trkpt lat="50.38017" lon="4.34562">
        <ele>152.2</ele>
        <time>2024-06-25T09:55:29Z</time>
      </trkpt>
      <trkpt lat="50.38015" lon="4.34534">
        <ele>153.6</ele>
        <time>2024-06-25T09:55:36Z</time>
      </trkpt>
      <trkpt lat="50.38008" lon="4.345">
        <ele>155.4</ele>
        <time>2024-06-25T09:55:44Z</time>
      </trkpt>
      <trkpt lat="50.38003" lon="4.34469">
        <ele>156.8</ele>
        <time>2024-06-25T09:55:51Z</time>
      </trkpt>
      <trkpt lat="50.37994" lon="4.34424">
        <ele>158.8</ele>
        <time>2024-06-25T09:56:01Z</time>
      </trkpt>
      <trkpt lat="50.37989" lon="4.34388">
        <ele>160.4</ele>
        <time>2024-06-25T09:56:09Z</time>
      </trkpt>
      <trkpt lat="50.37983" lon="4.34358">
        <ele>161.6</ele>
        <time>2024-06-25T09:56:15Z</time>
      </trkpt>
      <trkpt lat="50.37977" lon="4.34317">
        <ele>163</ele>
        <time>2024-06-25T09:56:23Z</time>
      </trkpt>
      <trkpt lat="50.37968" lon="4.34264">
        <ele>164.8</ele>
        <time>2024-06-25T09:56:32Z</time>
      </trkpt>
      <trkpt lat="50.37959" lon="4.34202">
        <ele>166.6</ele>
        <time>2024-06-25T09:56:42Z</time>
      </trkpt>
      <trkpt lat="50.37956" lon="4.3414">
        <ele>168.6</ele>
        <time>2024-06-25T09:56:52Z</time>
      </trkpt>
      <trkpt lat="50.37952" lon="4.34076">
        <ele>170.4</ele>
        <time>2024-06-25T09:57:02Z</time>
      </trkpt>
      <trkpt lat="50.37949" lon="4.3402">
        <ele>171.8</ele>
        <time>2024-06-25T09:57:10Z</time>
      </trkpt>
      <trkpt lat="50.37945" lon="4.33956">
        <ele>173</ele>
        <time>2024-06-25T09:57:18Z</time>
      </trkpt>
      <trkpt lat="50.37941" lon="4.33878">
        <ele>174.6</ele>
        <time>2024-06-25T09:57:28Z</time>
      </trkpt>
      <trkpt lat="50.37938" lon="4.33807">
        <ele>176</ele>
        <time>2024-06-25T09:57:37Z</time>
      </trkpt>
      <trkpt lat="50.37935" lon="4.33739">
        <ele>177.2</ele>
        <time>2024-06-25T09:57:46Z</time>
      </trkpt>
      <trkpt lat="50.3793" lon="4.33658">
        <ele>178.8</ele>
        <time>2024-06-25T09:57:57Z</time>
      </trkpt>
      <trkpt lat="50.37926" lon="4.33582">
        <ele>180.2</ele>
        <time>2024-06-25T09:58:07Z</time>
      </trkpt>
      <trkpt lat="50.37923" lon="4.33519">
        <ele>181.2</ele>
        <time>2024-06-25T09:58:15Z</time>
      </trkpt>
      <trkpt lat="50.37922" lon="4.33512">
        <ele>181.2</ele>
        <time>2024-06-25T09:58:16Z</time>
      </trkpt>
      <trkpt lat="50.37917" lon="4.33502">
        <ele>181.4</ele>
        <time>2024-06-25T09:58:18Z</time>
      </trkpt>
      <trkpt lat="50.37914" lon="4.335">
        <ele>181.6</ele>
        <time>2024-06-25T09:58:19Z</time>
      </trkpt>
      <trkpt lat="50.3791" lon="4.335">
        <ele>181.6</ele>
        <time>2024-06-25T09:58:20Z</time>
      </trkpt>
      <trkpt lat="50.37891" lon="4.33505">
        <ele>182</ele>
        <time>2024-06-25T09:58:24Z</time>
      </trkpt>
      <trkpt lat="50.37876" lon="4.33507">
        <ele>182.2</ele>
        <time>2024-06-25T09:58:27Z</time>
      </trkpt>
      <trkpt lat="50.37861" lon="4.33508">
        <ele>182.4</ele>
        <time>2024-06-25T09:58:30Z</time>
      </trkpt>
      <trkpt lat="50.37851" lon="4.33509">
        <ele>182.6</ele>
        <time>2024-06-25T09:58:32Z</time>
      </trkpt>
      <trkpt lat="50.37841" lon="4.33513">
        <ele>182.8</ele>
        <time>2024-06-25T09:58:34Z</time>
      </trkpt>
      <trkpt lat="50.37815" lon="4.3352">
        <ele>183</ele>
        <time>2024-06-25T09:58:39Z</time>
      </trkpt>
      <trkpt lat="50.37805" lon="4.3352">
        <ele>183.2</ele>
        <time>2024-06-25T09:58:41Z</time>
      </trkpt>
      <trkpt lat="50.37766" lon="4.33511">
        <ele>183.8</ele>
        <time>2024-06-25T09:58:48Z</time>
      </trkpt>
      <trkpt lat="50.37738" lon="4.33502">
        <ele>184</ele>
        <time>2024-06-25T09:58:53Z</time>
      </trkpt>
      <trkpt lat="50.37704" lon="4.33498">
        <ele>184.6</ele>
        <time>2024-06-25T09:59:00Z</time>
      </trkpt>
      <trkpt lat="50.377" lon="4.33498">
        <ele>184.6</ele>
        <time>2024-06-25T09:59:01Z</time>
      </trkpt>
      <trkpt lat="50.37683" lon="4.33498">
        <ele>185</ele>
        <time>2024-06-25T09:59:05Z</time>
      </trkpt>
      <trkpt lat="50.3766" lon="4.335">
        <ele>185.4</ele>
        <time>2024-06-25T09:59:11Z</time>
      </trkpt>
      <trkpt lat="50.37642" lon="4.33503">
        <ele>185.8</ele>
        <time>2024-06-25T09:59:16Z</time>
      </trkpt>
      <trkpt lat="50.37614" lon="4.33509">
        <ele>186.2</ele>
        <time>2024-06-25T09:59:24Z</time>
      </trkpt>
      <trkpt lat="50.37596" lon="4.33511">
        <ele>186.4</ele>
        <time>2024-06-25T09:59:29Z</time>
      </trkpt>
      <trkpt lat="50.37568" lon="4.33514">
        <ele>187</ele>
        <time>2024-06-25T09:59:36Z</time>
      </trkpt>
      <trkpt lat="50.37551" lon="4.33514">
        <ele>187.2</ele>
        <time>2024-06-25T09:59:42Z</time>
      </trkpt>
      <trkpt lat="50.37547" lon="4.33505">
        <ele>187.4</ele>
        <time>2024-06-25T09:59:45Z</time>
      </trkpt>
      <trkpt lat="50.37547" lon="4.335">
        <ele>187.6</ele>
        <time>2024-06-25T09:59:46Z</time>
      </trkpt>
      <trkpt lat="50.37548" lon="4.33489">
        <ele>187.8</ele>
        <time>2024-06-25T09:59:48Z</time>
      </trkpt>
      <trkpt lat="50.3755" lon="4.33477">
        <ele>188</ele>
        <time>2024-06-25T09:59:50Z</time>
      </trkpt>
      <trkpt lat="50.37555" lon="4.33445">
        <ele>188.6</ele>
        <time>2024-06-25T09:59:56Z</time>
      </trkpt>
      <trkpt lat="50.37557" lon="4.33429">
        <ele>188.8</ele>
        <time>2024-06-25T09:59:59Z</time>
      </trkpt>
      <trkpt lat="50.37559" lon="4.33409">
        <ele>189</ele>
        <time>2024-06-25T10:00:02Z</time>
      </trkpt>
      <trkpt lat="50.37563" lon="4.3337">
        <ele>189.6</ele>
        <time>2024-06-25T10:00:08Z</time>
      </trkpt>
      <trkpt lat="50.37566" lon="4.33341">
        <ele>189.8</ele>
        <time>2024-06-25T10:00:13Z</time>
      </trkpt>
      <trkpt lat="50.3757" lon="4.33316">
        <ele>189.8</ele>
        <time>2024-06-25T10:00:18Z</time>
      </trkpt>
      <trkpt lat="50.37575" lon="4.33287">
        <ele>189.8</ele>
        <time>2024-06-25T10:00:23Z</time>
      </trkpt>
      <trkpt lat="50.37577" lon="4.33283">
        <ele>189.8</ele>
        <time>2024-06-25T10:00:24Z</time>
      </trkpt>
      <trkpt lat="50.37577" lon="4.33271">
        <ele>189.8</ele>
        <time>2024-06-25T10:00:26Z</time>
      </trkpt>
      <trkpt lat="50.37579" lon="4.3325">
        <ele>189.6</ele>
        <time>2024-06-25T10:00:29Z</time>
      </trkpt>
      <trkpt lat="50.3758" lon="4.33236">
        <ele>190</ele>
        <time>2024-06-25T10:00:31Z</time>
      </trkpt>
      <trkpt lat="50.3758" lon="4.33228">
        <ele>189.8</ele>
        <time>2024-06-25T10:00:32Z</time>
      </trkpt>
      <trkpt lat="50.37584" lon="4.33201">
        <ele>189.2</ele>
        <time>2024-06-25T10:00:36Z</time>
      </trkpt>
      <trkpt lat="50.37587" lon="4.33178">
        <ele>189</ele>
        <time>2024-06-25T10:00:40Z</time>
      </trkpt>
      <trkpt lat="50.37589" lon="4.3315">
        <ele>189.2</ele>
        <time>2024-06-25T10:00:45Z</time>
      </trkpt>
      <trkpt lat="50.37589" lon="4.33139">
        <ele>189.4</ele>
        <time>2024-06-25T10:00:47Z</time>
      </trkpt>
      <trkpt lat="50.37591" lon="4.33133">
        <ele>189.4</ele>
        <time>2024-06-25T10:00:48Z</time>
      </trkpt>
      <trkpt lat="50.37593" lon="4.33115">
        <ele>189.4</ele>
        <time>2024-06-25T10:00:51Z</time>
      </trkpt>
      <trkpt lat="50.37595" lon="4.33101">
        <ele>189.2</ele>
        <time>2024-06-25T10:00:53Z</time>
      </trkpt>
      <trkpt lat="50.37597" lon="4.3308">
        <ele>188.8</ele>
        <time>2024-06-25T10:00:56Z</time>
      </trkpt>
      <trkpt lat="50.37599" lon="4.33068">
        <ele>188.6</ele>
        <time>2024-06-25T10:00:58Z</time>
      </trkpt>
      <trkpt lat="50.37601" lon="4.33043">
        <ele>188.8</ele>
        <time>2024-06-25T10:01:02Z</time>
      </trkpt>
      <trkpt lat="50.376" lon="4.33037">
        <ele>189</ele>
        <time>2024-06-25T10:01:03Z</time>
      </trkpt>
      <trkpt lat="50.37603" lon="4.33005">
        <ele>189</ele>
        <time>2024-06-25T10:01:08Z</time>
      </trkpt>
      <trkpt lat="50.37603" lon="4.32997">
        <ele>188.8</ele>
        <time>2024-06-25T10:01:09Z</time>
      </trkpt>
      <trkpt lat="50.37603" lon="4.32989">
        <ele>188.8</ele>
        <time>2024-06-25T10:01:10Z</time>
      </trkpt>
      <trkpt lat="50.37607" lon="4.32972">
        <ele>188.8</ele>
        <time>2024-06-25T10:01:12Z</time>
      </trkpt>
      <trkpt lat="50.37613" lon="4.3292">
        <ele>188.2</ele>
        <time>2024-06-25T10:01:18Z</time>
      </trkpt>
      <trkpt lat="50.37615" lon="4.32911">
        <ele>188</ele>
        <time>2024-06-25T10:01:19Z</time>
      </trkpt>
      <trkpt lat="50.37617" lon="4.32895">
        <ele>187.6</ele>
        <time>2024-06-25T10:01:21Z</time>
      </trkpt>
      <trkpt lat="50.37618" lon="4.32886">
        <ele>187.4</ele>
        <time>2024-06-25T10:01:22Z</time>
      </trkpt>
      <trkpt lat="50.37618" lon="4.32878">
        <ele>187.2</ele>
        <time>2024-06-25T10:01:23Z</time>
      </trkpt>
      <trkpt lat="50.37622" lon="4.32849">
        <ele>186.4</ele>
        <time>2024-06-25T10:01:27Z</time>
      </trkpt>
      <trkpt lat="50.37623" lon="4.32836">
        <ele>186.2</ele>
        <time>2024-06-25T10:01:29Z</time>
      </trkpt>
      <trkpt lat="50.37626" lon="4.32823">
        <ele>186</ele>
        <time>2024-06-25T10:01:31Z</time>
      </trkpt>
      <trkpt lat="50.37628" lon="4.32798">
        <ele>185.6</ele>
        <time>2024-06-25T10:01:35Z</time>
      </trkpt>
      <trkpt lat="50.37631" lon="4.32767">
        <ele>185.2</ele>
        <time>2024-06-25T10:01:40Z</time>
      </trkpt>
      <trkpt lat="50.37634" lon="4.32748">
        <ele>185</ele>
        <time>2024-06-25T10:01:43Z</time>
      </trkpt>
      <trkpt lat="50.37638" lon="4.32717">
        <ele>184.6</ele>
        <time>2024-06-25T10:01:48Z</time>
      </trkpt>
      <trkpt lat="50.3764" lon="4.32705">
        <ele>184.4</ele>
        <time>2024-06-25T10:01:50Z</time>
      </trkpt>
      <trkpt lat="50.3764" lon="4.32698">
        <ele>184.2</ele>
        <time>2024-06-25T10:01:51Z</time>
      </trkpt>
      <trkpt lat="50.37644" lon="4.32684">
        <ele>184</ele>
        <time>2024-06-25T10:01:53Z</time>
      </trkpt>
      <trkpt lat="50.37647" lon="4.3266">
        <ele>183.4</ele>
        <time>2024-06-25T10:01:57Z</time>
      </trkpt>
      <trkpt lat="50.37651" lon="4.32642">
        <ele>183</ele>
        <time>2024-06-25T10:02:00Z</time>
      </trkpt>
      <trkpt lat="50.37652" lon="4.3263">
        <ele>182.4</ele>
        <time>2024-06-25T10:02:02Z</time>
      </trkpt>
      <trkpt lat="50.37654" lon="4.32611">
        <ele>181.8</ele>
        <time>2024-06-25T10:02:05Z</time>
      </trkpt>
      <trkpt lat="50.37653" lon="4.32604">
        <ele>181.6</ele>
        <time>2024-06-25T10:02:06Z</time>
      </trkpt>
      <trkpt lat="50.37652" lon="4.32597">
        <ele>181.6</ele>
        <time>2024-06-25T10:02:07Z</time>
      </trkpt>
      <trkpt lat="50.37653" lon="4.32584">
        <ele>181.2</ele>
        <time>2024-06-25T10:02:09Z</time>
      </trkpt>
      <trkpt lat="50.37655" lon="4.32571">
        <ele>181.2</ele>
        <time>2024-06-25T10:02:11Z</time>
      </trkpt>
      <trkpt lat="50.37657" lon="4.32557">
        <ele>181.2</ele>
        <time>2024-06-25T10:02:13Z</time>
      </trkpt>
      <trkpt lat="50.37658" lon="4.32543">
        <ele>181.2</ele>
        <time>2024-06-25T10:02:15Z</time>
      </trkpt>
      <trkpt lat="50.37659" lon="4.32514">
        <ele>181.4</ele>
        <time>2024-06-25T10:02:19Z</time>
      </trkpt>
      <trkpt lat="50.37661" lon="4.32501">
        <ele>181.4</ele>
        <time>2024-06-25T10:02:21Z</time>
      </trkpt>
      <trkpt lat="50.37662" lon="4.32481">
        <ele>181.6</ele>
        <time>2024-06-25T10:02:24Z</time>
      </trkpt>
      <trkpt lat="50.37662" lon="4.32474">
        <ele>181.4</ele>
        <time>2024-06-25T10:02:25Z</time>
      </trkpt>
      <trkpt lat="50.37663" lon="4.32467">
        <ele>181.4</ele>
        <time>2024-06-25T10:02:26Z</time>
      </trkpt>
      <trkpt lat="50.37664" lon="4.32452">
        <ele>180.2</ele>
        <time>2024-06-25T10:02:28Z</time>
      </trkpt>
      <trkpt lat="50.37667" lon="4.3242">
        <ele>180.6</ele>
        <time>2024-06-25T10:02:32Z</time>
      </trkpt>
      <trkpt lat="50.37667" lon="4.32413">
        <ele>180.6</ele>
        <time>2024-06-25T10:02:33Z</time>
      </trkpt>
      <trkpt lat="50.37667" lon="4.32406">
        <ele>180.2</ele>
        <time>2024-06-25T10:02:34Z</time>
      </trkpt>
      <trkpt lat="50.37669" lon="4.32377">
        <ele>180.8</ele>
        <time>2024-06-25T10:02:38Z</time>
      </trkpt>
      <trkpt lat="50.37676" lon="4.32341">
        <ele>180.4</ele>
        <time>2024-06-25T10:02:44Z</time>
      </trkpt>
      <trkpt lat="50.37688" lon="4.32311">
        <ele>180.4</ele>
        <time>2024-06-25T10:02:50Z</time>
      </trkpt>
      <trkpt lat="50.37698" lon="4.32284">
        <ele>180.2</ele>
        <time>2024-06-25T10:02:55Z</time>
      </trkpt>
      <trkpt lat="50.377" lon="4.32278">
        <ele>180.2</ele>
        <time>2024-06-25T10:02:56Z</time>
      </trkpt>
      <trkpt lat="50.37705" lon="4.32259">
        <ele>180.2</ele>
        <time>2024-06-25T10:02:59Z</time>
      </trkpt>
      <trkpt lat="50.37712" lon="4.32241">
        <ele>180.2</ele>
        <time>2024-06-25T10:03:02Z</time>
      </trkpt>
      <trkpt lat="50.37723" lon="4.32213">
        <ele>180.2</ele>
        <time>2024-06-25T10:03:08Z</time>
      </trkpt>
      <trkpt lat="50.37735" lon="4.32181">
        <ele>180.4</ele>
        <time>2024-06-25T10:03:14Z</time>
      </trkpt>
      <trkpt lat="50.37743" lon="4.32157">
        <ele>180.4</ele>
        <time>2024-06-25T10:03:19Z</time>
      </trkpt>
      <trkpt lat="50.37756" lon="4.32123">
        <ele>180.8</ele>
        <time>2024-06-25T10:03:26Z</time>
      </trkpt>
      <trkpt lat="50.37767" lon="4.321">
        <ele>181</ele>
        <time>2024-06-25T10:03:32Z</time>
      </trkpt>
      <trkpt lat="50.37768" lon="4.32096">
        <ele>181</ele>
        <time>2024-06-25T10:03:33Z</time>
      </trkpt>
      <trkpt lat="50.37765" lon="4.32092">
        <ele>181</ele>
        <time>2024-06-25T10:03:35Z</time>
      </trkpt>
      <trkpt lat="50.37763" lon="4.32092">
        <ele>181</ele>
        <time>2024-06-25T10:03:36Z</time>
      </trkpt>
      <trkpt lat="50.37754" lon="4.3209">
        <ele>181</ele>
        <time>2024-06-25T10:03:39Z</time>
      </trkpt>
      <trkpt lat="50.37739" lon="4.32083">
        <ele>181.2</ele>
        <time>2024-06-25T10:03:43Z</time>
      </trkpt>
      <trkpt lat="50.3772" lon="4.3207">
        <ele>180.6</ele>
        <time>2024-06-25T10:03:48Z</time>
      </trkpt>
      <trkpt lat="50.37716" lon="4.32067">
        <ele>180.6</ele>
        <time>2024-06-25T10:03:49Z</time>
      </trkpt>
      <trkpt lat="50.37707" lon="4.3206">
        <ele>180.4</ele>
        <time>2024-06-25T10:03:51Z</time>
      </trkpt>
      <trkpt lat="50.37704" lon="4.32055">
        <ele>180.4</ele>
        <time>2024-06-25T10:03:52Z</time>
      </trkpt>
      <trkpt lat="50.377" lon="4.32041">
        <ele>180.4</ele>
        <time>2024-06-25T10:03:55Z</time>
      </trkpt>
      <trkpt lat="50.37699" lon="4.32027">
        <ele>180.6</ele>
        <time>2024-06-25T10:03:58Z</time>
      </trkpt>
      <trkpt lat="50.37696" lon="4.32012">
        <ele>180.6</ele>
        <time>2024-06-25T10:04:00Z</time>
      </trkpt>
      <trkpt lat="50.37693" lon="4.31999">
        <ele>180.6</ele>
        <time>2024-06-25T10:04:02Z</time>
      </trkpt>
      <trkpt lat="50.37682" lon="4.31972">
        <ele>181.2</ele>
        <time>2024-06-25T10:04:07Z</time>
      </trkpt>
      <trkpt lat="50.37681" lon="4.31968">
        <ele>181.4</ele>
        <time>2024-06-25T10:04:08Z</time>
      </trkpt>
      <trkpt lat="50.37675" lon="4.3195">
        <ele>181.8</ele>
        <time>2024-06-25T10:04:11Z</time>
      </trkpt>
      <trkpt lat="50.37672" lon="4.31937">
        <ele>182.2</ele>
        <time>2024-06-25T10:04:13Z</time>
      </trkpt>
      <trkpt lat="50.37669" lon="4.31923">
        <ele>182.2</ele>
        <time>2024-06-25T10:04:15Z</time>
      </trkpt>
      <trkpt lat="50.37661" lon="4.31897">
        <ele>182.6</ele>
        <time>2024-06-25T10:04:19Z</time>
      </trkpt>
      <trkpt lat="50.37659" lon="4.31891">
        <ele>182.6</ele>
        <time>2024-06-25T10:04:20Z</time>
      </trkpt>
      <trkpt lat="50.3765" lon="4.31865">
        <ele>182.8</ele>
        <time>2024-06-25T10:04:24Z</time>
      </trkpt>
      <trkpt lat="50.37644" lon="4.31836">
        <ele>183.4</ele>
        <time>2024-06-25T10:04:29Z</time>
      </trkpt>
      <trkpt lat="50.37639" lon="4.31819">
        <ele>183.8</ele>
        <time>2024-06-25T10:04:32Z</time>
      </trkpt>
      <trkpt lat="50.37633" lon="4.31796">
        <ele>184.2</ele>
        <time>2024-06-25T10:04:36Z</time>
      </trkpt>
      <trkpt lat="50.37626" lon="4.31771">
        <ele>184.6</ele>
        <time>2024-06-25T10:04:40Z</time>
      </trkpt>
      <trkpt lat="50.37619" lon="4.31749">
        <ele>185.4</ele>
        <time>2024-06-25T10:04:45Z</time>
      </trkpt>
      <trkpt lat="50.37615" lon="4.31743">
        <ele>185.8</ele>
        <time>2024-06-25T10:04:48Z</time>
      </trkpt>
      <trkpt lat="50.37613" lon="4.31739">
        <ele>186</ele>
        <time>2024-06-25T10:04:50Z</time>
      </trkpt>
      <trkpt lat="50.37609" lon="4.31736">
        <ele>186</ele>
        <time>2024-06-25T10:04:52Z</time>
      </trkpt>
      <trkpt lat="50.37608" lon="4.31734">
        <ele>186</ele>
        <time>2024-06-25T10:04:53Z</time>
      </trkpt>
      <trkpt lat="50.37603" lon="4.31733">
        <ele>185.8</ele>
        <time>2024-06-25T10:04:55Z</time>
      </trkpt>
      <trkpt lat="50.37593" lon="4.31735">
        <ele>185.6</ele>
        <time>2024-06-25T10:04:58Z</time>
      </trkpt>
      <trkpt lat="50.37587" lon="4.31738">
        <ele>185.4</ele>
        <time>2024-06-25T10:05:01Z</time>
      </trkpt>
      <trkpt lat="50.37582" lon="4.31738">
        <ele>186</ele>
        <time>2024-06-25T10:05:04Z</time>
      </trkpt>
      <trkpt lat="50.37571" lon="4.31739">
        <ele>184.8</ele>
        <time>2024-06-25T10:05:07Z</time>
      </trkpt>
      <trkpt lat="50.37561" lon="4.31738">
        <ele>185</ele>
        <time>2024-06-25T10:05:10Z</time>
      </trkpt>
      <trkpt lat="50.37554" lon="4.31739">
        <ele>184.2</ele>
        <time>2024-06-25T10:05:14Z</time>
      </trkpt>
      <trkpt lat="50.37547" lon="4.31743">
        <ele>183.2</ele>
        <time>2024-06-25T10:05:19Z</time>
      </trkpt>
      <trkpt lat="50.37542" lon="4.31742">
        <ele>182.8</ele>
        <time>2024-06-25T10:05:22Z</time>
      </trkpt>
      <trkpt lat="50.3754" lon="4.31739">
        <ele>182.6</ele>
        <time>2024-06-25T10:05:23Z</time>
      </trkpt>
      <trkpt lat="50.37536" lon="4.31729">
        <ele>182.2</ele>
        <time>2024-06-25T10:05:26Z</time>
      </trkpt>
      <trkpt lat="50.37535" lon="4.31725">
        <ele>181.8</ele>
        <time>2024-06-25T10:05:30Z</time>
      </trkpt>
      <trkpt lat="50.37535" lon="4.31723">
        <ele>181.4</ele>
        <time>2024-06-25T10:05:36Z</time>
      </trkpt>
      <trkpt lat="50.37534" lon="4.31719">
        <ele>180.6</ele>
        <time>2024-06-25T10:05:43Z</time>
      </trkpt>
      <trkpt lat="50.37532" lon="4.31716">
        <ele>180.6</ele>
        <time>2024-06-25T10:05:44Z</time>
      </trkpt>
      <trkpt lat="50.37528" lon="4.3171">
        <ele>180.2</ele>
        <time>2024-06-25T10:05:46Z</time>
      </trkpt>
      <trkpt lat="50.37527" lon="4.31704">
        <ele>180.2</ele>
        <time>2024-06-25T10:05:48Z</time>
      </trkpt>
      <trkpt lat="50.37525" lon="4.31698">
        <ele>180.2</ele>
        <time>2024-06-25T10:05:50Z</time>
      </trkpt>
      <trkpt lat="50.37517" lon="4.31674">
        <ele>180.2</ele>
        <time>2024-06-25T10:05:55Z</time>
      </trkpt>
      <trkpt lat="50.37512" lon="4.3166">
        <ele>180.4</ele>
        <time>2024-06-25T10:05:59Z</time>
      </trkpt>
      <trkpt lat="50.37513" lon="4.3166">
        <ele>180</ele>
        <time>2024-06-25T10:06:08Z</time>
      </trkpt>
      <trkpt lat="50.37513" lon="4.3166">
        <ele>179.8</ele>
        <time>2024-06-25T10:06:26Z</time>
      </trkpt>
      <trkpt lat="50.37512" lon="4.31657">
        <ele>179.6</ele>
        <time>2024-06-25T10:06:34Z</time>
      </trkpt>
      <trkpt lat="50.3751" lon="4.31655">
        <ele>179.6</ele>
        <time>2024-06-25T10:06:35Z</time>
      </trkpt>
      <trkpt lat="50.37506" lon="4.31649">
        <ele>179.6</ele>
        <time>2024-06-25T10:06:37Z</time>
      </trkpt>
      <trkpt lat="50.37505" lon="4.31646">
        <ele>179.6</ele>
        <time>2024-06-25T10:06:38Z</time>
      </trkpt>
      <trkpt lat="50.37499" lon="4.31636">
        <ele>179.4</ele>
        <time>2024-06-25T10:06:42Z</time>
      </trkpt>
      <trkpt lat="50.37496" lon="4.31628">
        <ele>179.8</ele>
        <time>2024-06-25T10:06:44Z</time>
      </trkpt>
      <trkpt lat="50.37495" lon="4.31625">
        <ele>179.8</ele>
        <time>2024-06-25T10:06:45Z</time>
      </trkpt>
      <trkpt lat="50.37493" lon="4.31613">
        <ele>180.2</ele>
        <time>2024-06-25T10:06:48Z</time>
      </trkpt>
      <trkpt lat="50.37489" lon="4.31598">
        <ele>180.2</ele>
        <time>2024-06-25T10:06:51Z</time>
      </trkpt>
      <trkpt lat="50.37486" lon="4.31594">
        <ele>180.4</ele>
        <time>2024-06-25T10:06:52Z</time>
      </trkpt>
      <trkpt lat="50.37475" lon="4.31575">
        <ele>180.6</ele>
        <time>2024-06-25T10:06:56Z</time>
      </trkpt>
      <trkpt lat="50.37469" lon="4.31564">
        <ele>180.6</ele>
        <time>2024-06-25T10:06:58Z</time>
      </trkpt>
      <trkpt lat="50.37465" lon="4.31553">
        <ele>180.8</ele>
        <time>2024-06-25T10:07:00Z</time>
      </trkpt>
      <trkpt lat="50.37464" lon="4.31541">
        <ele>180.8</ele>
        <time>2024-06-25T10:07:02Z</time>
      </trkpt>
      <trkpt lat="50.37463" lon="4.31536">
        <ele>181</ele>
        <time>2024-06-25T10:07:03Z</time>
      </trkpt>
      <trkpt lat="50.37455" lon="4.3151">
        <ele>181</ele>
        <time>2024-06-25T10:07:07Z</time>
      </trkpt>
      <trkpt lat="50.37453" lon="4.31505">
        <ele>181</ele>
        <time>2024-06-25T10:07:08Z</time>
      </trkpt>
      <trkpt lat="50.37453" lon="4.31497">
        <ele>181</ele>
        <time>2024-06-25T10:07:10Z</time>
      </trkpt>
      <trkpt lat="50.3745" lon="4.31478">
        <ele>181.2</ele>
        <time>2024-06-25T10:07:14Z</time>
      </trkpt>
      <trkpt lat="50.37449" lon="4.31472">
        <ele>181.2</ele>
        <time>2024-06-25T10:07:15Z</time>
      </trkpt>
      <trkpt lat="50.37444" lon="4.31453">
        <ele>181.2</ele>
        <time>2024-06-25T10:07:18Z</time>
      </trkpt>
      <trkpt lat="50.37436" lon="4.31445">
        <ele>181.2</ele>
        <time>2024-06-25T10:07:19Z</time>
      </trkpt>
      <trkpt lat="50.37424" lon="4.31424">
        <ele>181</ele>
        <time>2024-06-25T10:07:23Z</time>
      </trkpt>
      <trkpt lat="50.37423" lon="4.31418">
        <ele>181</ele>
        <time>2024-06-25T10:07:24Z</time>
      </trkpt>
      <trkpt lat="50.37423" lon="4.31407">
        <ele>181.4</ele>
        <time>2024-06-25T10:07:26Z</time>
      </trkpt>
      <trkpt lat="50.37422" lon="4.31389">
        <ele>181.2</ele>
        <time>2024-06-25T10:07:29Z</time>
      </trkpt>
      <trkpt lat="50.3742" lon="4.31382">
        <ele>181</ele>
        <time>2024-06-25T10:07:30Z</time>
      </trkpt>
      <trkpt lat="50.37417" lon="4.31377">
        <ele>180.8</ele>
        <time>2024-06-25T10:07:31Z</time>
      </trkpt>
      <trkpt lat="50.37414" lon="4.31367">
        <ele>180.8</ele>
        <time>2024-06-25T10:07:33Z</time>
      </trkpt>
      <trkpt lat="50.37413" lon="4.31356">
        <ele>180.8</ele>
        <time>2024-06-25T10:07:35Z</time>
      </trkpt>
      <trkpt lat="50.3741" lon="4.3135">
        <ele>181</ele>
        <time>2024-06-25T10:07:36Z</time>
      </trkpt>
      <trkpt lat="50.37408" lon="4.31339">
        <ele>181</ele>
        <time>2024-06-25T10:07:38Z</time>
      </trkpt>
      <trkpt lat="50.37407" lon="4.31328">
        <ele>181</ele>
        <time>2024-06-25T10:07:40Z</time>
      </trkpt>
      <trkpt lat="50.37402" lon="4.31307">
        <ele>181.4</ele>
        <time>2024-06-25T10:07:44Z</time>
      </trkpt>
      <trkpt lat="50.37396" lon="4.3128">
        <ele>182</ele>
        <time>2024-06-25T10:07:49Z</time>
      </trkpt>
      <trkpt lat="50.37395" lon="4.31274">
        <ele>182.2</ele>
        <time>2024-06-25T10:07:50Z</time>
      </trkpt>
      <trkpt lat="50.37395" lon="4.31261">
        <ele>182.2</ele>
        <time>2024-06-25T10:07:52Z</time>
      </trkpt>
      <trkpt lat="50.37397" lon="4.3123">
        <ele>182.2</ele>
        <time>2024-06-25T10:07:57Z</time>
      </trkpt>
      <trkpt lat="50.374" lon="4.31213">
        <ele>182.2</ele>
        <time>2024-06-25T10:08:00Z</time>
      </trkpt>
      <trkpt lat="50.37399" lon="4.31207">
        <ele>182</ele>
        <time>2024-06-25T10:08:01Z</time>
      </trkpt>
      <trkpt lat="50.3739" lon="4.31187">
        <ele>182.2</ele>
        <time>2024-06-25T10:08:05Z</time>
      </trkpt>
      <trkpt lat="50.37389" lon="4.31183">
        <ele>182.4</ele>
        <time>2024-06-25T10:08:06Z</time>
      </trkpt>
      <trkpt lat="50.37385" lon="4.31172">
        <ele>182.4</ele>
        <time>2024-06-25T10:08:08Z</time>
      </trkpt>
      <trkpt lat="50.37383" lon="4.31148">
        <ele>183</ele>
        <time>2024-06-25T10:08:12Z</time>
      </trkpt>
      <trkpt lat="50.37382" lon="4.31119">
        <ele>181.4</ele>
        <time>2024-06-25T10:08:17Z</time>
      </trkpt>
      <trkpt lat="50.37384" lon="4.31094">
        <ele>181.8</ele>
        <time>2024-06-25T10:08:23Z</time>
      </trkpt>
      <trkpt lat="50.37374" lon="4.31058">
        <ele>181.6</ele>
        <time>2024-06-25T10:08:28Z</time>
      </trkpt>
      <trkpt lat="50.37369" lon="4.31032">
        <ele>181.6</ele>
        <time>2024-06-25T10:08:32Z</time>
      </trkpt>
      <trkpt lat="50.37366" lon="4.31015">
        <ele>181.4</ele>
        <time>2024-06-25T10:08:35Z</time>
      </trkpt>
      <trkpt lat="50.37365" lon="4.3101">
        <ele>181.4</ele>
        <time>2024-06-25T10:08:36Z</time>
      </trkpt>
      <trkpt lat="50.37363" lon="4.30989">
        <ele>182.2</ele>
        <time>2024-06-25T10:08:40Z</time>
      </trkpt>
      <trkpt lat="50.37363" lon="4.30984">
        <ele>182.4</ele>
        <time>2024-06-25T10:08:41Z</time>
      </trkpt>
      <trkpt lat="50.37363" lon="4.30972">
        <ele>182.6</ele>
        <time>2024-06-25T10:08:43Z</time>
      </trkpt>
      <trkpt lat="50.37362" lon="4.3096">
        <ele>183</ele>
        <time>2024-06-25T10:08:45Z</time>
      </trkpt>
      <trkpt lat="50.37363" lon="4.30947">
        <ele>183</ele>
        <time>2024-06-25T10:08:47Z</time>
      </trkpt>
      <trkpt lat="50.37359" lon="4.30922">
        <ele>183.2</ele>
        <time>2024-06-25T10:08:51Z</time>
      </trkpt>
      <trkpt lat="50.37355" lon="4.30902">
        <ele>183.2</ele>
        <time>2024-06-25T10:08:54Z</time>
      </trkpt>
      <trkpt lat="50.37353" lon="4.30888">
        <ele>183.2</ele>
        <time>2024-06-25T10:08:56Z</time>
      </trkpt>
      <trkpt lat="50.37353" lon="4.30882">
        <ele>183.2</ele>
        <time>2024-06-25T10:08:57Z</time>
      </trkpt>
      <trkpt lat="50.37352" lon="4.3087">
        <ele>183.2</ele>
        <time>2024-06-25T10:08:59Z</time>
      </trkpt>
      <trkpt lat="50.37346" lon="4.30845">
        <ele>183</ele>
        <time>2024-06-25T10:09:03Z</time>
      </trkpt>
      <trkpt lat="50.37341" lon="4.30815">
        <ele>183.2</ele>
        <time>2024-06-25T10:09:07Z</time>
      </trkpt>
      <trkpt lat="50.3734" lon="4.30808">
        <ele>183.2</ele>
        <time>2024-06-25T10:09:08Z</time>
      </trkpt>
      <trkpt lat="50.37336" lon="4.30788">
        <ele>183.2</ele>
        <time>2024-06-25T10:09:11Z</time>
      </trkpt>
      <trkpt lat="50.37336" lon="4.30775">
        <ele>183.2</ele>
        <time>2024-06-25T10:09:13Z</time>
      </trkpt>
      <trkpt lat="50.37335" lon="4.30769">
        <ele>183.2</ele>
        <time>2024-06-25T10:09:14Z</time>
      </trkpt>
      <trkpt lat="50.37335" lon="4.30761">
        <ele>183.4</ele>
        <time>2024-06-25T10:09:15Z</time>
      </trkpt>
      <trkpt lat="50.37336" lon="4.3074">
        <ele>183.4</ele>
        <time>2024-06-25T10:09:18Z</time>
      </trkpt>
      <trkpt lat="50.37338" lon="4.30724">
        <ele>183.4</ele>
        <time>2024-06-25T10:09:20Z</time>
      </trkpt>
      <trkpt lat="50.37339" lon="4.30715">
        <ele>183.6</ele>
        <time>2024-06-25T10:09:21Z</time>
      </trkpt>
      <trkpt lat="50.37341" lon="4.307">
        <ele>183.6</ele>
        <time>2024-06-25T10:09:23Z</time>
      </trkpt>
      <trkpt lat="50.37343" lon="4.30693">
        <ele>183.6</ele>
        <time>2024-06-25T10:09:24Z</time>
      </trkpt>
      <trkpt lat="50.37344" lon="4.30686">
        <ele>183.6</ele>
        <time>2024-06-25T10:09:25Z</time>
      </trkpt>
      <trkpt lat="50.37346" lon="4.30671">
        <ele>183.6</ele>
        <time>2024-06-25T10:09:27Z</time>
      </trkpt>
      <trkpt lat="50.37347" lon="4.30655">
        <ele>183.6</ele>
        <time>2024-06-25T10:09:29Z</time>
      </trkpt>
      <trkpt lat="50.37349" lon="4.30641">
        <ele>183.6</ele>
        <time>2024-06-25T10:09:31Z</time>
      </trkpt>
      <trkpt lat="50.3735" lon="4.30635">
        <ele>183.6</ele>
        <time>2024-06-25T10:09:32Z</time>
      </trkpt>
      <trkpt lat="50.37352" lon="4.3063">
        <ele>183.6</ele>
        <time>2024-06-25T10:09:33Z</time>
      </trkpt>
      <trkpt lat="50.37355" lon="4.30616">
        <ele>183.8</ele>
        <time>2024-06-25T10:09:35Z</time>
      </trkpt>
      <trkpt lat="50.37356" lon="4.306">
        <ele>183.8</ele>
        <time>2024-06-25T10:09:37Z</time>
      </trkpt>
      <trkpt lat="50.37355" lon="4.30584">
        <ele>183.8</ele>
        <time>2024-06-25T10:09:39Z</time>
      </trkpt>
      <trkpt lat="50.37355" lon="4.30577">
        <ele>184</ele>
        <time>2024-06-25T10:09:40Z</time>
      </trkpt>
      <trkpt lat="50.37354" lon="4.30541">
        <ele>184.2</ele>
        <time>2024-06-25T10:09:45Z</time>
      </trkpt>
      <trkpt lat="50.37353" lon="4.30527">
        <ele>184.4</ele>
        <time>2024-06-25T10:09:47Z</time>
      </trkpt>
      <trkpt lat="50.3735" lon="4.30512">
        <ele>184.4</ele>
        <time>2024-06-25T10:09:49Z</time>
      </trkpt>
      <trkpt lat="50.37344" lon="4.30478">
        <ele>184.6</ele>
        <time>2024-06-25T10:09:54Z</time>
      </trkpt>
      <trkpt lat="50.37343" lon="4.30451">
        <ele>185</ele>
        <time>2024-06-25T10:09:59Z</time>
      </trkpt>
      <trkpt lat="50.37342" lon="4.30445">
        <ele>185</ele>
        <time>2024-06-25T10:10:00Z</time>
      </trkpt>
      <trkpt lat="50.37336" lon="4.30432">
        <ele>185.2</ele>
        <time>2024-06-25T10:10:02Z</time>
      </trkpt>
      <trkpt lat="50.37328" lon="4.30419">
        <ele>185.4</ele>
        <time>2024-06-25T10:10:04Z</time>
      </trkpt>
      <trkpt lat="50.37323" lon="4.30413">
        <ele>185.2</ele>
        <time>2024-06-25T10:10:05Z</time>
      </trkpt>
      <trkpt lat="50.37312" lon="4.30392">
        <ele>185.2</ele>
        <time>2024-06-25T10:10:09Z</time>
      </trkpt>
      <trkpt lat="50.37304" lon="4.30373">
        <ele>185.6</ele>
        <time>2024-06-25T10:10:13Z</time>
      </trkpt>
      <trkpt lat="50.37297" lon="4.30358">
        <ele>185.8</ele>
        <time>2024-06-25T10:10:16Z</time>
      </trkpt>
      <trkpt lat="50.37294" lon="4.30352">
        <ele>186</ele>
        <time>2024-06-25T10:10:17Z</time>
      </trkpt>
      <trkpt lat="50.37287" lon="4.30339">
        <ele>186</ele>
        <time>2024-06-25T10:10:19Z</time>
      </trkpt>
      <trkpt lat="50.3728" lon="4.30327">
        <ele>186.2</ele>
        <time>2024-06-25T10:10:21Z</time>
      </trkpt>
      <trkpt lat="50.37275" lon="4.30319">
        <ele>186.2</ele>
        <time>2024-06-25T10:10:22Z</time>
      </trkpt>
      <trkpt lat="50.37272" lon="4.30312">
        <ele>186.2</ele>
        <time>2024-06-25T10:10:23Z</time>
      </trkpt>
      <trkpt lat="50.37263" lon="4.30284">
        <ele>186.4</ele>
        <time>2024-06-25T10:10:27Z</time>
      </trkpt>
      <trkpt lat="50.37259" lon="4.30268">
        <ele>186.4</ele>
        <time>2024-06-25T10:10:30Z</time>
      </trkpt>
      <trkpt lat="50.37252" lon="4.30244">
        <ele>186.8</ele>
        <time>2024-06-25T10:10:35Z</time>
      </trkpt>
      <trkpt lat="50.37243" lon="4.30229">
        <ele>187</ele>
        <time>2024-06-25T10:10:38Z</time>
      </trkpt>
      <trkpt lat="50.37238" lon="4.30225">
        <ele>187</ele>
        <time>2024-06-25T10:10:39Z</time>
      </trkpt>
      <trkpt lat="50.37226" lon="4.30218">
        <ele>187.2</ele>
        <time>2024-06-25T10:10:41Z</time>
      </trkpt>
      <trkpt lat="50.37214" lon="4.3021">
        <ele>187</ele>
        <time>2024-06-25T10:10:43Z</time>
      </trkpt>
      <trkpt lat="50.3721" lon="4.30205">
        <ele>187</ele>
        <time>2024-06-25T10:10:44Z</time>
      </trkpt>
      <trkpt lat="50.372" lon="4.30191">
        <ele>187</ele>
        <time>2024-06-25T10:10:47Z</time>
      </trkpt>
      <trkpt lat="50.37197" lon="4.30186">
        <ele>187</ele>
        <time>2024-06-25T10:10:48Z</time>
      </trkpt>
      <trkpt lat="50.3719" lon="4.3017">
        <ele>187</ele>
        <time>2024-06-25T10:10:51Z</time>
      </trkpt>
      <trkpt lat="50.37182" lon="4.30149">
        <ele>187.4</ele>
        <time>2024-06-25T10:10:55Z</time>
      </trkpt>
      <trkpt lat="50.37176" lon="4.30138">
        <ele>187.4</ele>
        <time>2024-06-25T10:10:58Z</time>
      </trkpt>
      <trkpt lat="50.37174" lon="4.30135">
        <ele>187.6</ele>
        <time>2024-06-25T10:10:59Z</time>
      </trkpt>
      <trkpt lat="50.37167" lon="4.30123">
        <ele>187.6</ele>
        <time>2024-06-25T10:11:02Z</time>
      </trkpt>
      <trkpt lat="50.3716" lon="4.30112">
        <ele>187.6</ele>
        <time>2024-06-25T10:11:05Z</time>
      </trkpt>
      <trkpt lat="50.37157" lon="4.30107">
        <ele>187.8</ele>
        <time>2024-06-25T10:11:06Z</time>
      </trkpt>
      <trkpt lat="50.37153" lon="4.30101">
        <ele>187.8</ele>
        <time>2024-06-25T10:11:07Z</time>
      </trkpt>
      <trkpt lat="50.37149" lon="4.30092">
        <ele>187.8</ele>
        <time>2024-06-25T10:11:09Z</time>
      </trkpt>
      <trkpt lat="50.37145" lon="4.30083">
        <ele>188</ele>
        <time>2024-06-25T10:11:12Z</time>
      </trkpt>
      <trkpt lat="50.37141" lon="4.30078">
        <ele>188</ele>
        <time>2024-06-25T10:11:16Z</time>
      </trkpt>
      <trkpt lat="50.37139" lon="4.30076">
        <ele>188.2</ele>
        <time>2024-06-25T10:11:22Z</time>
      </trkpt>
      <trkpt lat="50.3713" lon="4.30066">
        <ele>188.4</ele>
        <time>2024-06-25T10:11:26Z</time>
      </trkpt>
      <trkpt lat="50.37127" lon="4.30063">
        <ele>188.6</ele>
        <time>2024-06-25T10:11:27Z</time>
      </trkpt>
      <trkpt lat="50.37124" lon="4.30057">
        <ele>188.8</ele>
        <time>2024-06-25T10:11:29Z</time>
      </trkpt>
      <trkpt lat="50.37121" lon="4.3005">
        <ele>188.8</ele>
        <time>2024-06-25T10:11:31Z</time>
      </trkpt>
      <trkpt lat="50.37119" lon="4.30047">
        <ele>189</ele>
        <time>2024-06-25T10:11:32Z</time>
      </trkpt>
      <trkpt lat="50.37113" lon="4.30037">
        <ele>189.6</ele>
        <time>2024-06-25T10:11:36Z</time>
      </trkpt>
      <trkpt lat="50.37111" lon="4.30031">
        <ele>189.8</ele>
        <time>2024-06-25T10:11:38Z</time>
      </trkpt>
      <trkpt lat="50.37105" lon="4.30024">
        <ele>190.2</ele>
        <time>2024-06-25T10:11:40Z</time>
      </trkpt>
      <trkpt lat="50.37093" lon="4.30004">
        <ele>190.8</ele>
        <time>2024-06-25T10:11:45Z</time>
      </trkpt>
      <trkpt lat="50.37082" lon="4.29989">
        <ele>191</ele>
        <time>2024-06-25T10:11:50Z</time>
      </trkpt>
      <trkpt lat="50.37071" lon="4.29967">
        <ele>191.2</ele>
        <time>2024-06-25T10:11:55Z</time>
      </trkpt>
      <trkpt lat="50.37059" lon="4.2995">
        <ele>191.4</ele>
        <time>2024-06-25T10:11:59Z</time>
      </trkpt>
      <trkpt lat="50.37048" lon="4.29935">
        <ele>191.4</ele>
        <time>2024-06-25T10:12:04Z</time>
      </trkpt>
      <trkpt lat="50.37044" lon="4.29928">
        <ele>191.4</ele>
        <time>2024-06-25T10:12:06Z</time>
      </trkpt>
      <trkpt lat="50.37041" lon="4.29924">
        <ele>191.4</ele>
        <time>2024-06-25T10:12:07Z</time>
      </trkpt>
      <trkpt lat="50.3704" lon="4.2992">
        <ele>191.6</ele>
        <time>2024-06-25T10:12:08Z</time>
      </trkpt>
      <trkpt lat="50.37035" lon="4.29909">
        <ele>191.6</ele>
        <time>2024-06-25T10:12:11Z</time>
      </trkpt>
      <trkpt lat="50.37028" lon="4.29901">
        <ele>191.8</ele>
        <time>2024-06-25T10:12:15Z</time>
      </trkpt>
      <trkpt lat="50.37027" lon="4.29899">
        <ele>191.4</ele>
        <time>2024-06-25T10:12:16Z</time>
      </trkpt>
      <trkpt lat="50.37024" lon="4.29896">
        <ele>191.6</ele>
        <time>2024-06-25T10:12:20Z</time>
      </trkpt>
      <trkpt lat="50.37024" lon="4.29896">
        <ele>191.8</ele>
        <time>2024-06-25T10:12:36Z</time>
      </trkpt>
      <trkpt lat="50.37024" lon="4.29896">
        <ele>192</ele>
        <time>2024-06-25T10:12:37Z</time>
      </trkpt>
      <trkpt lat="50.37017" lon="4.29886">
        <ele>192.6</ele>
        <time>2024-06-25T10:12:41Z</time>
      </trkpt>
      <trkpt lat="50.37011" lon="4.29872">
        <ele>193</ele>
        <time>2024-06-25T10:12:45Z</time>
      </trkpt>
      <trkpt lat="50.37002" lon="4.29853">
        <ele>192.8</ele>
        <time>2024-06-25T10:12:50Z</time>
      </trkpt>
      <trkpt lat="50.37004" lon="4.29841">
        <ele>193</ele>
        <time>2024-06-25T10:12:53Z</time>
      </trkpt>
      <trkpt lat="50.37007" lon="4.29838">
        <ele>193</ele>
        <time>2024-06-25T10:12:54Z</time>
      </trkpt>
      <trkpt lat="50.37019" lon="4.29824">
        <ele>192.6</ele>
        <time>2024-06-25T10:12:58Z</time>
      </trkpt>
      <trkpt lat="50.3702" lon="4.2982">
        <ele>193.2</ele>
        <time>2024-06-25T10:12:59Z</time>
      </trkpt>
      <trkpt lat="50.37022" lon="4.29814">
        <ele>192.2</ele>
        <time>2024-06-25T10:13:01Z</time>
      </trkpt>
      <trkpt lat="50.37028" lon="4.29807">
        <ele>192</ele>
        <time>2024-06-25T10:13:05Z</time>
      </trkpt>
      <trkpt lat="50.37029" lon="4.29805">
        <ele>192</ele>
        <time>2024-06-25T10:13:06Z</time>
      </trkpt>
      <trkpt lat="50.37034" lon="4.29801">
        <ele>191.8</ele>
        <time>2024-06-25T10:13:09Z</time>
      </trkpt>
      <trkpt lat="50.37035" lon="4.29799">
        <ele>191.8</ele>
        <time>2024-06-25T10:13:10Z</time>
      </trkpt>
      <trkpt lat="50.37041" lon="4.29793">
        <ele>191.6</ele>
        <time>2024-06-25T10:13:13Z</time>
      </trkpt>
      <trkpt lat="50.37042" lon="4.29792">
        <ele>191.6</ele>
        <time>2024-06-25T10:13:17Z</time>
      </trkpt>
      <trkpt lat="50.37042" lon="4.29792">
        <ele>191.4</ele>
        <time>2024-06-25T10:13:22Z</time>
      </trkpt>
      <trkpt lat="50.37043" lon="4.29792">
        <ele>191.4</ele>
        <time>2024-06-25T10:13:23Z</time>
      </trkpt>
      <trkpt lat="50.37043" lon="4.29792">
        <ele>191.4</ele>
        <time>2024-06-25T10:13:30Z</time>
      </trkpt>
      <trkpt lat="50.37045" lon="4.29786">
        <ele>191.4</ele>
        <time>2024-06-25T10:13:35Z</time>
      </trkpt>
      <trkpt lat="50.37045" lon="4.29786">
        <ele>191.2</ele>
        <time>2024-06-25T10:13:43Z</time>
      </trkpt>
      <trkpt lat="50.37046" lon="4.29783">
        <ele>191.2</ele>
        <time>2024-06-25T10:13:49Z</time>
      </trkpt>
      <trkpt lat="50.37049" lon="4.29777">
        <ele>191.6</ele>
        <time>2024-06-25T10:13:51Z</time>
      </trkpt>
      <trkpt lat="50.37052" lon="4.29773">
        <ele>191.6</ele>
        <time>2024-06-25T10:13:55Z</time>
      </trkpt>
      <trkpt lat="50.37052" lon="4.29773">
        <ele>191.6</ele>
        <time>2024-06-25T10:14:07Z</time>
      </trkpt>
      <trkpt lat="50.37052" lon="4.29773">
        <ele>191.6</ele>
        <time>2024-06-25T10:14:14Z</time>
      </trkpt>
      <trkpt lat="50.37055" lon="4.2977">
        <ele>191.6</ele>
        <time>2024-06-25T10:14:16Z</time>
      </trkpt>
      <trkpt lat="50.37059" lon="4.29764">
        <ele>191.6</ele>
        <time>2024-06-25T10:14:18Z</time>
      </trkpt>
      <trkpt lat="50.37062" lon="4.29761">
        <ele>191.8</ele>
        <time>2024-06-25T10:14:19Z</time>
      </trkpt>
      <trkpt lat="50.3707" lon="4.29753">
        <ele>191.8</ele>
        <time>2024-06-25T10:14:22Z</time>
      </trkpt>
      <trkpt lat="50.37076" lon="4.29747">
        <ele>192</ele>
        <time>2024-06-25T10:14:25Z</time>
      </trkpt>
      <trkpt lat="50.3708" lon="4.29743">
        <ele>192</ele>
        <time>2024-06-25T10:14:27Z</time>
      </trkpt>
      <trkpt lat="50.37082" lon="4.29741">
        <ele>191.8</ele>
        <time>2024-06-25T10:14:28Z</time>
      </trkpt>
      <trkpt lat="50.37091" lon="4.29735">
        <ele>191.8</ele>
        <time>2024-06-25T10:14:33Z</time>
      </trkpt>
      <trkpt lat="50.37097" lon="4.29731">
        <ele>191.6</ele>
        <time>2024-06-25T10:14:36Z</time>
      </trkpt>
      <trkpt lat="50.37102" lon="4.29731">
        <ele>191.4</ele>
        <time>2024-06-25T10:14:38Z</time>
      </trkpt>
      <trkpt lat="50.37104" lon="4.29729">
        <ele>191.4</ele>
        <time>2024-06-25T10:14:39Z</time>
      </trkpt>
      <trkpt lat="50.37114" lon="4.29725">
        <ele>191.4</ele>
        <time>2024-06-25T10:14:43Z</time>
      </trkpt>
      <trkpt lat="50.37123" lon="4.29726">
        <ele>191</ele>
        <time>2024-06-25T10:14:47Z</time>
      </trkpt>
      <trkpt lat="50.37125" lon="4.29725">
        <ele>191</ele>
        <time>2024-06-25T10:14:48Z</time>
      </trkpt>
      <trkpt lat="50.37129" lon="4.29724">
        <ele>190.8</ele>
        <time>2024-06-25T10:14:50Z</time>
      </trkpt>
      <trkpt lat="50.37134" lon="4.29725">
        <ele>190.8</ele>
        <time>2024-06-25T10:14:52Z</time>
      </trkpt>
      <trkpt lat="50.37145" lon="4.2973">
        <ele>190.6</ele>
        <time>2024-06-25T10:14:57Z</time>
      </trkpt>
      <trkpt lat="50.37147" lon="4.29731">
        <ele>190.8</ele>
        <time>2024-06-25T10:15:03Z</time>
      </trkpt>
      <trkpt lat="50.37147" lon="4.29731">
        <ele>190.8</ele>
        <time>2024-06-25T10:15:06Z</time>
      </trkpt>
      <trkpt lat="50.37148" lon="4.29734">
        <ele>190.8</ele>
        <time>2024-06-25T10:15:08Z</time>
      </trkpt>
      <trkpt lat="50.37148" lon="4.29736">
        <ele>190.8</ele>
        <time>2024-06-25T10:15:12Z</time>
      </trkpt>
      <trkpt lat="50.37149" lon="4.29737">
        <ele>190.6</ele>
        <time>2024-06-25T10:15:18Z</time>
      </trkpt>
      <trkpt lat="50.37149" lon="4.29737">
        <ele>190.4</ele>
        <time>2024-06-25T10:15:26Z</time>
      </trkpt>
      <trkpt lat="50.37154" lon="4.29745">
        <ele>190.6</ele>
        <time>2024-06-25T10:15:32Z</time>
      </trkpt>
      <trkpt lat="50.37163" lon="4.29755">
        <ele>190.4</ele>
        <time>2024-06-25T10:15:37Z</time>
      </trkpt>
      <trkpt lat="50.37166" lon="4.29757">
        <ele>190.4</ele>
        <time>2024-06-25T10:15:40Z</time>
      </trkpt>
      <trkpt lat="50.37169" lon="4.29758">
        <ele>190.2</ele>
        <time>2024-06-25T10:15:43Z</time>
      </trkpt>
      <trkpt lat="50.37172" lon="4.29759">
        <ele>189.8</ele>
        <time>2024-06-25T10:15:49Z</time>
      </trkpt>
      <trkpt lat="50.37176" lon="4.29762">
        <ele>189.4</ele>
        <time>2024-06-25T10:15:53Z</time>
      </trkpt>
      <trkpt lat="50.37182" lon="4.29768">
        <ele>189.4</ele>
        <time>2024-06-25T10:15:59Z</time>
      </trkpt>
      <trkpt lat="50.37186" lon="4.29768">
        <ele>189</ele>
        <time>2024-06-25T10:16:05Z</time>
      </trkpt>
      <trkpt lat="50.37187" lon="4.29767">
        <ele>188.8</ele>
        <time>2024-06-25T10:16:10Z</time>
      </trkpt>
      <trkpt lat="50.37188" lon="4.29765">
        <ele>188.8</ele>
        <time>2024-06-25T10:16:12Z</time>
      </trkpt>
      <trkpt lat="50.37187" lon="4.29763">
        <ele>188.6</ele>
        <time>2024-06-25T10:16:15Z</time>
      </trkpt>
      <trkpt lat="50.37187" lon="4.29763">
        <ele>188.4</ele>
        <time>2024-06-25T10:16:22Z</time>
      </trkpt>
      <trkpt lat="50.37192" lon="4.29763">
        <ele>188</ele>
        <time>2024-06-25T10:16:27Z</time>
      </trkpt>
      <trkpt lat="50.37194" lon="4.29764">
        <ele>188</ele>
        <time>2024-06-25T10:16:28Z</time>
      </trkpt>
      <trkpt lat="50.37202" lon="4.29767">
        <ele>187.8</ele>
        <time>2024-06-25T10:16:33Z</time>
      </trkpt>
      <trkpt lat="50.37203" lon="4.29769">
        <ele>187.6</ele>
        <time>2024-06-25T10:16:39Z</time>
      </trkpt>
      <trkpt lat="50.37209" lon="4.29771">
        <ele>188</ele>
        <time>2024-06-25T10:16:44Z</time>
      </trkpt>
      <trkpt lat="50.37214" lon="4.29775">
        <ele>188</ele>
        <time>2024-06-25T10:16:48Z</time>
      </trkpt>
      <trkpt lat="50.37217" lon="4.29771">
        <ele>187.8</ele>
        <time>2024-06-25T10:16:53Z</time>
      </trkpt>
      <trkpt lat="50.37223" lon="4.29777">
        <ele>187.8</ele>
        <time>2024-06-25T10:16:58Z</time>
      </trkpt>
      <trkpt lat="50.3723" lon="4.29783">
        <ele>188</ele>
        <time>2024-06-25T10:17:04Z</time>
      </trkpt>
      <trkpt lat="50.37231" lon="4.29786">
        <ele>188.2</ele>
        <time>2024-06-25T10:17:06Z</time>
      </trkpt>
      <trkpt lat="50.37233" lon="4.29788">
        <ele>188.2</ele>
        <time>2024-06-25T10:17:09Z</time>
      </trkpt>
      <trkpt lat="50.37237" lon="4.29789">
        <ele>187.8</ele>
        <time>2024-06-25T10:17:13Z</time>
      </trkpt>
      <trkpt lat="50.37241" lon="4.29793">
        <ele>188</ele>
        <time>2024-06-25T10:17:19Z</time>
      </trkpt>
      <trkpt lat="50.37244" lon="4.29796">
        <ele>187.6</ele>
        <time>2024-06-25T10:17:25Z</time>
      </trkpt>
      <trkpt lat="50.37244" lon="4.29798">
        <ele>187.6</ele>
        <time>2024-06-25T10:17:31Z</time>
      </trkpt>
      <trkpt lat="50.37246" lon="4.29805">
        <ele>187.2</ele>
        <time>2024-06-25T10:17:36Z</time>
      </trkpt>
      <trkpt lat="50.37247" lon="4.29808">
        <ele>187</ele>
        <time>2024-06-25T10:17:44Z</time>
      </trkpt>
      <trkpt lat="50.37249" lon="4.29811">
        <ele>187.2</ele>
        <time>2024-06-25T10:17:49Z</time>
      </trkpt>
      <trkpt lat="50.37252" lon="4.29815">
        <ele>187</ele>
        <time>2024-06-25T10:17:53Z</time>
      </trkpt>
      <trkpt lat="50.37252" lon="4.29815">
        <ele>187</ele>
        <time>2024-06-25T10:17:54Z</time>
      </trkpt>
      <trkpt lat="50.37255" lon="4.29815">
        <ele>187</ele>
        <time>2024-06-25T10:17:56Z</time>
      </trkpt>
      <trkpt lat="50.37256" lon="4.29816">
        <ele>186.8</ele>
        <time>2024-06-25T10:17:57Z</time>
      </trkpt>
      <trkpt lat="50.37262" lon="4.2982">
        <ele>186.4</ele>
        <time>2024-06-25T10:18:02Z</time>
      </trkpt>
      <trkpt lat="50.37265" lon="4.29821">
        <ele>186</ele>
        <time>2024-06-25T10:18:06Z</time>
      </trkpt>
      <trkpt lat="50.37271" lon="4.29821">
        <ele>186.2</ele>
        <time>2024-06-25T10:18:11Z</time>
      </trkpt>
      <trkpt lat="50.37276" lon="4.29823">
        <ele>186.2</ele>
        <time>2024-06-25T10:18:16Z</time>
      </trkpt>
      <trkpt lat="50.37276" lon="4.29824">
        <ele>186</ele>
        <time>2024-06-25T10:18:24Z</time>
      </trkpt>
      <trkpt lat="50.37277" lon="4.29823">
        <ele>185.8</ele>
        <time>2024-06-25T10:18:30Z</time>
      </trkpt>
      <trkpt lat="50.3728" lon="4.29824">
        <ele>185.6</ele>
        <time>2024-06-25T10:18:34Z</time>
      </trkpt>
      <trkpt lat="50.37285" lon="4.29824">
        <ele>185.2</ele>
        <time>2024-06-25T10:18:39Z</time>
      </trkpt>
      <trkpt lat="50.37287" lon="4.29824">
        <ele>185</ele>
        <time>2024-06-25T10:18:43Z</time>
      </trkpt>
      <trkpt lat="50.3729" lon="4.29826">
        <ele>184.8</ele>
        <time>2024-06-25T10:18:46Z</time>
      </trkpt>
      <trkpt lat="50.37291" lon="4.29828">
        <ele>184.8</ele>
        <time>2024-06-25T10:18:48Z</time>
      </trkpt>
      <trkpt lat="50.37294" lon="4.29827">
        <ele>184.4</ele>
        <time>2024-06-25T10:18:54Z</time>
      </trkpt>
      <trkpt lat="50.37295" lon="4.29827">
        <ele>184.4</ele>
        <time>2024-06-25T10:18:55Z</time>
      </trkpt>
      <trkpt lat="50.37299" lon="4.29825">
        <ele>184.2</ele>
        <time>2024-06-25T10:18:59Z</time>
      </trkpt>
      <trkpt lat="50.37303" lon="4.29824">
        <ele>184</ele>
        <time>2024-06-25T10:19:06Z</time>
      </trkpt>
      <trkpt lat="50.37307" lon="4.29829">
        <ele>184.2</ele>
        <time>2024-06-25T10:19:12Z</time>
      </trkpt>
      <trkpt lat="50.37307" lon="4.29833">
        <ele>184.2</ele>
        <time>2024-06-25T10:19:17Z</time>
      </trkpt>
      <trkpt lat="50.37309" lon="4.29835">
        <ele>184.8</ele>
        <time>2024-06-25T10:19:23Z</time>
      </trkpt>
      <trkpt lat="50.37311" lon="4.29837">
        <ele>184.8</ele>
        <time>2024-06-25T10:19:29Z</time>
      </trkpt>
      <trkpt lat="50.37312" lon="4.2984">
        <ele>184.8</ele>
        <time>2024-06-25T10:19:34Z</time>
      </trkpt>
      <trkpt lat="50.37313" lon="4.29842">
        <ele>185</ele>
        <time>2024-06-25T10:19:42Z</time>
      </trkpt>
      <trkpt lat="50.37314" lon="4.29847">
        <ele>185.2</ele>
        <time>2024-06-25T10:19:47Z</time>
      </trkpt>
      <trkpt lat="50.37315" lon="4.29852">
        <ele>184.8</ele>
        <time>2024-06-25T10:19:51Z</time>
      </trkpt>
      <trkpt lat="50.37317" lon="4.29859">
        <ele>185</ele>
        <time>2024-06-25T10:19:56Z</time>
      </trkpt>
      <trkpt lat="50.37317" lon="4.29859">
        <ele>185</ele>
        <time>2024-06-25T10:20:01Z</time>
      </trkpt>
      <trkpt lat="50.37317" lon="4.29859">
        <ele>185.2</ele>
        <time>2024-06-25T10:20:19Z</time>
      </trkpt>
      <trkpt lat="50.37317" lon="4.29858">
        <ele>185.4</ele>
        <time>2024-06-25T10:20:38Z</time>
      </trkpt>
      <trkpt lat="50.37317" lon="4.29858">
        <ele>185.4</ele>
        <time>2024-06-25T10:20:59Z</time>
      </trkpt>
      <trkpt lat="50.37318" lon="4.29859">
        <ele>185.6</ele>
        <time>2024-06-25T10:21:17Z</time>
      </trkpt>
      <trkpt lat="50.37318" lon="4.29859">
        <ele>185.6</ele>
        <time>2024-06-25T10:21:30Z</time>
      </trkpt>
      <trkpt lat="50.37318" lon="4.29859">
        <ele>185.8</ele>
        <time>2024-06-25T10:21:44Z</time>
      </trkpt>
      <trkpt lat="50.37318" lon="4.2986">
        <ele>185.8</ele>
        <time>2024-06-25T10:22:01Z</time>
      </trkpt>
      <trkpt lat="50.37318" lon="4.2986">
        <ele>185.8</ele>
        <time>2024-06-25T10:22:15Z</time>
      </trkpt>
      <trkpt lat="50.37318" lon="4.2986">
        <ele>185.8</ele>
        <time>2024-06-25T10:22:24Z</time>
      </trkpt>
      <trkpt lat="50.37318" lon="4.2986">
        <ele>185.8</ele>
        <time>2024-06-25T10:22:31Z</time>
      </trkpt>
      <trkpt lat="50.37323" lon="4.29859">
        <ele>185.8</ele>
        <time>2024-06-25T10:22:38Z</time>
      </trkpt>
      <trkpt lat="50.37329" lon="4.29858">
        <ele>186</ele>
        <time>2024-06-25T10:22:44Z</time>
      </trkpt>
      <trkpt lat="50.3733" lon="4.29859">
        <ele>186</ele>
        <time>2024-06-25T10:22:45Z</time>
      </trkpt>
      <trkpt lat="50.37334" lon="4.29864">
        <ele>186.4</ele>
        <time>2024-06-25T10:22:49Z</time>
      </trkpt>
      <trkpt lat="50.37339" lon="4.29869">
        <ele>186.8</ele>
        <time>2024-06-25T10:22:53Z</time>
      </trkpt>
      <trkpt lat="50.37342" lon="4.29871">
        <ele>186.8</ele>
        <time>2024-06-25T10:22:56Z</time>
      </trkpt>
      <trkpt lat="50.37348" lon="4.29874">
        <ele>186.6</ele>
        <time>2024-06-25T10:23:02Z</time>
      </trkpt>
      <trkpt lat="50.37351" lon="4.29877">
        <ele>186.6</ele>
        <time>2024-06-25T10:23:08Z</time>
      </trkpt>
      <trkpt lat="50.37358" lon="4.29881">
        <ele>187</ele>
        <time>2024-06-25T10:23:13Z</time>
      </trkpt>
      <trkpt lat="50.37362" lon="4.29882">
        <ele>187.4</ele>
        <time>2024-06-25T10:23:18Z</time>
      </trkpt>
      <trkpt lat="50.37364" lon="4.29884">
        <ele>187.6</ele>
        <time>2024-06-25T10:23:23Z</time>
      </trkpt>
      <trkpt lat="50.37376" lon="4.29889">
        <ele>187.8</ele>
        <time>2024-06-25T10:23:28Z</time>
      </trkpt>
      <trkpt lat="50.37391" lon="4.29891">
        <ele>188.4</ele>
        <time>2024-06-25T10:23:33Z</time>
      </trkpt>
      <trkpt lat="50.37403" lon="4.2989">
        <ele>188.4</ele>
        <time>2024-06-25T10:23:37Z</time>
      </trkpt>
      <trkpt lat="50.37413" lon="4.29888">
        <ele>188.6</ele>
        <time>2024-06-25T10:23:41Z</time>
      </trkpt>
      <trkpt lat="50.37416" lon="4.29886">
        <ele>188.6</ele>
        <time>2024-06-25T10:23:44Z</time>
      </trkpt>
      <trkpt lat="50.3743" lon="4.29883">
        <ele>188.8</ele>
        <time>2024-06-25T10:23:50Z</time>
      </trkpt>
      <trkpt lat="50.3744" lon="4.29879">
        <ele>189</ele>
        <time>2024-06-25T10:23:55Z</time>
      </trkpt>
      <trkpt lat="50.37444" lon="4.29877">
        <ele>189.2</ele>
        <time>2024-06-25T10:24:01Z</time>
      </trkpt>
      <trkpt lat="50.37456" lon="4.29874">
        <ele>189.6</ele>
        <time>2024-06-25T10:24:06Z</time>
      </trkpt>
      <trkpt lat="50.37461" lon="4.29872">
        <ele>189.6</ele>
        <time>2024-06-25T10:24:08Z</time>
      </trkpt>
      <trkpt lat="50.37465" lon="4.2987">
        <ele>189.8</ele>
        <time>2024-06-25T10:24:10Z</time>
      </trkpt>
      <trkpt lat="50.37473" lon="4.29868">
        <ele>189.8</ele>
        <time>2024-06-25T10:24:14Z</time>
      </trkpt>
      <trkpt lat="50.37481" lon="4.29865">
        <ele>190.2</ele>
        <time>2024-06-25T10:24:18Z</time>
      </trkpt>
      <trkpt lat="50.37485" lon="4.29862">
        <ele>190.4</ele>
        <time>2024-06-25T10:24:20Z</time>
      </trkpt>
      <trkpt lat="50.3749" lon="4.29859">
        <ele>190.4</ele>
        <time>2024-06-25T10:24:23Z</time>
      </trkpt>
      <trkpt lat="50.37491" lon="4.29858">
        <ele>190.4</ele>
        <time>2024-06-25T10:24:24Z</time>
      </trkpt>
      <trkpt lat="50.37502" lon="4.29856">
        <ele>190.6</ele>
        <time>2024-06-25T10:24:29Z</time>
      </trkpt>
      <trkpt lat="50.37505" lon="4.29856">
        <ele>190.6</ele>
        <time>2024-06-25T10:24:30Z</time>
      </trkpt>
      <trkpt lat="50.37514" lon="4.29857">
        <ele>190.6</ele>
        <time>2024-06-25T10:24:33Z</time>
      </trkpt>
      <trkpt lat="50.37532" lon="4.29861">
        <ele>190.8</ele>
        <time>2024-06-25T10:24:39Z</time>
      </trkpt>
      <trkpt lat="50.37542" lon="4.29862">
        <ele>191.2</ele>
        <time>2024-06-25T10:24:44Z</time>
      </trkpt>
      <trkpt lat="50.37544" lon="4.29862">
        <ele>191.2</ele>
        <time>2024-06-25T10:24:45Z</time>
      </trkpt>
      <trkpt lat="50.37548" lon="4.29858">
        <ele>191.2</ele>
        <time>2024-06-25T10:24:48Z</time>
      </trkpt>
      <trkpt lat="50.37552" lon="4.29859">
        <ele>191.2</ele>
        <time>2024-06-25T10:24:50Z</time>
      </trkpt>
      <trkpt lat="50.37555" lon="4.29863">
        <ele>191</ele>
        <time>2024-06-25T10:24:52Z</time>
      </trkpt>
      <trkpt lat="50.37558" lon="4.29867">
        <ele>191.2</ele>
        <time>2024-06-25T10:24:55Z</time>
      </trkpt>
      <trkpt lat="50.37561" lon="4.29867">
        <ele>191.2</ele>
        <time>2024-06-25T10:24:57Z</time>
      </trkpt>
      <trkpt lat="50.37566" lon="4.29867">
        <ele>191.4</ele>
        <time>2024-06-25T10:25:00Z</time>
      </trkpt>
      <trkpt lat="50.37568" lon="4.29869">
        <ele>191.4</ele>
        <time>2024-06-25T10:25:02Z</time>
      </trkpt>
      <trkpt lat="50.3757" lon="4.2987">
        <ele>191.4</ele>
        <time>2024-06-25T10:25:03Z</time>
      </trkpt>
      <trkpt lat="50.37572" lon="4.29869">
        <ele>191.6</ele>
        <time>2024-06-25T10:25:06Z</time>
      </trkpt>
      <trkpt lat="50.37573" lon="4.2987">
        <ele>191.8</ele>
        <time>2024-06-25T10:25:14Z</time>
      </trkpt>
      <trkpt lat="50.3758" lon="4.29871">
        <ele>192.2</ele>
        <time>2024-06-25T10:25:19Z</time>
      </trkpt>
      <trkpt lat="50.37584" lon="4.29871">
        <ele>192.2</ele>
        <time>2024-06-25T10:25:27Z</time>
      </trkpt>
      <trkpt lat="50.37597" lon="4.29876">
        <ele>192.4</ele>
        <time>2024-06-25T10:25:31Z</time>
      </trkpt>
      <trkpt lat="50.37611" lon="4.29878">
        <ele>192.4</ele>
        <time>2024-06-25T10:25:36Z</time>
      </trkpt>
      <trkpt lat="50.37624" lon="4.29882">
        <ele>192.6</ele>
        <time>2024-06-25T10:25:41Z</time>
      </trkpt>
      <trkpt lat="50.37625" lon="4.29884">
        <ele>192.4</ele>
        <time>2024-06-25T10:25:42Z</time>
      </trkpt>
      <trkpt lat="50.3763" lon="4.29889">
        <ele>192.4</ele>
        <time>2024-06-25T10:25:44Z</time>
      </trkpt>
      <trkpt lat="50.37631" lon="4.29892">
        <ele>192.4</ele>
        <time>2024-06-25T10:25:45Z</time>
      </trkpt>
      <trkpt lat="50.37632" lon="4.29894">
        <ele>192.4</ele>
        <time>2024-06-25T10:25:47Z</time>
      </trkpt>
      <trkpt lat="50.37632" lon="4.29894">
        <ele>192.4</ele>
        <time>2024-06-25T10:26:00Z</time>
      </trkpt>
      <trkpt lat="50.37632" lon="4.29894">
        <ele>192.6</ele>
        <time>2024-06-25T10:26:19Z</time>
      </trkpt>
      <trkpt lat="50.37637" lon="4.29901">
        <ele>192.2</ele>
        <time>2024-06-25T10:26:30Z</time>
      </trkpt>
      <trkpt lat="50.37639" lon="4.2991">
        <ele>192.4</ele>
        <time>2024-06-25T10:26:33Z</time>
      </trkpt>
      <trkpt lat="50.37638" lon="4.29916">
        <ele>192.2</ele>
        <time>2024-06-25T10:26:35Z</time>
      </trkpt>
      <trkpt lat="50.3764" lon="4.29928">
        <ele>192.2</ele>
        <time>2024-06-25T10:26:38Z</time>
      </trkpt>
      <trkpt lat="50.3764" lon="4.2993">
        <ele>192.2</ele>
        <time>2024-06-25T10:26:39Z</time>
      </trkpt>
      <trkpt lat="50.37644" lon="4.2995">
        <ele>192</ele>
        <time>2024-06-25T10:26:44Z</time>
      </trkpt>
      <trkpt lat="50.37646" lon="4.2997">
        <ele>191.6</ele>
        <time>2024-06-25T10:26:48Z</time>
      </trkpt>
      <trkpt lat="50.3765" lon="4.2999">
        <ele>190.8</ele>
        <time>2024-06-25T10:26:52Z</time>
      </trkpt>
      <trkpt lat="50.37655" lon="4.30012">
        <ele>190</ele>
        <time>2024-06-25T10:26:57Z</time>
      </trkpt>
      <trkpt lat="50.37661" lon="4.30041">
        <ele>188.8</ele>
        <time>2024-06-25T10:27:03Z</time>
      </trkpt>
      <trkpt lat="50.37664" lon="4.30069">
        <ele>187.6</ele>
        <time>2024-06-25T10:27:08Z</time>
      </trkpt>
      <trkpt lat="50.37671" lon="4.30088">
        <ele>187</ele>
        <time>2024-06-25T10:27:12Z</time>
      </trkpt>
      <trkpt lat="50.37671" lon="4.30092">
        <ele>186.8</ele>
        <time>2024-06-25T10:27:13Z</time>
      </trkpt>
      <trkpt lat="50.37678" lon="4.301">
        <ele>186.6</ele>
        <time>2024-06-25T10:27:16Z</time>
      </trkpt>
      <trkpt lat="50.37686" lon="4.30105">
        <ele>186.8</ele>
        <time>2024-06-25T10:27:19Z</time>
      </trkpt>
      <trkpt lat="50.37693" lon="4.30114">
        <ele>186</ele>
        <time>2024-06-25T10:27:22Z</time>
      </trkpt>
      <trkpt lat="50.37702" lon="4.30125">
        <ele>185.4</ele>
        <time>2024-06-25T10:27:25Z</time>
      </trkpt>
      <trkpt lat="50.3771" lon="4.30133">
        <ele>184.8</ele>
        <time>2024-06-25T10:27:27Z</time>
      </trkpt>
      <trkpt lat="50.37715" lon="4.30138">
        <ele>184.6</ele>
        <time>2024-06-25T10:27:28Z</time>
      </trkpt>
      <trkpt lat="50.37725" lon="4.30146">
        <ele>184</ele>
        <time>2024-06-25T10:27:30Z</time>
      </trkpt>
      <trkpt lat="50.3773" lon="4.3015">
        <ele>183.8</ele>
        <time>2024-06-25T10:27:31Z</time>
      </trkpt>
      <trkpt lat="50.37739" lon="4.30157">
        <ele>183.2</ele>
        <time>2024-06-25T10:27:33Z</time>
      </trkpt>
      <trkpt lat="50.37752" lon="4.30167">
        <ele>182.2</ele>
        <time>2024-06-25T10:27:36Z</time>
      </trkpt>
      <trkpt lat="50.37765" lon="4.30177">
        <ele>181.4</ele>
        <time>2024-06-25T10:27:39Z</time>
      </trkpt>
      <trkpt lat="50.37778" lon="4.30184">
        <ele>180.6</ele>
        <time>2024-06-25T10:27:42Z</time>
      </trkpt>
      <trkpt lat="50.37795" lon="4.30196">
        <ele>179.8</ele>
        <time>2024-06-25T10:27:46Z</time>
      </trkpt>
      <trkpt lat="50.37799" lon="4.30198">
        <ele>179.6</ele>
        <time>2024-06-25T10:27:47Z</time>
      </trkpt>
      <trkpt lat="50.37811" lon="4.30207">
        <ele>179</ele>
        <time>2024-06-25T10:27:50Z</time>
      </trkpt>
      <trkpt lat="50.37832" lon="4.30223">
        <ele>178.2</ele>
        <time>2024-06-25T10:27:55Z</time>
      </trkpt>
      <trkpt lat="50.37853" lon="4.30238">
        <ele>178</ele>
        <time>2024-06-25T10:28:00Z</time>
      </trkpt>
      <trkpt lat="50.37868" lon="4.30249">
        <ele>177.8</ele>
        <time>2024-06-25T10:28:04Z</time>
      </trkpt>
      <trkpt lat="50.37876" lon="4.30253">
        <ele>178</ele>
        <time>2024-06-25T10:28:06Z</time>
      </trkpt>
      <trkpt lat="50.37889" lon="4.30261">
        <ele>178</ele>
        <time>2024-06-25T10:28:09Z</time>
      </trkpt>
      <trkpt lat="50.37893" lon="4.30264">
        <ele>178</ele>
        <time>2024-06-25T10:28:10Z</time>
      </trkpt>
      <trkpt lat="50.37903" lon="4.30271">
        <ele>177.8</ele>
        <time>2024-06-25T10:28:13Z</time>
      </trkpt>
      <trkpt lat="50.37917" lon="4.30282">
        <ele>177</ele>
        <time>2024-06-25T10:28:17Z</time>
      </trkpt>
      <trkpt lat="50.37922" lon="4.30284">
        <ele>177.6</ele>
        <time>2024-06-25T10:28:18Z</time>
      </trkpt>
      <trkpt lat="50.3793" lon="4.3029">
        <ele>178</ele>
        <time>2024-06-25T10:28:20Z</time>
      </trkpt>
      <trkpt lat="50.37935" lon="4.30293">
        <ele>178</ele>
        <time>2024-06-25T10:28:21Z</time>
      </trkpt>
      <trkpt lat="50.3795" lon="4.30306">
        <ele>177.6</ele>
        <time>2024-06-25T10:28:25Z</time>
      </trkpt>
      <trkpt lat="50.37968" lon="4.30321">
        <ele>178</ele>
        <time>2024-06-25T10:28:30Z</time>
      </trkpt>
      <trkpt lat="50.37982" lon="4.30331">
        <ele>178.2</ele>
        <time>2024-06-25T10:28:33Z</time>
      </trkpt>
      <trkpt lat="50.38003" lon="4.30346">
        <ele>178.2</ele>
        <time>2024-06-25T10:28:38Z</time>
      </trkpt>
      <trkpt lat="50.38007" lon="4.30349">
        <ele>178.4</ele>
        <time>2024-06-25T10:28:39Z</time>
      </trkpt>
      <trkpt lat="50.3803" lon="4.30365">
        <ele>178.4</ele>
        <time>2024-06-25T10:28:45Z</time>
      </trkpt>
      <trkpt lat="50.38046" lon="4.30377">
        <ele>178.4</ele>
        <time>2024-06-25T10:28:50Z</time>
      </trkpt>
      <trkpt lat="50.38061" lon="4.3039">
        <ele>178.2</ele>
        <time>2024-06-25T10:28:54Z</time>
      </trkpt>
      <trkpt lat="50.38065" lon="4.30393">
        <ele>178.2</ele>
        <time>2024-06-25T10:28:55Z</time>
      </trkpt>
      <trkpt lat="50.38084" lon="4.30407">
        <ele>178.6</ele>
        <time>2024-06-25T10:29:00Z</time>
      </trkpt>
      <trkpt lat="50.38092" lon="4.30415">
        <ele>178.6</ele>
        <time>2024-06-25T10:29:02Z</time>
      </trkpt>
      <trkpt lat="50.381" lon="4.30421">
        <ele>178.8</ele>
        <time>2024-06-25T10:29:04Z</time>
      </trkpt>
      <trkpt lat="50.38104" lon="4.30424">
        <ele>178.8</ele>
        <time>2024-06-25T10:29:05Z</time>
      </trkpt>
      <trkpt lat="50.38115" lon="4.30434">
        <ele>179</ele>
        <time>2024-06-25T10:29:08Z</time>
      </trkpt>
      <trkpt lat="50.38142" lon="4.30455">
        <ele>179.4</ele>
        <time>2024-06-25T10:29:14Z</time>
      </trkpt>
      <trkpt lat="50.3817" lon="4.30474">
        <ele>179.8</ele>
        <time>2024-06-25T10:29:20Z</time>
      </trkpt>
      <trkpt lat="50.38174" lon="4.30478">
        <ele>179.8</ele>
        <time>2024-06-25T10:29:21Z</time>
      </trkpt>
      <trkpt lat="50.38188" lon="4.30489">
        <ele>179.8</ele>
        <time>2024-06-25T10:29:24Z</time>
      </trkpt>
      <trkpt lat="50.38212" lon="4.30506">
        <ele>179.8</ele>
        <time>2024-06-25T10:29:29Z</time>
      </trkpt>
      <trkpt lat="50.38229" lon="4.30517">
        <ele>179.8</ele>
        <time>2024-06-25T10:29:33Z</time>
      </trkpt>
      <trkpt lat="50.38252" lon="4.30536">
        <ele>180</ele>
        <time>2024-06-25T10:29:38Z</time>
      </trkpt>
      <trkpt lat="50.38269" lon="4.30549">
        <ele>180.2</ele>
        <time>2024-06-25T10:29:42Z</time>
      </trkpt>
      <trkpt lat="50.38277" lon="4.30556">
        <ele>180.2</ele>
        <time>2024-06-25T10:29:44Z</time>
      </trkpt>
      <trkpt lat="50.38285" lon="4.30564">
        <ele>180.2</ele>
        <time>2024-06-25T10:29:46Z</time>
      </trkpt>
      <trkpt lat="50.3829" lon="4.30568">
        <ele>180.2</ele>
        <time>2024-06-25T10:29:47Z</time>
      </trkpt>
      <trkpt lat="50.38308" lon="4.3058">
        <ele>180.2</ele>
        <time>2024-06-25T10:29:51Z</time>
      </trkpt>
      <trkpt lat="50.38316" lon="4.30585">
        <ele>180</ele>
        <time>2024-06-25T10:29:53Z</time>
      </trkpt>
      <trkpt lat="50.38325" lon="4.30591">
        <ele>180.2</ele>
        <time>2024-06-25T10:29:55Z</time>
      </trkpt>
      <trkpt lat="50.38337" lon="4.30599">
        <ele>180.2</ele>
        <time>2024-06-25T10:29:58Z</time>
      </trkpt>
      <trkpt lat="50.38356" lon="4.30612">
        <ele>180.2</ele>
        <time>2024-06-25T10:30:03Z</time>
      </trkpt>
      <trkpt lat="50.38381" lon="4.30632">
        <ele>180.4</ele>
        <time>2024-06-25T10:30:08Z</time>
      </trkpt>
      <trkpt lat="50.38411" lon="4.30652">
        <ele>180.6</ele>
        <time>2024-06-25T10:30:14Z</time>
      </trkpt>
      <trkpt lat="50.38434" lon="4.3067">
        <ele>180.6</ele>
        <time>2024-06-25T10:30:19Z</time>
      </trkpt>
      <trkpt lat="50.38443" lon="4.30676">
        <ele>180.8</ele>
        <time>2024-06-25T10:30:21Z</time>
      </trkpt>
      <trkpt lat="50.38458" lon="4.30688">
        <ele>180.6</ele>
        <time>2024-06-25T10:30:26Z</time>
      </trkpt>
      <trkpt lat="50.38473" lon="4.30696">
        <ele>180.8</ele>
        <time>2024-06-25T10:30:32Z</time>
      </trkpt>
      <trkpt lat="50.38478" lon="4.30697">
        <ele>180.8</ele>
        <time>2024-06-25T10:30:35Z</time>
      </trkpt>
      <trkpt lat="50.3848" lon="4.30697">
        <ele>180.8</ele>
        <time>2024-06-25T10:30:36Z</time>
      </trkpt>
      <trkpt lat="50.38482" lon="4.30697">
        <ele>181</ele>
        <time>2024-06-25T10:30:38Z</time>
      </trkpt>
      <trkpt lat="50.38485" lon="4.30698">
        <ele>181</ele>
        <time>2024-06-25T10:30:39Z</time>
      </trkpt>
      <trkpt lat="50.38491" lon="4.30697">
        <ele>181.2</ele>
        <time>2024-06-25T10:30:41Z</time>
      </trkpt>
      <trkpt lat="50.38492" lon="4.30697">
        <ele>181.2</ele>
        <time>2024-06-25T10:30:42Z</time>
      </trkpt>
      <trkpt lat="50.38494" lon="4.30689">
        <ele>181.4</ele>
        <time>2024-06-25T10:30:45Z</time>
      </trkpt>
      <trkpt lat="50.38496" lon="4.30687">
        <ele>181.6</ele>
        <time>2024-06-25T10:30:46Z</time>
      </trkpt>
      <trkpt lat="50.38497" lon="4.30684">
        <ele>181.6</ele>
        <time>2024-06-25T10:30:47Z</time>
      </trkpt>
      <trkpt lat="50.38499" lon="4.30671">
        <ele>181.6</ele>
        <time>2024-06-25T10:30:50Z</time>
      </trkpt>
      <trkpt lat="50.38498" lon="4.30666">
        <ele>181.6</ele>
        <time>2024-06-25T10:30:51Z</time>
      </trkpt>
      <trkpt lat="50.38496" lon="4.30662">
        <ele>181.6</ele>
        <time>2024-06-25T10:30:52Z</time>
      </trkpt>
      <trkpt lat="50.38494" lon="4.30659">
        <ele>181.6</ele>
        <time>2024-06-25T10:30:53Z</time>
      </trkpt>
      <trkpt lat="50.38495" lon="4.30653">
        <ele>181.4</ele>
        <time>2024-06-25T10:30:55Z</time>
      </trkpt>
      <trkpt lat="50.38508" lon="4.30631">
        <ele>181.4</ele>
        <time>2024-06-25T10:31:00Z</time>
      </trkpt>
      <trkpt lat="50.38522" lon="4.30602">
        <ele>180.8</ele>
        <time>2024-06-25T10:31:05Z</time>
      </trkpt>
      <trkpt lat="50.38527" lon="4.3059">
        <ele>180.8</ele>
        <time>2024-06-25T10:31:07Z</time>
      </trkpt>
      <trkpt lat="50.38536" lon="4.30573">
        <ele>180.6</ele>
        <time>2024-06-25T10:31:10Z</time>
      </trkpt>
      <trkpt lat="50.38544" lon="4.30558">
        <ele>180.6</ele>
        <time>2024-06-25T10:31:13Z</time>
      </trkpt>
      <trkpt lat="50.38547" lon="4.30552">
        <ele>180.6</ele>
        <time>2024-06-25T10:31:14Z</time>
      </trkpt>
      <trkpt lat="50.38555" lon="4.30536">
        <ele>180.4</ele>
        <time>2024-06-25T10:31:17Z</time>
      </trkpt>
      <trkpt lat="50.38558" lon="4.30524">
        <ele>180.2</ele>
        <time>2024-06-25T10:31:19Z</time>
      </trkpt>
      <trkpt lat="50.38559" lon="4.3052">
        <ele>180</ele>
        <time>2024-06-25T10:31:20Z</time>
      </trkpt>
      <trkpt lat="50.38571" lon="4.30499">
        <ele>180</ele>
        <time>2024-06-25T10:31:24Z</time>
      </trkpt>
      <trkpt lat="50.38581" lon="4.30479">
        <ele>179.2</ele>
        <time>2024-06-25T10:31:28Z</time>
      </trkpt>
      <trkpt lat="50.38588" lon="4.30468">
        <ele>179.2</ele>
        <time>2024-06-25T10:31:30Z</time>
      </trkpt>
      <trkpt lat="50.3859" lon="4.30463">
        <ele>179.2</ele>
        <time>2024-06-25T10:31:31Z</time>
      </trkpt>
      <trkpt lat="50.38592" lon="4.30459">
        <ele>179</ele>
        <time>2024-06-25T10:31:32Z</time>
      </trkpt>
      <trkpt lat="50.38597" lon="4.30451">
        <ele>178.6</ele>
        <time>2024-06-25T10:31:34Z</time>
      </trkpt>
      <trkpt lat="50.38607" lon="4.3043">
        <ele>178.2</ele>
        <time>2024-06-25T10:31:38Z</time>
      </trkpt>
      <trkpt lat="50.38619" lon="4.30402">
        <ele>178</ele>
        <time>2024-06-25T10:31:44Z</time>
      </trkpt>
      <trkpt lat="50.38621" lon="4.30397">
        <ele>178</ele>
        <time>2024-06-25T10:31:45Z</time>
      </trkpt>
      <trkpt lat="50.38623" lon="4.30388">
        <ele>177.8</ele>
        <time>2024-06-25T10:31:47Z</time>
      </trkpt>
      <trkpt lat="50.38637" lon="4.30353">
        <ele>177.8</ele>
        <time>2024-06-25T10:31:53Z</time>
      </trkpt>
      <trkpt lat="50.3865" lon="4.30327">
        <ele>177.6</ele>
        <time>2024-06-25T10:31:58Z</time>
      </trkpt>
      <trkpt lat="50.38657" lon="4.30311">
        <ele>177.4</ele>
        <time>2024-06-25T10:32:01Z</time>
      </trkpt>
      <trkpt lat="50.38666" lon="4.30289">
        <ele>177</ele>
        <time>2024-06-25T10:32:05Z</time>
      </trkpt>
      <trkpt lat="50.38675" lon="4.30268">
        <ele>176.4</ele>
        <time>2024-06-25T10:32:09Z</time>
      </trkpt>
      <trkpt lat="50.38683" lon="4.30247">
        <ele>175.8</ele>
        <time>2024-06-25T10:32:13Z</time>
      </trkpt>
      <trkpt lat="50.38689" lon="4.30228">
        <ele>175.4</ele>
        <time>2024-06-25T10:32:17Z</time>
      </trkpt>
      <trkpt lat="50.3869" lon="4.30224">
        <ele>175.2</ele>
        <time>2024-06-25T10:32:18Z</time>
      </trkpt>
      <trkpt lat="50.38693" lon="4.30215">
        <ele>174.6</ele>
        <time>2024-06-25T10:32:20Z</time>
      </trkpt>
      <trkpt lat="50.38697" lon="4.3021">
        <ele>174.4</ele>
        <time>2024-06-25T10:32:21Z</time>
      </trkpt>
      <trkpt lat="50.38706" lon="4.302">
        <ele>174.2</ele>
        <time>2024-06-25T10:32:23Z</time>
      </trkpt>
      <trkpt lat="50.38709" lon="4.30187">
        <ele>173.8</ele>
        <time>2024-06-25T10:32:25Z</time>
      </trkpt>
      <trkpt lat="50.38715" lon="4.30167">
        <ele>173.2</ele>
        <time>2024-06-25T10:32:28Z</time>
      </trkpt>
      <trkpt lat="50.38718" lon="4.3016">
        <ele>173.2</ele>
        <time>2024-06-25T10:32:29Z</time>
      </trkpt>
      <trkpt lat="50.38733" lon="4.30128">
        <ele>172.4</ele>
        <time>2024-06-25T10:32:34Z</time>
      </trkpt>
      <trkpt lat="50.38736" lon="4.30122">
        <ele>172.2</ele>
        <time>2024-06-25T10:32:35Z</time>
      </trkpt>
      <trkpt lat="50.38744" lon="4.30103">
        <ele>171.6</ele>
        <time>2024-06-25T10:32:38Z</time>
      </trkpt>
      <trkpt lat="50.38749" lon="4.30091">
        <ele>171.4</ele>
        <time>2024-06-25T10:32:40Z</time>
      </trkpt>
      <trkpt lat="50.38752" lon="4.3008">
        <ele>170.8</ele>
        <time>2024-06-25T10:32:42Z</time>
      </trkpt>
      <trkpt lat="50.38755" lon="4.3007">
        <ele>170.2</ele>
        <time>2024-06-25T10:32:44Z</time>
      </trkpt>
      <trkpt lat="50.38759" lon="4.30054">
        <ele>169.6</ele>
        <time>2024-06-25T10:32:47Z</time>
      </trkpt>
      <trkpt lat="50.38764" lon="4.30038">
        <ele>169</ele>
        <time>2024-06-25T10:32:50Z</time>
      </trkpt>
      <trkpt lat="50.38766" lon="4.30033">
        <ele>168.8</ele>
        <time>2024-06-25T10:32:51Z</time>
      </trkpt>
      <trkpt lat="50.38777" lon="4.3001">
        <ele>168</ele>
        <time>2024-06-25T10:32:55Z</time>
      </trkpt>
      <trkpt lat="50.38779" lon="4.30004">
        <ele>168</ele>
        <time>2024-06-25T10:32:56Z</time>
      </trkpt>
      <trkpt lat="50.38789" lon="4.29982">
        <ele>167.4</ele>
        <time>2024-06-25T10:33:00Z</time>
      </trkpt>
      <trkpt lat="50.38789" lon="4.29976">
        <ele>167.4</ele>
        <time>2024-06-25T10:33:01Z</time>
      </trkpt>
      <trkpt lat="50.38787" lon="4.29967">
        <ele>167</ele>
        <time>2024-06-25T10:33:03Z</time>
      </trkpt>
      <trkpt lat="50.38792" lon="4.2994">
        <ele>166.2</ele>
        <time>2024-06-25T10:33:08Z</time>
      </trkpt>
      <trkpt lat="50.38795" lon="4.29929">
        <ele>165.8</ele>
        <time>2024-06-25T10:33:10Z</time>
      </trkpt>
      <trkpt lat="50.38799" lon="4.29919">
        <ele>165.4</ele>
        <time>2024-06-25T10:33:12Z</time>
      </trkpt>
      <trkpt lat="50.38802" lon="4.29914">
        <ele>165.2</ele>
        <time>2024-06-25T10:33:13Z</time>
      </trkpt>
      <trkpt lat="50.38806" lon="4.29899">
        <ele>164.4</ele>
        <time>2024-06-25T10:33:16Z</time>
      </trkpt>
      <trkpt lat="50.38809" lon="4.29894">
        <ele>164.2</ele>
        <time>2024-06-25T10:33:17Z</time>
      </trkpt>
      <trkpt lat="50.38809" lon="4.29885">
        <ele>163.8</ele>
        <time>2024-06-25T10:33:19Z</time>
      </trkpt>
      <trkpt lat="50.38815" lon="4.29871">
        <ele>163.4</ele>
        <time>2024-06-25T10:33:22Z</time>
      </trkpt>
      <trkpt lat="50.38819" lon="4.29861">
        <ele>163</ele>
        <time>2024-06-25T10:33:24Z</time>
      </trkpt>
      <trkpt lat="50.38822" lon="4.29854">
        <ele>162.8</ele>
        <time>2024-06-25T10:33:25Z</time>
      </trkpt>
      <trkpt lat="50.3883" lon="4.29841">
        <ele>162.4</ele>
        <time>2024-06-25T10:33:27Z</time>
      </trkpt>
      <trkpt lat="50.38839" lon="4.29825">
        <ele>162</ele>
        <time>2024-06-25T10:33:30Z</time>
      </trkpt>
      <trkpt lat="50.38845" lon="4.29814">
        <ele>161.6</ele>
        <time>2024-06-25T10:33:32Z</time>
      </trkpt>
      <trkpt lat="50.38851" lon="4.29803">
        <ele>161.2</ele>
        <time>2024-06-25T10:33:34Z</time>
      </trkpt>
      <trkpt lat="50.38861" lon="4.29782">
        <ele>160.6</ele>
        <time>2024-06-25T10:33:38Z</time>
      </trkpt>
      <trkpt lat="50.38874" lon="4.29758">
        <ele>160</ele>
        <time>2024-06-25T10:33:42Z</time>
      </trkpt>
      <trkpt lat="50.38893" lon="4.29733">
        <ele>159.6</ele>
        <time>2024-06-25T10:33:46Z</time>
      </trkpt>
      <trkpt lat="50.38894" lon="4.29727">
        <ele>159.4</ele>
        <time>2024-06-25T10:33:47Z</time>
      </trkpt>
      <trkpt lat="50.389" lon="4.29716">
        <ele>159</ele>
        <time>2024-06-25T10:33:49Z</time>
      </trkpt>
      <trkpt lat="50.38913" lon="4.29691">
        <ele>158.6</ele>
        <time>2024-06-25T10:33:53Z</time>
      </trkpt>
      <trkpt lat="50.38918" lon="4.29677">
        <ele>158.6</ele>
        <time>2024-06-25T10:33:55Z</time>
      </trkpt>
      <trkpt lat="50.38921" lon="4.2967">
        <ele>158.4</ele>
        <time>2024-06-25T10:33:56Z</time>
      </trkpt>
      <trkpt lat="50.38928" lon="4.29649">
        <ele>157.8</ele>
        <time>2024-06-25T10:34:00Z</time>
      </trkpt>
      <trkpt lat="50.38929" lon="4.29646">
        <ele>157.8</ele>
        <time>2024-06-25T10:34:01Z</time>
      </trkpt>
      <trkpt lat="50.38928" lon="4.2964">
        <ele>157.6</ele>
        <time>2024-06-25T10:34:03Z</time>
      </trkpt>
      <trkpt lat="50.3893" lon="4.29627">
        <ele>157.2</ele>
        <time>2024-06-25T10:34:08Z</time>
      </trkpt>
      <trkpt lat="50.38936" lon="4.29609">
        <ele>157.4</ele>
        <time>2024-06-25T10:34:13Z</time>
      </trkpt>
      <trkpt lat="50.38937" lon="4.29606">
        <ele>157.6</ele>
        <time>2024-06-25T10:34:14Z</time>
      </trkpt>
      <trkpt lat="50.38939" lon="4.29601">
        <ele>157.4</ele>
        <time>2024-06-25T10:34:16Z</time>
      </trkpt>
      <trkpt lat="50.38944" lon="4.29587">
        <ele>157.4</ele>
        <time>2024-06-25T10:34:21Z</time>
      </trkpt>
      <trkpt lat="50.3895" lon="4.29591">
        <ele>157.4</ele>
        <time>2024-06-25T10:34:24Z</time>
      </trkpt>
      <trkpt lat="50.38964" lon="4.29615">
        <ele>158.4</ele>
        <time>2024-06-25T10:34:30Z</time>
      </trkpt>
      <trkpt lat="50.38987" lon="4.29643">
        <ele>159.4</ele>
        <time>2024-06-25T10:34:37Z</time>
      </trkpt>
      <trkpt lat="50.39009" lon="4.2967">
        <ele>160.6</ele>
        <time>2024-06-25T10:34:43Z</time>
      </trkpt>
      <trkpt lat="50.39017" lon="4.2968">
        <ele>161</ele>
        <time>2024-06-25T10:34:45Z</time>
      </trkpt>
      <trkpt lat="50.39038" lon="4.29684">
        <ele>163</ele>
        <time>2024-06-25T10:34:47Z</time>
      </trkpt>
      <trkpt lat="50.39059" lon="4.29699">
        <ele>164.4</ele>
        <time>2024-06-25T10:34:51Z</time>
      </trkpt>
      <trkpt lat="50.39067" lon="4.29706">
        <ele>165</ele>
        <time>2024-06-25T10:34:53Z</time>
      </trkpt>
      <trkpt lat="50.3908" lon="4.29715">
        <ele>165.8</ele>
        <time>2024-06-25T10:34:56Z</time>
      </trkpt>
      <trkpt lat="50.39093" lon="4.29722">
        <ele>166.6</ele>
        <time>2024-06-25T10:34:59Z</time>
      </trkpt>
      <trkpt lat="50.39122" lon="4.29744">
        <ele>168.6</ele>
        <time>2024-06-25T10:35:05Z</time>
      </trkpt>
      <trkpt lat="50.39131" lon="4.29752">
        <ele>169.2</ele>
        <time>2024-06-25T10:35:07Z</time>
      </trkpt>
      <trkpt lat="50.3914" lon="4.29762">
        <ele>169.8</ele>
        <time>2024-06-25T10:35:09Z</time>
      </trkpt>
      <trkpt lat="50.39147" lon="4.29774">
        <ele>170.4</ele>
        <time>2024-06-25T10:35:11Z</time>
      </trkpt>
      <trkpt lat="50.39175" lon="4.29827">
        <ele>172.8</ele>
        <time>2024-06-25T10:35:20Z</time>
      </trkpt>
      <trkpt lat="50.39188" lon="4.29849">
        <ele>173.6</ele>
        <time>2024-06-25T10:35:24Z</time>
      </trkpt>
      <trkpt lat="50.39191" lon="4.29856">
        <ele>173.8</ele>
        <time>2024-06-25T10:35:25Z</time>
      </trkpt>
      <trkpt lat="50.39212" lon="4.29898">
        <ele>174.8</ele>
        <time>2024-06-25T10:35:31Z</time>
      </trkpt>
      <trkpt lat="50.39239" lon="4.29953">
        <ele>175.6</ele>
        <time>2024-06-25T10:35:37Z</time>
      </trkpt>
      <trkpt lat="50.39266" lon="4.3001">
        <ele>176.2</ele>
        <time>2024-06-25T10:35:43Z</time>
      </trkpt>
      <trkpt lat="50.39292" lon="4.30062">
        <ele>176.8</ele>
        <time>2024-06-25T10:35:49Z</time>
      </trkpt>
      <trkpt lat="50.39313" lon="4.30102">
        <ele>177</ele>
        <time>2024-06-25T10:35:54Z</time>
      </trkpt>
      <trkpt lat="50.39321" lon="4.30118">
        <ele>177</ele>
        <time>2024-06-25T10:35:56Z</time>
      </trkpt>
      <trkpt lat="50.39337" lon="4.3016">
        <ele>177</ele>
        <time>2024-06-25T10:36:01Z</time>
      </trkpt>
      <trkpt lat="50.39338" lon="4.30179">
        <ele>177</ele>
        <time>2024-06-25T10:36:03Z</time>
      </trkpt>
      <trkpt lat="50.39338" lon="4.30189">
        <ele>177.2</ele>
        <time>2024-06-25T10:36:04Z</time>
      </trkpt>
      <trkpt lat="50.39343" lon="4.30267">
        <ele>177</ele>
        <time>2024-06-25T10:36:11Z</time>
      </trkpt>
      <trkpt lat="50.39359" lon="4.3031">
        <ele>177</ele>
        <time>2024-06-25T10:36:15Z</time>
      </trkpt>
      <trkpt lat="50.39386" lon="4.30395">
        <ele>176.8</ele>
        <time>2024-06-25T10:36:22Z</time>
      </trkpt>
      <trkpt lat="50.39413" lon="4.30475">
        <ele>176</ele>
        <time>2024-06-25T10:36:29Z</time>
      </trkpt>
      <trkpt lat="50.39438" lon="4.30551">
        <ele>175.2</ele>
        <time>2024-06-25T10:36:36Z</time>
      </trkpt>
      <trkpt lat="50.39445" lon="4.30575">
        <ele>175</ele>
        <time>2024-06-25T10:36:38Z</time>
      </trkpt>
      <trkpt lat="50.39465" lon="4.30655">
        <ele>174.2</ele>
        <time>2024-06-25T10:36:45Z</time>
      </trkpt>
      <trkpt lat="50.39489" lon="4.30739">
        <ele>173.2</ele>
        <time>2024-06-25T10:36:53Z</time>
      </trkpt>
      <trkpt lat="50.39509" lon="4.30807">
        <ele>172</ele>
        <time>2024-06-25T10:37:00Z</time>
      </trkpt>
      <trkpt lat="50.39528" lon="4.30863">
        <ele>171.4</ele>
        <time>2024-06-25T10:37:06Z</time>
      </trkpt>
      <trkpt lat="50.3954" lon="4.30898">
        <ele>171</ele>
        <time>2024-06-25T10:37:10Z</time>
      </trkpt>
      <trkpt lat="50.39546" lon="4.30916">
        <ele>170.8</ele>
        <time>2024-06-25T10:37:12Z</time>
      </trkpt>
      <trkpt lat="50.39573" lon="4.30998">
        <ele>169.8</ele>
        <time>2024-06-25T10:37:21Z</time>
      </trkpt>
      <trkpt lat="50.39596" lon="4.3107">
        <ele>169</ele>
        <time>2024-06-25T10:37:29Z</time>
      </trkpt>
      <trkpt lat="50.39624" lon="4.3115">
        <ele>167.8</ele>
        <time>2024-06-25T10:37:38Z</time>
      </trkpt>
      <trkpt lat="50.39646" lon="4.31208">
        <ele>167</ele>
        <time>2024-06-25T10:37:45Z</time>
      </trkpt>
      <trkpt lat="50.39674" lon="4.31284">
        <ele>165.8</ele>
        <time>2024-06-25T10:37:54Z</time>
      </trkpt>
      <trkpt lat="50.39677" lon="4.31292">
        <ele>165.8</ele>
        <time>2024-06-25T10:37:55Z</time>
      </trkpt>
      <trkpt lat="50.39695" lon="4.31343">
        <ele>165.2</ele>
        <time>2024-06-25T10:38:01Z</time>
      </trkpt>
      <trkpt lat="50.39717" lon="4.31412">
        <ele>164.2</ele>
        <time>2024-06-25T10:38:09Z</time>
      </trkpt>
      <trkpt lat="50.39742" lon="4.31485">
        <ele>163.2</ele>
        <time>2024-06-25T10:38:18Z</time>
      </trkpt>
      <trkpt lat="50.39745" lon="4.31493">
        <ele>163</ele>
        <time>2024-06-25T10:38:19Z</time>
      </trkpt>
      <trkpt lat="50.3976" lon="4.31513">
        <ele>162.6</ele>
        <time>2024-06-25T10:38:22Z</time>
      </trkpt>
      <trkpt lat="50.39798" lon="4.31548">
        <ele>161.6</ele>
        <time>2024-06-25T10:38:29Z</time>
      </trkpt>
      <trkpt lat="50.3984" lon="4.31583">
        <ele>160.8</ele>
        <time>2024-06-25T10:38:37Z</time>
      </trkpt>
      <trkpt lat="50.39876" lon="4.31614">
        <ele>160.2</ele>
        <time>2024-06-25T10:38:44Z</time>
      </trkpt>
      <trkpt lat="50.39918" lon="4.31648">
        <ele>159.4</ele>
        <time>2024-06-25T10:38:52Z</time>
      </trkpt>
      <trkpt lat="50.39946" lon="4.31685">
        <ele>158.8</ele>
        <time>2024-06-25T10:38:58Z</time>
      </trkpt>
      <trkpt lat="50.39963" lon="4.31731">
        <ele>158.2</ele>
        <time>2024-06-25T10:39:04Z</time>
      </trkpt>
      <trkpt lat="50.39965" lon="4.31739">
        <ele>158.2</ele>
        <time>2024-06-25T10:39:05Z</time>
      </trkpt>
      <trkpt lat="50.39973" lon="4.3178">
        <ele>157.6</ele>
        <time>2024-06-25T10:39:10Z</time>
      </trkpt>
      <trkpt lat="50.3998" lon="4.31825">
        <ele>157.2</ele>
        <time>2024-06-25T10:39:16Z</time>
      </trkpt>
      <trkpt lat="50.39987" lon="4.31853">
        <ele>156.8</ele>
        <time>2024-06-25T10:39:21Z</time>
      </trkpt>
      <trkpt lat="50.39994" lon="4.31854">
        <ele>156.6</ele>
        <time>2024-06-25T10:39:23Z</time>
      </trkpt>
      <trkpt lat="50.39998" lon="4.31853">
        <ele>156.4</ele>
        <time>2024-06-25T10:39:24Z</time>
      </trkpt>
      <trkpt lat="50.40022" lon="4.31838">
        <ele>156</ele>
        <time>2024-06-25T10:39:29Z</time>
      </trkpt>
      <trkpt lat="50.40046" lon="4.31817">
        <ele>155.2</ele>
        <time>2024-06-25T10:39:35Z</time>
      </trkpt>
      <trkpt lat="50.40054" lon="4.31816">
        <ele>155</ele>
        <time>2024-06-25T10:39:37Z</time>
      </trkpt>
      <trkpt lat="50.40058" lon="4.31814">
        <ele>155</ele>
        <time>2024-06-25T10:39:38Z</time>
      </trkpt>
      <trkpt lat="50.40075" lon="4.31794">
        <ele>154.8</ele>
        <time>2024-06-25T10:39:44Z</time>
      </trkpt>
      <trkpt lat="50.40078" lon="4.31793">
        <ele>154.8</ele>
        <time>2024-06-25T10:39:45Z</time>
      </trkpt>
      <trkpt lat="50.40083" lon="4.31802">
        <ele>154.6</ele>
        <time>2024-06-25T10:39:47Z</time>
      </trkpt>
      <trkpt lat="50.40094" lon="4.3184">
        <ele>154.4</ele>
        <time>2024-06-25T10:39:53Z</time>
      </trkpt>
      <trkpt lat="50.40104" lon="4.31874">
        <ele>154.2</ele>
        <time>2024-06-25T10:39:58Z</time>
      </trkpt>
      <trkpt lat="50.40108" lon="4.31888">
        <ele>154.2</ele>
        <time>2024-06-25T10:40:00Z</time>
      </trkpt>
      <trkpt lat="50.40114" lon="4.31911">
        <ele>154.2</ele>
        <time>2024-06-25T10:40:03Z</time>
      </trkpt>
      <trkpt lat="50.40115" lon="4.31917">
        <ele>154.4</ele>
        <time>2024-06-25T10:40:04Z</time>
      </trkpt>
      <trkpt lat="50.40127" lon="4.31966">
        <ele>154.8</ele>
        <time>2024-06-25T10:40:11Z</time>
      </trkpt>
      <trkpt lat="50.40146" lon="4.32001">
        <ele>155.2</ele>
        <time>2024-06-25T10:40:17Z</time>
      </trkpt>
      <trkpt lat="50.40167" lon="4.32033">
        <ele>155.4</ele>
        <time>2024-06-25T10:40:23Z</time>
      </trkpt>
      <trkpt lat="50.40193" lon="4.32072">
        <ele>155.8</ele>
        <time>2024-06-25T10:40:30Z</time>
      </trkpt>
      <trkpt lat="50.40207" lon="4.32093">
        <ele>155.8</ele>
        <time>2024-06-25T10:40:34Z</time>
      </trkpt>
      <trkpt lat="50.40214" lon="4.32105">
        <ele>156</ele>
        <time>2024-06-25T10:40:36Z</time>
      </trkpt>
      <trkpt lat="50.40233" lon="4.32135">
        <ele>156.4</ele>
        <time>2024-06-25T10:40:42Z</time>
      </trkpt>
      <trkpt lat="50.40246" lon="4.3215">
        <ele>156.6</ele>
        <time>2024-06-25T10:40:47Z</time>
      </trkpt>
      <trkpt lat="50.40261" lon="4.32142">
        <ele>156.6</ele>
        <time>2024-06-25T10:40:51Z</time>
      </trkpt>
      <trkpt lat="50.40265" lon="4.32139">
        <ele>156.6</ele>
        <time>2024-06-25T10:40:52Z</time>
      </trkpt>
      <trkpt lat="50.40273" lon="4.32134">
        <ele>156.8</ele>
        <time>2024-06-25T10:40:54Z</time>
      </trkpt>
      <trkpt lat="50.40283" lon="4.32131">
        <ele>156.8</ele>
        <time>2024-06-25T10:40:56Z</time>
      </trkpt>
      <trkpt lat="50.403" lon="4.32123">
        <ele>156.6</ele>
        <time>2024-06-25T10:41:00Z</time>
      </trkpt>
      <trkpt lat="50.40303" lon="4.3212">
        <ele>156.6</ele>
        <time>2024-06-25T10:41:01Z</time>
      </trkpt>
      <trkpt lat="50.40314" lon="4.32109">
        <ele>156.6</ele>
        <time>2024-06-25T10:41:04Z</time>
      </trkpt>
      <trkpt lat="50.40317" lon="4.32104">
        <ele>156.6</ele>
        <time>2024-06-25T10:41:05Z</time>
      </trkpt>
      <trkpt lat="50.40324" lon="4.32094">
        <ele>156.8</ele>
        <time>2024-06-25T10:41:07Z</time>
      </trkpt>
      <trkpt lat="50.40333" lon="4.3208">
        <ele>156.6</ele>
        <time>2024-06-25T10:41:10Z</time>
      </trkpt>
      <trkpt lat="50.40337" lon="4.32075">
        <ele>156.2</ele>
        <time>2024-06-25T10:41:11Z</time>
      </trkpt>
      <trkpt lat="50.40345" lon="4.32062">
        <ele>156.2</ele>
        <time>2024-06-25T10:41:14Z</time>
      </trkpt>
      <trkpt lat="50.4036" lon="4.32035">
        <ele>155.4</ele>
        <time>2024-06-25T10:41:20Z</time>
      </trkpt>
      <trkpt lat="50.40368" lon="4.32025">
        <ele>155.2</ele>
        <time>2024-06-25T10:41:23Z</time>
      </trkpt>
      <trkpt lat="50.40371" lon="4.32025">
        <ele>155</ele>
        <time>2024-06-25T10:41:24Z</time>
      </trkpt>
      <trkpt lat="50.40374" lon="4.32027">
        <ele>154.8</ele>
        <time>2024-06-25T10:41:25Z</time>
      </trkpt>
      <trkpt lat="50.4038" lon="4.32035">
        <ele>155</ele>
        <time>2024-06-25T10:41:27Z</time>
      </trkpt>
      <trkpt lat="50.40389" lon="4.32067">
        <ele>155</ele>
        <time>2024-06-25T10:41:32Z</time>
      </trkpt>
      <trkpt lat="50.40391" lon="4.32073">
        <ele>155.2</ele>
        <time>2024-06-25T10:41:33Z</time>
      </trkpt>
      <trkpt lat="50.40399" lon="4.32092">
        <ele>155.4</ele>
        <time>2024-06-25T10:41:36Z</time>
      </trkpt>
      <trkpt lat="50.40409" lon="4.32107">
        <ele>155.4</ele>
        <time>2024-06-25T10:41:39Z</time>
      </trkpt>
      <trkpt lat="50.40433" lon="4.32134">
        <ele>155.8</ele>
        <time>2024-06-25T10:41:45Z</time>
      </trkpt>
      <trkpt lat="50.40456" lon="4.32162">
        <ele>156</ele>
        <time>2024-06-25T10:41:51Z</time>
      </trkpt>
      <trkpt lat="50.40474" lon="4.32184">
        <ele>155.8</ele>
        <time>2024-06-25T10:41:56Z</time>
      </trkpt>
      <trkpt lat="50.40478" lon="4.32189">
        <ele>155.8</ele>
        <time>2024-06-25T10:41:57Z</time>
      </trkpt>
      <trkpt lat="50.40492" lon="4.32205">
        <ele>155.8</ele>
        <time>2024-06-25T10:42:01Z</time>
      </trkpt>
      <trkpt lat="50.40526" lon="4.32246">
        <ele>156</ele>
        <time>2024-06-25T10:42:10Z</time>
      </trkpt>
      <trkpt lat="50.40548" lon="4.32271">
        <ele>155.6</ele>
        <time>2024-06-25T10:42:16Z</time>
      </trkpt>
      <trkpt lat="50.40551" lon="4.32276">
        <ele>155.8</ele>
        <time>2024-06-25T10:42:17Z</time>
      </trkpt>
      <trkpt lat="50.4057" lon="4.32304">
        <ele>155.8</ele>
        <time>2024-06-25T10:42:22Z</time>
      </trkpt>
      <trkpt lat="50.40577" lon="4.32316">
        <ele>155.8</ele>
        <time>2024-06-25T10:42:24Z</time>
      </trkpt>
      <trkpt lat="50.40599" lon="4.32357">
        <ele>155.6</ele>
        <time>2024-06-25T10:42:31Z</time>
      </trkpt>
      <trkpt lat="50.4061" lon="4.32398">
        <ele>155.6</ele>
        <time>2024-06-25T10:42:37Z</time>
      </trkpt>
      <trkpt lat="50.4062" lon="4.32431">
        <ele>155.4</ele>
        <time>2024-06-25T10:42:42Z</time>
      </trkpt>
      <trkpt lat="50.40624" lon="4.32437">
        <ele>155.4</ele>
        <time>2024-06-25T10:42:43Z</time>
      </trkpt>
      <trkpt lat="50.40646" lon="4.32468">
        <ele>155.2</ele>
        <time>2024-06-25T10:42:49Z</time>
      </trkpt>
      <trkpt lat="50.40671" lon="4.325">
        <ele>155.4</ele>
        <time>2024-06-25T10:42:56Z</time>
      </trkpt>
      <trkpt lat="50.40688" lon="4.32523">
        <ele>155.2</ele>
        <time>2024-06-25T10:43:02Z</time>
      </trkpt>
      <trkpt lat="50.40698" lon="4.32538">
        <ele>155.2</ele>
        <time>2024-06-25T10:43:07Z</time>
      </trkpt>
      <trkpt lat="50.40703" lon="4.32555">
        <ele>155</ele>
        <time>2024-06-25T10:43:11Z</time>
      </trkpt>
      <trkpt lat="50.40705" lon="4.32565">
        <ele>155</ele>
        <time>2024-06-25T10:43:16Z</time>
      </trkpt>
      <trkpt lat="50.40711" lon="4.32567">
        <ele>155</ele>
        <time>2024-06-25T10:43:21Z</time>
      </trkpt>
      <trkpt lat="50.40719" lon="4.32571">
        <ele>154.8</ele>
        <time>2024-06-25T10:43:26Z</time>
      </trkpt>
      <trkpt lat="50.4073" lon="4.32573">
        <ele>154.8</ele>
        <time>2024-06-25T10:43:30Z</time>
      </trkpt>
      <trkpt lat="50.40746" lon="4.32584">
        <ele>154.4</ele>
        <time>2024-06-25T10:43:35Z</time>
      </trkpt>
      <trkpt lat="50.4077" lon="4.32612">
        <ele>154.2</ele>
        <time>2024-06-25T10:43:42Z</time>
      </trkpt>
      <trkpt lat="50.40789" lon="4.32636">
        <ele>154</ele>
        <time>2024-06-25T10:43:49Z</time>
      </trkpt>
      <trkpt lat="50.40809" lon="4.32656">
        <ele>153.6</ele>
        <time>2024-06-25T10:43:57Z</time>
      </trkpt>
      <trkpt lat="50.40826" lon="4.32674">
        <ele>153.2</ele>
        <time>2024-06-25T10:44:03Z</time>
      </trkpt>
      <trkpt lat="50.40836" lon="4.32684">
        <ele>152.8</ele>
        <time>2024-06-25T10:44:08Z</time>
      </trkpt>
      <trkpt lat="50.40841" lon="4.32669">
        <ele>152.6</ele>
        <time>2024-06-25T10:44:12Z</time>
      </trkpt>
      <trkpt lat="50.40847" lon="4.32657">
        <ele>152.4</ele>
        <time>2024-06-25T10:44:15Z</time>
      </trkpt>
      <trkpt lat="50.4085" lon="4.32656">
        <ele>152.4</ele>
        <time>2024-06-25T10:44:16Z</time>
      </trkpt>
      <trkpt lat="50.40854" lon="4.32657">
        <ele>152.2</ele>
        <time>2024-06-25T10:44:17Z</time>
      </trkpt>
      <trkpt lat="50.40861" lon="4.32665">
        <ele>152</ele>
        <time>2024-06-25T10:44:19Z</time>
      </trkpt>
      <trkpt lat="50.40885" lon="4.32692">
        <ele>151.4</ele>
        <time>2024-06-25T10:44:26Z</time>
      </trkpt>
      <trkpt lat="50.40904" lon="4.32712">
        <ele>150.6</ele>
        <time>2024-06-25T10:44:31Z</time>
      </trkpt>
      <trkpt lat="50.40915" lon="4.32723">
        <ele>150.2</ele>
        <time>2024-06-25T10:44:34Z</time>
      </trkpt>
      <trkpt lat="50.40923" lon="4.32731">
        <ele>150</ele>
        <time>2024-06-25T10:44:36Z</time>
      </trkpt>
      <trkpt lat="50.40927" lon="4.32735">
        <ele>149.8</ele>
        <time>2024-06-25T10:44:37Z</time>
      </trkpt>
      <trkpt lat="50.40942" lon="4.32753">
        <ele>149</ele>
        <time>2024-06-25T10:44:41Z</time>
      </trkpt>
      <trkpt lat="50.40961" lon="4.32772">
        <ele>148.2</ele>
        <time>2024-06-25T10:44:45Z</time>
      </trkpt>
      <trkpt lat="50.41005" lon="4.3282">
        <ele>146.4</ele>
        <time>2024-06-25T10:44:53Z</time>
      </trkpt>
      <trkpt lat="50.41028" lon="4.32856">
        <ele>145</ele>
        <time>2024-06-25T10:44:59Z</time>
      </trkpt>
      <trkpt lat="50.4104" lon="4.32874">
        <ele>144.2</ele>
        <time>2024-06-25T10:45:04Z</time>
      </trkpt>
      <trkpt lat="50.41048" lon="4.32882">
        <ele>143.6</ele>
        <time>2024-06-25T10:45:06Z</time>
      </trkpt>
      <trkpt lat="50.41057" lon="4.32893">
        <ele>143.2</ele>
        <time>2024-06-25T10:45:08Z</time>
      </trkpt>
      <trkpt lat="50.41086" lon="4.32934">
        <ele>141.8</ele>
        <time>2024-06-25T10:45:14Z</time>
      </trkpt>
      <trkpt lat="50.41114" lon="4.32977">
        <ele>139.8</ele>
        <time>2024-06-25T10:45:21Z</time>
      </trkpt>
      <trkpt lat="50.4112" lon="4.32986">
        <ele>139.4</ele>
        <time>2024-06-25T10:45:23Z</time>
      </trkpt>
      <trkpt lat="50.41127" lon="4.32999">
        <ele>139</ele>
        <time>2024-06-25T10:45:26Z</time>
      </trkpt>
      <trkpt lat="50.4113" lon="4.33006">
        <ele>138.2</ele>
        <time>2024-06-25T10:45:30Z</time>
      </trkpt>
      <trkpt lat="50.4113" lon="4.33006">
        <ele>135.8</ele>
        <time>2024-06-25T10:45:45Z</time>
      </trkpt>
      <trkpt lat="50.4113" lon="4.33006">
        <ele>134</ele>
        <time>2024-06-25T10:45:58Z</time>
      </trkpt>
      <trkpt lat="50.41131" lon="4.33006">
        <ele>134</ele>
        <time>2024-06-25T10:45:59Z</time>
      </trkpt>
      <trkpt lat="50.41134" lon="4.33007">
        <ele>133.6</ele>
        <time>2024-06-25T10:46:01Z</time>
      </trkpt>
      <trkpt lat="50.41138" lon="4.33009">
        <ele>133.6</ele>
        <time>2024-06-25T10:46:02Z</time>
      </trkpt>
      <trkpt lat="50.41139" lon="4.33014">
        <ele>133.8</ele>
        <time>2024-06-25T10:46:03Z</time>
      </trkpt>
      <trkpt lat="50.41137" lon="4.33023">
        <ele>133.8</ele>
        <time>2024-06-25T10:46:05Z</time>
      </trkpt>
      <trkpt lat="50.41125" lon="4.3304">
        <ele>133.8</ele>
        <time>2024-06-25T10:46:10Z</time>
      </trkpt>
      <trkpt lat="50.41108" lon="4.33067">
        <ele>133.6</ele>
        <time>2024-06-25T10:46:16Z</time>
      </trkpt>
      <trkpt lat="50.41082" lon="4.33106">
        <ele>134.4</ele>
        <time>2024-06-25T10:46:25Z</time>
      </trkpt>
      <trkpt lat="50.41074" lon="4.33122">
        <ele>134.2</ele>
        <time>2024-06-25T10:46:28Z</time>
      </trkpt>
      <trkpt lat="50.4107" lon="4.33137">
        <ele>134.2</ele>
        <time>2024-06-25T10:46:30Z</time>
      </trkpt>
      <trkpt lat="50.41056" lon="4.3318">
        <ele>134.6</ele>
        <time>2024-06-25T10:46:36Z</time>
      </trkpt>
      <trkpt lat="50.41055" lon="4.33186">
        <ele>134.6</ele>
        <time>2024-06-25T10:46:37Z</time>
      </trkpt>
      <trkpt lat="50.41048" lon="4.33226">
        <ele>135</ele>
        <time>2024-06-25T10:46:43Z</time>
      </trkpt>
      <trkpt lat="50.41045" lon="4.33245">
        <ele>135.2</ele>
        <time>2024-06-25T10:46:46Z</time>
      </trkpt>
      <trkpt lat="50.4104" lon="4.33276">
        <ele>135.6</ele>
        <time>2024-06-25T10:46:51Z</time>
      </trkpt>
      <trkpt lat="50.41031" lon="4.33324">
        <ele>136.4</ele>
        <time>2024-06-25T10:46:58Z</time>
      </trkpt>
      <trkpt lat="50.41018" lon="4.33391">
        <ele>137.4</ele>
        <time>2024-06-25T10:47:09Z</time>
      </trkpt>
      <trkpt lat="50.41016" lon="4.33396">
        <ele>137.6</ele>
        <time>2024-06-25T10:47:10Z</time>
      </trkpt>
      <trkpt lat="50.41005" lon="4.33408">
        <ele>137.8</ele>
        <time>2024-06-25T10:47:13Z</time>
      </trkpt>
      <trkpt lat="50.40998" lon="4.3342">
        <ele>138</ele>
        <time>2024-06-25T10:47:15Z</time>
      </trkpt>
      <trkpt lat="50.40994" lon="4.33436">
        <ele>138.2</ele>
        <time>2024-06-25T10:47:17Z</time>
      </trkpt>
      <trkpt lat="50.40992" lon="4.33455">
        <ele>138.2</ele>
        <time>2024-06-25T10:47:19Z</time>
      </trkpt>
      <trkpt lat="50.40994" lon="4.33484">
        <ele>138.4</ele>
        <time>2024-06-25T10:47:22Z</time>
      </trkpt>
      <trkpt lat="50.41002" lon="4.33535">
        <ele>138.8</ele>
        <time>2024-06-25T10:47:28Z</time>
      </trkpt>
      <trkpt lat="50.41009" lon="4.33572">
        <ele>139</ele>
        <time>2024-06-25T10:47:33Z</time>
      </trkpt>
      <trkpt lat="50.41011" lon="4.33579">
        <ele>139.2</ele>
        <time>2024-06-25T10:47:34Z</time>
      </trkpt>
      <trkpt lat="50.41028" lon="4.33615">
        <ele>139.2</ele>
        <time>2024-06-25T10:47:39Z</time>
      </trkpt>
      <trkpt lat="50.4103" lon="4.33623">
        <ele>139.2</ele>
        <time>2024-06-25T10:47:40Z</time>
      </trkpt>
      <trkpt lat="50.41032" lon="4.33639">
        <ele>139.4</ele>
        <time>2024-06-25T10:47:42Z</time>
      </trkpt>
      <trkpt lat="50.4103" lon="4.33691">
        <ele>139.6</ele>
        <time>2024-06-25T10:47:48Z</time>
      </trkpt>
      <trkpt lat="50.41025" lon="4.33761">
        <ele>139.8</ele>
        <time>2024-06-25T10:47:56Z</time>
      </trkpt>
      <trkpt lat="50.41021" lon="4.33848">
        <ele>140.2</ele>
        <time>2024-06-25T10:48:06Z</time>
      </trkpt>
      <trkpt lat="50.41022" lon="4.33917">
        <ele>140.6</ele>
        <time>2024-06-25T10:48:14Z</time>
      </trkpt>
      <trkpt lat="50.4103" lon="4.33981">
        <ele>141</ele>
        <time>2024-06-25T10:48:21Z</time>
      </trkpt>
      <trkpt lat="50.41035" lon="4.34052">
        <ele>141.2</ele>
        <time>2024-06-25T10:48:29Z</time>
      </trkpt>
      <trkpt lat="50.41037" lon="4.34078">
        <ele>141.2</ele>
        <time>2024-06-25T10:48:32Z</time>
      </trkpt>
      <trkpt lat="50.41035" lon="4.34096">
        <ele>141</ele>
        <time>2024-06-25T10:48:34Z</time>
      </trkpt>
      <trkpt lat="50.41033" lon="4.34123">
        <ele>141.2</ele>
        <time>2024-06-25T10:48:37Z</time>
      </trkpt>
      <trkpt lat="50.41037" lon="4.34138">
        <ele>141.2</ele>
        <time>2024-06-25T10:48:39Z</time>
      </trkpt>
      <trkpt lat="50.41045" lon="4.34147">
        <ele>141.4</ele>
        <time>2024-06-25T10:48:41Z</time>
      </trkpt>
      <trkpt lat="50.41055" lon="4.34153">
        <ele>141.4</ele>
        <time>2024-06-25T10:48:43Z</time>
      </trkpt>
      <trkpt lat="50.41076" lon="4.34166">
        <ele>141.8</ele>
        <time>2024-06-25T10:48:48Z</time>
      </trkpt>
      <trkpt lat="50.41102" lon="4.34182">
        <ele>142.4</ele>
        <time>2024-06-25T10:48:55Z</time>
      </trkpt>
      <trkpt lat="50.41137" lon="4.342">
        <ele>143.2</ele>
        <time>2024-06-25T10:49:04Z</time>
      </trkpt>
      <trkpt lat="50.41168" lon="4.34218">
        <ele>143.8</ele>
        <time>2024-06-25T10:49:12Z</time>
      </trkpt>
      <trkpt lat="50.4118" lon="4.34233">
        <ele>144</ele>
        <time>2024-06-25T10:49:17Z</time>
      </trkpt>
      <trkpt lat="50.41189" lon="4.34261">
        <ele>144.4</ele>
        <time>2024-06-25T10:49:23Z</time>
      </trkpt>
      <trkpt lat="50.41195" lon="4.34294">
        <ele>144.8</ele>
        <time>2024-06-25T10:49:29Z</time>
      </trkpt>
      <trkpt lat="50.41202" lon="4.34325">
        <ele>144.8</ele>
        <time>2024-06-25T10:49:35Z</time>
      </trkpt>
      <trkpt lat="50.41201" lon="4.34338">
        <ele>145</ele>
        <time>2024-06-25T10:49:39Z</time>
      </trkpt>
      <trkpt lat="50.41202" lon="4.34342">
        <ele>145</ele>
        <time>2024-06-25T10:49:40Z</time>
      </trkpt>
      <trkpt lat="50.41207" lon="4.3437">
        <ele>145</ele>
        <time>2024-06-25T10:49:44Z</time>
      </trkpt>
      <trkpt lat="50.41213" lon="4.34413">
        <ele>145</ele>
        <time>2024-06-25T10:49:50Z</time>
      </trkpt>
      <trkpt lat="50.41217" lon="4.34469">
        <ele>145</ele>
        <time>2024-06-25T10:49:58Z</time>
      </trkpt>
      <trkpt lat="50.41217" lon="4.34482">
        <ele>145</ele>
        <time>2024-06-25T10:50:00Z</time>
      </trkpt>
      <trkpt lat="50.41218" lon="4.34507">
        <ele>144.8</ele>
        <time>2024-06-25T10:50:04Z</time>
      </trkpt>
      <trkpt lat="50.41218" lon="4.34519">
        <ele>145</ele>
        <time>2024-06-25T10:50:06Z</time>
      </trkpt>
      <trkpt lat="50.41218" lon="4.34541">
        <ele>144.8</ele>
        <time>2024-06-25T10:50:09Z</time>
      </trkpt>
      <trkpt lat="50.41219" lon="4.34611">
        <ele>145</ele>
        <time>2024-06-25T10:50:18Z</time>
      </trkpt>
      <trkpt lat="50.4122" lon="4.3467">
        <ele>145.4</ele>
        <time>2024-06-25T10:50:26Z</time>
      </trkpt>
      <trkpt lat="50.4122" lon="4.34683">
        <ele>145.4</ele>
        <time>2024-06-25T10:50:28Z</time>
      </trkpt>
      <trkpt lat="50.41221" lon="4.34704">
        <ele>145.8</ele>
        <time>2024-06-25T10:50:31Z</time>
      </trkpt>
      <trkpt lat="50.41221" lon="4.34745">
        <ele>146.2</ele>
        <time>2024-06-25T10:50:37Z</time>
      </trkpt>
      <trkpt lat="50.41221" lon="4.34768">
        <ele>147</ele>
        <time>2024-06-25T10:50:41Z</time>
      </trkpt>
      <trkpt lat="50.41218" lon="4.34796">
        <ele>147.8</ele>
        <time>2024-06-25T10:50:46Z</time>
      </trkpt>
      <trkpt lat="50.41216" lon="4.34809">
        <ele>148.2</ele>
        <time>2024-06-25T10:50:48Z</time>
      </trkpt>
      <trkpt lat="50.41214" lon="4.34814">
        <ele>148.4</ele>
        <time>2024-06-25T10:50:49Z</time>
      </trkpt>
      <trkpt lat="50.41213" lon="4.34827">
        <ele>148.6</ele>
        <time>2024-06-25T10:50:51Z</time>
      </trkpt>
      <trkpt lat="50.41211" lon="4.3484">
        <ele>149</ele>
        <time>2024-06-25T10:50:53Z</time>
      </trkpt>
      <trkpt lat="50.41211" lon="4.34869">
        <ele>150</ele>
        <time>2024-06-25T10:50:57Z</time>
      </trkpt>
      <trkpt lat="50.41211" lon="4.34878">
        <ele>150.2</ele>
        <time>2024-06-25T10:50:58Z</time>
      </trkpt>
      <trkpt lat="50.41209" lon="4.34894">
        <ele>150.8</ele>
        <time>2024-06-25T10:51:00Z</time>
      </trkpt>
      <trkpt lat="50.41208" lon="4.34916">
        <ele>151.4</ele>
        <time>2024-06-25T10:51:03Z</time>
      </trkpt>
      <trkpt lat="50.41207" lon="4.34923">
        <ele>151.6</ele>
        <time>2024-06-25T10:51:04Z</time>
      </trkpt>
      <trkpt lat="50.41205" lon="4.34948">
        <ele>152.6</ele>
        <time>2024-06-25T10:51:08Z</time>
      </trkpt>
      <trkpt lat="50.41204" lon="4.34967">
        <ele>153.2</ele>
        <time>2024-06-25T10:51:11Z</time>
      </trkpt>
      <trkpt lat="50.41204" lon="4.34974">
        <ele>153.4</ele>
        <time>2024-06-25T10:51:12Z</time>
      </trkpt>
      <trkpt lat="50.41203" lon="4.35">
        <ele>154</ele>
        <time>2024-06-25T10:51:16Z</time>
      </trkpt>
      <trkpt lat="50.41202" lon="4.35027">
        <ele>154.8</ele>
        <time>2024-06-25T10:51:20Z</time>
      </trkpt>
      <trkpt lat="50.41204" lon="4.35052">
        <ele>155.6</ele>
        <time>2024-06-25T10:51:23Z</time>
      </trkpt>
      <trkpt lat="50.41206" lon="4.35068">
        <ele>156.2</ele>
        <time>2024-06-25T10:51:25Z</time>
      </trkpt>
      <trkpt lat="50.41206" lon="4.35075">
        <ele>156.6</ele>
        <time>2024-06-25T10:51:26Z</time>
      </trkpt>
      <trkpt lat="50.41205" lon="4.3509">
        <ele>157</ele>
        <time>2024-06-25T10:51:28Z</time>
      </trkpt>
      <trkpt lat="50.41206" lon="4.35098">
        <ele>157.2</ele>
        <time>2024-06-25T10:51:29Z</time>
      </trkpt>
      <trkpt lat="50.41204" lon="4.35132">
        <ele>158.4</ele>
        <time>2024-06-25T10:51:34Z</time>
      </trkpt>
      <trkpt lat="50.41201" lon="4.35152">
        <ele>159.4</ele>
        <time>2024-06-25T10:51:38Z</time>
      </trkpt>
      <trkpt lat="50.41201" lon="4.35154">
        <ele>159.4</ele>
        <time>2024-06-25T10:51:39Z</time>
      </trkpt>
      <trkpt lat="50.41201" lon="4.35162">
        <ele>160.2</ele>
        <time>2024-06-25T10:51:42Z</time>
      </trkpt>
      <trkpt lat="50.41199" lon="4.35166">
        <ele>160.8</ele>
        <time>2024-06-25T10:51:44Z</time>
      </trkpt>
      <trkpt lat="50.41194" lon="4.35167">
        <ele>161.4</ele>
        <time>2024-06-25T10:51:47Z</time>
      </trkpt>
      <trkpt lat="50.41191" lon="4.35169">
        <ele>161.8</ele>
        <time>2024-06-25T10:51:49Z</time>
      </trkpt>
      <trkpt lat="50.41188" lon="4.35171">
        <ele>162.6</ele>
        <time>2024-06-25T10:51:54Z</time>
      </trkpt>
      <trkpt lat="50.41188" lon="4.35171">
        <ele>164.8</ele>
        <time>2024-06-25T10:52:07Z</time>
      </trkpt>
      <trkpt lat="50.41188" lon="4.35171">
        <ele>167</ele>
        <time>2024-06-25T10:52:23Z</time>
      </trkpt>
      <trkpt lat="50.41187" lon="4.35171">
        <ele>169.4</ele>
        <time>2024-06-25T10:52:44Z</time>
      </trkpt>
      <trkpt lat="50.41187" lon="4.35171">
        <ele>170.2</ele>
        <time>2024-06-25T10:52:53Z</time>
      </trkpt>
      <trkpt lat="50.41187" lon="4.35171">
        <ele>171.6</ele>
        <time>2024-06-25T10:53:10Z</time>
      </trkpt>
      <trkpt lat="50.41187" lon="4.35172">
        <ele>172.6</ele>
        <time>2024-06-25T10:53:23Z</time>
      </trkpt>
      <trkpt lat="50.41187" lon="4.35172">
        <ele>173.8</ele>
        <time>2024-06-25T10:53:42Z</time>
      </trkpt>
      <trkpt lat="50.41187" lon="4.35172">
        <ele>174.4</ele>
        <time>2024-06-25T10:53:56Z</time>
      </trkpt>
      <trkpt lat="50.41187" lon="4.35173">
        <ele>174.8</ele>
        <time>2024-06-25T10:54:03Z</time>
      </trkpt>
      <trkpt lat="50.41187" lon="4.35173">
        <ele>175.6</ele>
        <time>2024-06-25T10:54:21Z</time>
      </trkpt>
      <trkpt lat="50.41183" lon="4.35177">
        <ele>175.6</ele>
        <time>2024-06-25T10:54:27Z</time>
      </trkpt>
      <trkpt lat="50.41181" lon="4.35177">
        <ele>175.6</ele>
        <time>2024-06-25T10:54:28Z</time>
      </trkpt>
      <trkpt lat="50.41179" lon="4.3518">
        <ele>175.4</ele>
        <time>2024-06-25T10:54:32Z</time>
      </trkpt>
      <trkpt lat="50.41175" lon="4.35181">
        <ele>175.6</ele>
        <time>2024-06-25T10:54:34Z</time>
      </trkpt>
      <trkpt lat="50.4117" lon="4.35184">
        <ele>175.2</ele>
        <time>2024-06-25T10:54:36Z</time>
      </trkpt>
      <trkpt lat="50.41165" lon="4.35186">
        <ele>175</ele>
        <time>2024-06-25T10:54:38Z</time>
      </trkpt>
      <trkpt lat="50.4116" lon="4.3519">
        <ele>174.8</ele>
        <time>2024-06-25T10:54:40Z</time>
      </trkpt>
      <trkpt lat="50.41147" lon="4.35195">
        <ele>174.2</ele>
        <time>2024-06-25T10:54:46Z</time>
      </trkpt>
      <trkpt lat="50.41133" lon="4.352">
        <ele>173.8</ele>
        <time>2024-06-25T10:54:52Z</time>
      </trkpt>
      <trkpt lat="50.4113" lon="4.35201">
        <ele>173.8</ele>
        <time>2024-06-25T10:54:53Z</time>
      </trkpt>
      <trkpt lat="50.41121" lon="4.35205">
        <ele>173.6</ele>
        <time>2024-06-25T10:54:56Z</time>
      </trkpt>
      <trkpt lat="50.41101" lon="4.35214">
        <ele>173.4</ele>
        <time>2024-06-25T10:55:02Z</time>
      </trkpt>
      <trkpt lat="50.4108" lon="4.35228">
        <ele>173</ele>
        <time>2024-06-25T10:55:07Z</time>
      </trkpt>
      <trkpt lat="50.41067" lon="4.35235">
        <ele>172.6</ele>
        <time>2024-06-25T10:55:10Z</time>
      </trkpt>
      <trkpt lat="50.41055" lon="4.35242">
        <ele>172.4</ele>
        <time>2024-06-25T10:55:13Z</time>
      </trkpt>
      <trkpt lat="50.4104" lon="4.3525">
        <ele>172</ele>
        <time>2024-06-25T10:55:17Z</time>
      </trkpt>
      <trkpt lat="50.41022" lon="4.35246">
        <ele>171.2</ele>
        <time>2024-06-25T10:55:22Z</time>
      </trkpt>
      <trkpt lat="50.41009" lon="4.35235">
        <ele>170.8</ele>
        <time>2024-06-25T10:55:26Z</time>
      </trkpt>
      <trkpt lat="50.40997" lon="4.35224">
        <ele>170</ele>
        <time>2024-06-25T10:55:30Z</time>
      </trkpt>
      <trkpt lat="50.40984" lon="4.35212">
        <ele>169.4</ele>
        <time>2024-06-25T10:55:34Z</time>
      </trkpt>
      <trkpt lat="50.4097" lon="4.35201">
        <ele>168.6</ele>
        <time>2024-06-25T10:55:39Z</time>
      </trkpt>
      <trkpt lat="50.40955" lon="4.35186">
        <ele>167.4</ele>
        <time>2024-06-25T10:55:44Z</time>
      </trkpt>
      <trkpt lat="50.4094" lon="4.35175">
        <ele>166.2</ele>
        <time>2024-06-25T10:55:49Z</time>
      </trkpt>
      <trkpt lat="50.40939" lon="4.35174">
        <ele>165.2</ele>
        <time>2024-06-25T10:55:54Z</time>
      </trkpt>
      <trkpt lat="50.40939" lon="4.35174">
        <ele>163.2</ele>
        <time>2024-06-25T10:56:10Z</time>
      </trkpt>
      <trkpt lat="50.40937" lon="4.35176">
        <ele>162.2</ele>
        <time>2024-06-25T10:56:16Z</time>
      </trkpt>
      <trkpt lat="50.40933" lon="4.35182">
        <ele>161.6</ele>
        <time>2024-06-25T10:56:20Z</time>
      </trkpt>
      <trkpt lat="50.4093" lon="4.35186">
        <ele>161.4</ele>
        <time>2024-06-25T10:56:22Z</time>
      </trkpt>
      <trkpt lat="50.40929" lon="4.35187">
        <ele>161.2</ele>
        <time>2024-06-25T10:56:24Z</time>
      </trkpt>
      <trkpt lat="50.40929" lon="4.35187">
        <ele>159.6</ele>
        <time>2024-06-25T10:56:40Z</time>
      </trkpt>
      <trkpt lat="50.40929" lon="4.35187">
        <ele>158.2</ele>
        <time>2024-06-25T10:56:59Z</time>
      </trkpt>
      <trkpt lat="50.40921" lon="4.35202">
        <ele>157.2</ele>
        <time>2024-06-25T10:57:05Z</time>
      </trkpt>
      <trkpt lat="50.40917" lon="4.35208">
        <ele>157</ele>
        <time>2024-06-25T10:57:07Z</time>
      </trkpt>
      <trkpt lat="50.40915" lon="4.35215">
        <ele>157</ele>
        <time>2024-06-25T10:57:09Z</time>
      </trkpt>
      <trkpt lat="50.40909" lon="4.35231">
        <ele>156.6</ele>
        <time>2024-06-25T10:57:13Z</time>
      </trkpt>
      <trkpt lat="50.40902" lon="4.35249">
        <ele>156.2</ele>
        <time>2024-06-25T10:57:18Z</time>
      </trkpt>
      <trkpt lat="50.40893" lon="4.35271">
        <ele>155.6</ele>
        <time>2024-06-25T10:57:23Z</time>
      </trkpt>
      <trkpt lat="50.40891" lon="4.35278">
        <ele>155.4</ele>
        <time>2024-06-25T10:57:25Z</time>
      </trkpt>
      <trkpt lat="50.40888" lon="4.35287">
        <ele>155.2</ele>
        <time>2024-06-25T10:57:27Z</time>
      </trkpt>
      <trkpt lat="50.40878" lon="4.35315">
        <ele>154.4</ele>
        <time>2024-06-25T10:57:32Z</time>
      </trkpt>
      <trkpt lat="50.40873" lon="4.35331">
        <ele>154</ele>
        <time>2024-06-25T10:57:35Z</time>
      </trkpt>
      <trkpt lat="50.40867" lon="4.35342">
        <ele>153.8</ele>
        <time>2024-06-25T10:57:37Z</time>
      </trkpt>
      <trkpt lat="50.40857" lon="4.35365">
        <ele>153.4</ele>
        <time>2024-06-25T10:57:41Z</time>
      </trkpt>
      <trkpt lat="50.40846" lon="4.35385">
        <ele>153.4</ele>
        <time>2024-06-25T10:57:46Z</time>
      </trkpt>
      <trkpt lat="50.40839" lon="4.35388">
        <ele>153.4</ele>
        <time>2024-06-25T10:57:48Z</time>
      </trkpt>
      <trkpt lat="50.40833" lon="4.35392">
        <ele>153.4</ele>
        <time>2024-06-25T10:57:50Z</time>
      </trkpt>
      <trkpt lat="50.40828" lon="4.35393">
        <ele>153.2</ele>
        <time>2024-06-25T10:57:52Z</time>
      </trkpt>
      <trkpt lat="50.40826" lon="4.35396">
        <ele>153</ele>
        <time>2024-06-25T10:57:53Z</time>
      </trkpt>
      <trkpt lat="50.40825" lon="4.354">
        <ele>153</ele>
        <time>2024-06-25T10:57:54Z</time>
      </trkpt>
      <trkpt lat="50.40822" lon="4.35412">
        <ele>152.8</ele>
        <time>2024-06-25T10:57:57Z</time>
      </trkpt>
      <trkpt lat="50.40817" lon="4.35434">
        <ele>152.6</ele>
        <time>2024-06-25T10:58:02Z</time>
      </trkpt>
      <trkpt lat="50.40814" lon="4.35443">
        <ele>152.6</ele>
        <time>2024-06-25T10:58:04Z</time>
      </trkpt>
      <trkpt lat="50.40813" lon="4.35451">
        <ele>152.4</ele>
        <time>2024-06-25T10:58:06Z</time>
      </trkpt>
      <trkpt lat="50.40808" lon="4.3546">
        <ele>152.6</ele>
        <time>2024-06-25T10:58:10Z</time>
      </trkpt>
      <trkpt lat="50.40808" lon="4.35462">
        <ele>152.8</ele>
        <time>2024-06-25T10:58:18Z</time>
      </trkpt>
      <trkpt lat="50.40808" lon="4.35467">
        <ele>152.6</ele>
        <time>2024-06-25T10:58:24Z</time>
      </trkpt>
      <trkpt lat="50.40807" lon="4.3547">
        <ele>152.4</ele>
        <time>2024-06-25T10:58:25Z</time>
      </trkpt>
      <trkpt lat="50.40804" lon="4.35477">
        <ele>152.4</ele>
        <time>2024-06-25T10:58:30Z</time>
      </trkpt>
      <trkpt lat="50.40805" lon="4.35479">
        <ele>152.8</ele>
        <time>2024-06-25T10:58:31Z</time>
      </trkpt>
      <trkpt lat="50.40808" lon="4.3548">
        <ele>153</ele>
        <time>2024-06-25T10:58:35Z</time>
      </trkpt>
      <trkpt lat="50.40808" lon="4.3548">
        <ele>153</ele>
        <time>2024-06-25T10:58:37Z</time>
      </trkpt>
      <trkpt lat="50.40811" lon="4.35487">
        <ele>153</ele>
        <time>2024-06-25T10:58:40Z</time>
      </trkpt>
      <trkpt lat="50.40811" lon="4.35493">
        <ele>153</ele>
        <time>2024-06-25T10:58:42Z</time>
      </trkpt>
      <trkpt lat="50.4081" lon="4.35499">
        <ele>153</ele>
        <time>2024-06-25T10:58:44Z</time>
      </trkpt>
      <trkpt lat="50.40806" lon="4.35509">
        <ele>153.4</ele>
        <time>2024-06-25T10:58:47Z</time>
      </trkpt>
      <trkpt lat="50.40798" lon="4.35527">
        <ele>153.8</ele>
        <time>2024-06-25T10:58:52Z</time>
      </trkpt>
      <trkpt lat="50.40791" lon="4.35533">
        <ele>153.8</ele>
        <time>2024-06-25T10:58:55Z</time>
      </trkpt>
      <trkpt lat="50.4079" lon="4.35536">
        <ele>154</ele>
        <time>2024-06-25T10:58:56Z</time>
      </trkpt>
      <trkpt lat="50.40786" lon="4.35548">
        <ele>154.2</ele>
        <time>2024-06-25T10:58:59Z</time>
      </trkpt>
      <trkpt lat="50.40782" lon="4.35566">
        <ele>154.6</ele>
        <time>2024-06-25T10:59:03Z</time>
      </trkpt>
      <trkpt lat="50.40782" lon="4.3557">
        <ele>154.6</ele>
        <time>2024-06-25T10:59:04Z</time>
      </trkpt>
      <trkpt lat="50.40779" lon="4.35585">
        <ele>154.6</ele>
        <time>2024-06-25T10:59:07Z</time>
      </trkpt>
      <trkpt lat="50.40778" lon="4.3559">
        <ele>154.6</ele>
        <time>2024-06-25T10:59:08Z</time>
      </trkpt>
      <trkpt lat="50.40769" lon="4.35618">
        <ele>154.2</ele>
        <time>2024-06-25T10:59:13Z</time>
      </trkpt>
      <trkpt lat="50.40763" lon="4.35636">
        <ele>153.6</ele>
        <time>2024-06-25T10:59:18Z</time>
      </trkpt>
      <trkpt lat="50.40762" lon="4.35643">
        <ele>153.4</ele>
        <time>2024-06-25T10:59:20Z</time>
      </trkpt>
      <trkpt lat="50.40759" lon="4.35647">
        <ele>153.2</ele>
        <time>2024-06-25T10:59:22Z</time>
      </trkpt>
      <trkpt lat="50.40759" lon="4.35654">
        <ele>153.2</ele>
        <time>2024-06-25T10:59:23Z</time>
      </trkpt>
      <trkpt lat="50.40759" lon="4.35664">
        <ele>153.2</ele>
        <time>2024-06-25T10:59:25Z</time>
      </trkpt>
      <trkpt lat="50.40756" lon="4.3569">
        <ele>152.8</ele>
        <time>2024-06-25T10:59:29Z</time>
      </trkpt>
      <trkpt lat="50.40753" lon="4.35722">
        <ele>152.4</ele>
        <time>2024-06-25T10:59:34Z</time>
      </trkpt>
      <trkpt lat="50.40752" lon="4.35738">
        <ele>152</ele>
        <time>2024-06-25T10:59:38Z</time>
      </trkpt>
      <trkpt lat="50.40749" lon="4.35759">
        <ele>151.2</ele>
        <time>2024-06-25T10:59:43Z</time>
      </trkpt>
      <trkpt lat="50.40749" lon="4.35781">
        <ele>150.4</ele>
        <time>2024-06-25T10:59:48Z</time>
      </trkpt>
      <trkpt lat="50.40749" lon="4.358">
        <ele>150.2</ele>
        <time>2024-06-25T10:59:52Z</time>
      </trkpt>
      <trkpt lat="50.40749" lon="4.35806">
        <ele>149.8</ele>
        <time>2024-06-25T10:59:57Z</time>
      </trkpt>
      <trkpt lat="50.40749" lon="4.35806">
        <ele>148.8</ele>
        <time>2024-06-25T11:00:08Z</time>
      </trkpt>
      <trkpt lat="50.40749" lon="4.35806">
        <ele>147.6</ele>
        <time>2024-06-25T11:00:27Z</time>
      </trkpt>
      <trkpt lat="50.40749" lon="4.35806">
        <ele>146.8</ele>
        <time>2024-06-25T11:00:45Z</time>
      </trkpt>
      <trkpt lat="50.40749" lon="4.35806">
        <ele>146.2</ele>
        <time>2024-06-25T11:01:01Z</time>
      </trkpt>
      <trkpt lat="50.40748" lon="4.35813">
        <ele>146.2</ele>
        <time>2024-06-25T11:01:13Z</time>
      </trkpt>
      <trkpt lat="50.40746" lon="4.3582">
        <ele>146.2</ele>
        <time>2024-06-25T11:01:15Z</time>
      </trkpt>
      <trkpt lat="50.40746" lon="4.35826">
        <ele>146</ele>
        <time>2024-06-25T11:01:17Z</time>
      </trkpt>
      <trkpt lat="50.40742" lon="4.35852">
        <ele>145.6</ele>
        <time>2024-06-25T11:01:21Z</time>
      </trkpt>
      <trkpt lat="50.40741" lon="4.35866">
        <ele>145.4</ele>
        <time>2024-06-25T11:01:23Z</time>
      </trkpt>
      <trkpt lat="50.4074" lon="4.35886">
        <ele>145</ele>
        <time>2024-06-25T11:01:26Z</time>
      </trkpt>
      <trkpt lat="50.4074" lon="4.35912">
        <ele>144.4</ele>
        <time>2024-06-25T11:01:31Z</time>
      </trkpt>
      <trkpt lat="50.40741" lon="4.35939">
        <ele>144.2</ele>
        <time>2024-06-25T11:01:37Z</time>
      </trkpt>
      <trkpt lat="50.40741" lon="4.35946">
        <ele>144.2</ele>
        <time>2024-06-25T11:01:39Z</time>
      </trkpt>
      <trkpt lat="50.40739" lon="4.35954">
        <ele>144</ele>
        <time>2024-06-25T11:01:41Z</time>
      </trkpt>
      <trkpt lat="50.4074" lon="4.35985">
        <ele>144</ele>
        <time>2024-06-25T11:01:47Z</time>
      </trkpt>
      <trkpt lat="50.4074" lon="4.35998">
        <ele>144</ele>
        <time>2024-06-25T11:01:52Z</time>
      </trkpt>
      <trkpt lat="50.40741" lon="4.36002">
        <ele>143.8</ele>
        <time>2024-06-25T11:02:00Z</time>
      </trkpt>
      <trkpt lat="50.40745" lon="4.36021">
        <ele>144.4</ele>
        <time>2024-06-25T11:02:04Z</time>
      </trkpt>
      <trkpt lat="50.40746" lon="4.36036">
        <ele>144.4</ele>
        <time>2024-06-25T11:02:07Z</time>
      </trkpt>
      <trkpt lat="50.40749" lon="4.36069">
        <ele>144.6</ele>
        <time>2024-06-25T11:02:13Z</time>
      </trkpt>
      <trkpt lat="50.40754" lon="4.36112">
        <ele>145</ele>
        <time>2024-06-25T11:02:20Z</time>
      </trkpt>
      <trkpt lat="50.40756" lon="4.36124">
        <ele>145.2</ele>
        <time>2024-06-25T11:02:22Z</time>
      </trkpt>
      <trkpt lat="50.40758" lon="4.36142">
        <ele>145.2</ele>
        <time>2024-06-25T11:02:25Z</time>
      </trkpt>
      <trkpt lat="50.40761" lon="4.36155">
        <ele>145</ele>
        <time>2024-06-25T11:02:27Z</time>
      </trkpt>
      <trkpt lat="50.40763" lon="4.36167">
        <ele>145</ele>
        <time>2024-06-25T11:02:29Z</time>
      </trkpt>
      <trkpt lat="50.40766" lon="4.36189">
        <ele>145.4</ele>
        <time>2024-06-25T11:02:33Z</time>
      </trkpt>
      <trkpt lat="50.40773" lon="4.36222">
        <ele>144.6</ele>
        <time>2024-06-25T11:02:38Z</time>
      </trkpt>
      <trkpt lat="50.40786" lon="4.3627">
        <ele>144</ele>
        <time>2024-06-25T11:02:45Z</time>
      </trkpt>
      <trkpt lat="50.40796" lon="4.36309">
        <ele>143.6</ele>
        <time>2024-06-25T11:02:50Z</time>
      </trkpt>
      <trkpt lat="50.40798" lon="4.36317">
        <ele>143.4</ele>
        <time>2024-06-25T11:02:51Z</time>
      </trkpt>
      <trkpt lat="50.40807" lon="4.36348">
        <ele>143</ele>
        <time>2024-06-25T11:02:55Z</time>
      </trkpt>
      <trkpt lat="50.40818" lon="4.36381">
        <ele>142.6</ele>
        <time>2024-06-25T11:03:00Z</time>
      </trkpt>
      <trkpt lat="50.40834" lon="4.3642">
        <ele>141.8</ele>
        <time>2024-06-25T11:03:06Z</time>
      </trkpt>
      <trkpt lat="50.40852" lon="4.36462">
        <ele>141.4</ele>
        <time>2024-06-25T11:03:12Z</time>
      </trkpt>
      <trkpt lat="50.40868" lon="4.36497">
        <ele>140.4</ele>
        <time>2024-06-25T11:03:18Z</time>
      </trkpt>
      <trkpt lat="50.40885" lon="4.3653">
        <ele>139.6</ele>
        <time>2024-06-25T11:03:24Z</time>
      </trkpt>
      <trkpt lat="50.40891" lon="4.36541">
        <ele>139.4</ele>
        <time>2024-06-25T11:03:26Z</time>
      </trkpt>
      <trkpt lat="50.40899" lon="4.36559">
        <ele>139.4</ele>
        <time>2024-06-25T11:03:29Z</time>
      </trkpt>
      <trkpt lat="50.40911" lon="4.3658">
        <ele>139.2</ele>
        <time>2024-06-25T11:03:33Z</time>
      </trkpt>
      <trkpt lat="50.40914" lon="4.36586">
        <ele>139.2</ele>
        <time>2024-06-25T11:03:34Z</time>
      </trkpt>
      <trkpt lat="50.40934" lon="4.36618">
        <ele>138.6</ele>
        <time>2024-06-25T11:03:40Z</time>
      </trkpt>
      <trkpt lat="50.40938" lon="4.36624">
        <ele>138.4</ele>
        <time>2024-06-25T11:03:41Z</time>
      </trkpt>
      <trkpt lat="50.40954" lon="4.36644">
        <ele>137.8</ele>
        <time>2024-06-25T11:03:45Z</time>
      </trkpt>
      <trkpt lat="50.40961" lon="4.36653">
        <ele>137.6</ele>
        <time>2024-06-25T11:03:47Z</time>
      </trkpt>
      <trkpt lat="50.40976" lon="4.36673">
        <ele>136.8</ele>
        <time>2024-06-25T11:03:51Z</time>
      </trkpt>
      <trkpt lat="50.4098" lon="4.36679">
        <ele>136.6</ele>
        <time>2024-06-25T11:03:52Z</time>
      </trkpt>
      <trkpt lat="50.41001" lon="4.36707">
        <ele>135.4</ele>
        <time>2024-06-25T11:03:58Z</time>
      </trkpt>
      <trkpt lat="50.41019" lon="4.36726">
        <ele>135</ele>
        <time>2024-06-25T11:04:03Z</time>
      </trkpt>
      <trkpt lat="50.4104" lon="4.36748">
        <ele>135.6</ele>
        <time>2024-06-25T11:04:09Z</time>
      </trkpt>
      <trkpt lat="50.41041" lon="4.3676">
        <ele>135.8</ele>
        <time>2024-06-25T11:04:12Z</time>
      </trkpt>
      <trkpt lat="50.41034" lon="4.36784">
        <ele>136.2</ele>
        <time>2024-06-25T11:04:17Z</time>
      </trkpt>
      <trkpt lat="50.4102" lon="4.3682">
        <ele>136.4</ele>
        <time>2024-06-25T11:04:24Z</time>
      </trkpt>
      <trkpt lat="50.41012" lon="4.36844">
        <ele>136.8</ele>
        <time>2024-06-25T11:04:29Z</time>
      </trkpt>
      <trkpt lat="50.41005" lon="4.36866">
        <ele>137.4</ele>
        <time>2024-06-25T11:04:35Z</time>
      </trkpt>
      <trkpt lat="50.41006" lon="4.36881">
        <ele>137.4</ele>
        <time>2024-06-25T11:04:40Z</time>
      </trkpt>
      <trkpt lat="50.41008" lon="4.36899">
        <ele>137.4</ele>
        <time>2024-06-25T11:04:45Z</time>
      </trkpt>
      <trkpt lat="50.41016" lon="4.36917">
        <ele>137.2</ele>
        <time>2024-06-25T11:04:48Z</time>
      </trkpt>
      <trkpt lat="50.41017" lon="4.36923">
        <ele>137.2</ele>
        <time>2024-06-25T11:04:49Z</time>
      </trkpt>
      <trkpt lat="50.4102" lon="4.36956">
        <ele>137.4</ele>
        <time>2024-06-25T11:04:54Z</time>
      </trkpt>
      <trkpt lat="50.41025" lon="4.36976">
        <ele>137.8</ele>
        <time>2024-06-25T11:04:57Z</time>
      </trkpt>
      <trkpt lat="50.41028" lon="4.36982">
        <ele>137.4</ele>
        <time>2024-06-25T11:04:58Z</time>
      </trkpt>
      <trkpt lat="50.4104" lon="4.37002">
        <ele>137.4</ele>
        <time>2024-06-25T11:05:02Z</time>
      </trkpt>
      <trkpt lat="50.41046" lon="4.37024">
        <ele>137.6</ele>
        <time>2024-06-25T11:05:06Z</time>
      </trkpt>
      <trkpt lat="50.41047" lon="4.37034">
        <ele>137.6</ele>
        <time>2024-06-25T11:05:09Z</time>
      </trkpt>
      <trkpt lat="50.41047" lon="4.37036">
        <ele>137.6</ele>
        <time>2024-06-25T11:05:10Z</time>
      </trkpt>
      <trkpt lat="50.41051" lon="4.37046">
        <ele>137.6</ele>
        <time>2024-06-25T11:05:14Z</time>
      </trkpt>
      <trkpt lat="50.41058" lon="4.37057">
        <ele>137.6</ele>
        <time>2024-06-25T11:05:18Z</time>
      </trkpt>
      <trkpt lat="50.41059" lon="4.3706">
        <ele>137.6</ele>
        <time>2024-06-25T11:05:19Z</time>
      </trkpt>
      <trkpt lat="50.41061" lon="4.37072">
        <ele>137.2</ele>
        <time>2024-06-25T11:05:22Z</time>
      </trkpt>
      <trkpt lat="50.41067" lon="4.37084">
        <ele>137</ele>
        <time>2024-06-25T11:05:26Z</time>
      </trkpt>
      <trkpt lat="50.41069" lon="4.37086">
        <ele>137</ele>
        <time>2024-06-25T11:05:27Z</time>
      </trkpt>
      <trkpt lat="50.41072" lon="4.37092">
        <ele>137</ele>
        <time>2024-06-25T11:05:29Z</time>
      </trkpt>
      <trkpt lat="50.41075" lon="4.37101">
        <ele>137.2</ele>
        <time>2024-06-25T11:05:31Z</time>
      </trkpt>
      <trkpt lat="50.4108" lon="4.37105">
        <ele>137.2</ele>
        <time>2024-06-25T11:05:33Z</time>
      </trkpt>
      <trkpt lat="50.41087" lon="4.37107">
        <ele>137.2</ele>
        <time>2024-06-25T11:05:35Z</time>
      </trkpt>
      <trkpt lat="50.41097" lon="4.37116">
        <ele>137.6</ele>
        <time>2024-06-25T11:05:38Z</time>
      </trkpt>
      <trkpt lat="50.411" lon="4.37121">
        <ele>137.6</ele>
        <time>2024-06-25T11:05:39Z</time>
      </trkpt>
      <trkpt lat="50.41103" lon="4.37133">
        <ele>137.6</ele>
        <time>2024-06-25T11:05:42Z</time>
      </trkpt>
      <trkpt lat="50.41103" lon="4.37138">
        <ele>137.6</ele>
        <time>2024-06-25T11:05:43Z</time>
      </trkpt>
      <trkpt lat="50.41107" lon="4.37168">
        <ele>137</ele>
        <time>2024-06-25T11:05:48Z</time>
      </trkpt>
      <trkpt lat="50.41112" lon="4.37209">
        <ele>136.8</ele>
        <time>2024-06-25T11:05:54Z</time>
      </trkpt>
      <trkpt lat="50.41111" lon="4.3724">
        <ele>136.4</ele>
        <time>2024-06-25T11:05:59Z</time>
      </trkpt>
      <trkpt lat="50.4111" lon="4.37266">
        <ele>136.4</ele>
        <time>2024-06-25T11:06:02Z</time>
      </trkpt>
      <trkpt lat="50.41107" lon="4.37282">
        <ele>136.2</ele>
        <time>2024-06-25T11:06:04Z</time>
      </trkpt>
      <trkpt lat="50.41104" lon="4.37298">
        <ele>136.2</ele>
        <time>2024-06-25T11:06:06Z</time>
      </trkpt>
      <trkpt lat="50.41099" lon="4.37311">
        <ele>136</ele>
        <time>2024-06-25T11:06:08Z</time>
      </trkpt>
      <trkpt lat="50.41092" lon="4.37332">
        <ele>135.4</ele>
        <time>2024-06-25T11:06:11Z</time>
      </trkpt>
      <trkpt lat="50.4109" lon="4.37339">
        <ele>135.2</ele>
        <time>2024-06-25T11:06:12Z</time>
      </trkpt>
      <trkpt lat="50.41089" lon="4.37346">
        <ele>135</ele>
        <time>2024-06-25T11:06:13Z</time>
      </trkpt>
      <trkpt lat="50.41086" lon="4.37362">
        <ele>134.4</ele>
        <time>2024-06-25T11:06:15Z</time>
      </trkpt>
      <trkpt lat="50.41077" lon="4.37396">
        <ele>133.2</ele>
        <time>2024-06-25T11:06:19Z</time>
      </trkpt>
      <trkpt lat="50.4107" lon="4.37419">
        <ele>132.2</ele>
        <time>2024-06-25T11:06:22Z</time>
      </trkpt>
      <trkpt lat="50.41064" lon="4.37431">
        <ele>131.6</ele>
        <time>2024-06-25T11:06:24Z</time>
      </trkpt>
      <trkpt lat="50.41049" lon="4.37454">
        <ele>130.6</ele>
        <time>2024-06-25T11:06:29Z</time>
      </trkpt>
      <trkpt lat="50.41045" lon="4.37456">
        <ele>130.4</ele>
        <time>2024-06-25T11:06:30Z</time>
      </trkpt>
      <trkpt lat="50.41036" lon="4.37461">
        <ele>130.2</ele>
        <time>2024-06-25T11:06:32Z</time>
      </trkpt>
      <trkpt lat="50.41031" lon="4.37464">
        <ele>130</ele>
        <time>2024-06-25T11:06:33Z</time>
      </trkpt>
      <trkpt lat="50.4101" lon="4.3748">
        <ele>129</ele>
        <time>2024-06-25T11:06:38Z</time>
      </trkpt>
      <trkpt lat="50.40996" lon="4.37484">
        <ele>128.6</ele>
        <time>2024-06-25T11:06:42Z</time>
      </trkpt>
      <trkpt lat="50.40984" lon="4.37486">
        <ele>128</ele>
        <time>2024-06-25T11:06:48Z</time>
      </trkpt>
      <trkpt lat="50.40975" lon="4.37492">
        <ele>127.6</ele>
        <time>2024-06-25T11:06:51Z</time>
      </trkpt>
      <trkpt lat="50.4097" lon="4.37495">
        <ele>127.2</ele>
        <time>2024-06-25T11:06:53Z</time>
      </trkpt>
      <trkpt lat="50.40969" lon="4.37499">
        <ele>126.8</ele>
        <time>2024-06-25T11:06:54Z</time>
      </trkpt>
      <trkpt lat="50.40967" lon="4.37522">
        <ele>125.8</ele>
        <time>2024-06-25T11:06:58Z</time>
      </trkpt>
      <trkpt lat="50.40969" lon="4.37544">
        <ele>124.8</ele>
        <time>2024-06-25T11:07:02Z</time>
      </trkpt>
      <trkpt lat="50.40973" lon="4.3756">
        <ele>123.8</ele>
        <time>2024-06-25T11:07:05Z</time>
      </trkpt>
      <trkpt lat="50.40972" lon="4.37565">
        <ele>123.6</ele>
        <time>2024-06-25T11:07:06Z</time>
      </trkpt>
      <trkpt lat="50.40971" lon="4.37592">
        <ele>121.2</ele>
        <time>2024-06-25T11:07:11Z</time>
      </trkpt>
      <trkpt lat="50.40971" lon="4.37614">
        <ele>119.4</ele>
        <time>2024-06-25T11:07:15Z</time>
      </trkpt>
      <trkpt lat="50.40969" lon="4.37642">
        <ele>117.8</ele>
        <time>2024-06-25T11:07:19Z</time>
      </trkpt>
      <trkpt lat="50.40969" lon="4.37649">
        <ele>117.4</ele>
        <time>2024-06-25T11:07:20Z</time>
      </trkpt>
      <trkpt lat="50.40965" lon="4.37691">
        <ele>115.2</ele>
        <time>2024-06-25T11:07:25Z</time>
      </trkpt>
      <trkpt lat="50.40963" lon="4.37718">
        <ele>113.4</ele>
        <time>2024-06-25T11:07:29Z</time>
      </trkpt>
      <trkpt lat="50.40959" lon="4.37752">
        <ele>111.4</ele>
        <time>2024-06-25T11:07:34Z</time>
      </trkpt>
      <trkpt lat="50.40957" lon="4.3776">
        <ele>111</ele>
        <time>2024-06-25T11:07:35Z</time>
      </trkpt>
      <trkpt lat="50.40953" lon="4.37793">
        <ele>109</ele>
        <time>2024-06-25T11:07:40Z</time>
      </trkpt>
      <trkpt lat="50.40953" lon="4.37823">
        <ele>106.6</ele>
        <time>2024-06-25T11:07:45Z</time>
      </trkpt>
      <trkpt lat="50.4095" lon="4.37855">
        <ele>103.8</ele>
        <time>2024-06-25T11:07:51Z</time>
      </trkpt>
      <trkpt lat="50.40949" lon="4.37893">
        <ele>101.6</ele>
        <time>2024-06-25T11:07:56Z</time>
      </trkpt>
      <trkpt lat="50.4094" lon="4.37913">
        <ele>99.8</ele>
        <time>2024-06-25T11:07:59Z</time>
      </trkpt>
      <trkpt lat="50.40934" lon="4.37928">
        <ele>98.8</ele>
        <time>2024-06-25T11:08:01Z</time>
      </trkpt>
      <trkpt lat="50.40932" lon="4.37943">
        <ele>98.2</ele>
        <time>2024-06-25T11:08:03Z</time>
      </trkpt>
      <trkpt lat="50.40931" lon="4.37966">
        <ele>97.6</ele>
        <time>2024-06-25T11:08:06Z</time>
      </trkpt>
      <trkpt lat="50.40929" lon="4.37993">
        <ele>96</ele>
        <time>2024-06-25T11:08:11Z</time>
      </trkpt>
      <trkpt lat="50.40921" lon="4.38012">
        <ele>95</ele>
        <time>2024-06-25T11:08:15Z</time>
      </trkpt>
      <trkpt lat="50.40907" lon="4.38026">
        <ele>94.6</ele>
        <time>2024-06-25T11:08:19Z</time>
      </trkpt>
      <trkpt lat="50.409" lon="4.38029">
        <ele>94.8</ele>
        <time>2024-06-25T11:08:21Z</time>
      </trkpt>
      <trkpt lat="50.40901" lon="4.38051">
        <ele>94.4</ele>
        <time>2024-06-25T11:08:24Z</time>
      </trkpt>
      <trkpt lat="50.40914" lon="4.38071">
        <ele>94.8</ele>
        <time>2024-06-25T11:08:26Z</time>
      </trkpt>
      <trkpt lat="50.40924" lon="4.38094">
        <ele>95.2</ele>
        <time>2024-06-25T11:08:29Z</time>
      </trkpt>
      <trkpt lat="50.40928" lon="4.38111">
        <ele>95</ele>
        <time>2024-06-25T11:08:31Z</time>
      </trkpt>
      <trkpt lat="50.40933" lon="4.38134">
        <ele>94.8</ele>
        <time>2024-06-25T11:08:34Z</time>
      </trkpt>
      <trkpt lat="50.40938" lon="4.38164">
        <ele>94.4</ele>
        <time>2024-06-25T11:08:39Z</time>
      </trkpt>
      <trkpt lat="50.40936" lon="4.38169">
        <ele>94.4</ele>
        <time>2024-06-25T11:08:40Z</time>
      </trkpt>
      <trkpt lat="50.40921" lon="4.38187">
        <ele>94</ele>
        <time>2024-06-25T11:08:45Z</time>
      </trkpt>
      <trkpt lat="50.40916" lon="4.38208">
        <ele>94.2</ele>
        <time>2024-06-25T11:08:49Z</time>
      </trkpt>
      <trkpt lat="50.40915" lon="4.38241">
        <ele>95</ele>
        <time>2024-06-25T11:08:54Z</time>
      </trkpt>
      <trkpt lat="50.40909" lon="4.38252">
        <ele>94.8</ele>
        <time>2024-06-25T11:08:56Z</time>
      </trkpt>
      <trkpt lat="50.40905" lon="4.38253">
        <ele>94.8</ele>
        <time>2024-06-25T11:08:57Z</time>
      </trkpt>
      <trkpt lat="50.40895" lon="4.38252">
        <ele>94.8</ele>
        <time>2024-06-25T11:08:59Z</time>
      </trkpt>
      <trkpt lat="50.40886" lon="4.38259">
        <ele>94.8</ele>
        <time>2024-06-25T11:09:01Z</time>
      </trkpt>
      <trkpt lat="50.40884" lon="4.38273">
        <ele>94.6</ele>
        <time>2024-06-25T11:09:03Z</time>
      </trkpt>
      <trkpt lat="50.40884" lon="4.38289">
        <ele>95</ele>
        <time>2024-06-25T11:09:05Z</time>
      </trkpt>
      <trkpt lat="50.40887" lon="4.38309">
        <ele>94.6</ele>
        <time>2024-06-25T11:09:08Z</time>
      </trkpt>
      <trkpt lat="50.40887" lon="4.38342">
        <ele>94.2</ele>
        <time>2024-06-25T11:09:14Z</time>
      </trkpt>
      <trkpt lat="50.40885" lon="4.38376">
        <ele>94.4</ele>
        <time>2024-06-25T11:09:19Z</time>
      </trkpt>
      <trkpt lat="50.40887" lon="4.38426">
        <ele>95</ele>
        <time>2024-06-25T11:09:26Z</time>
      </trkpt>
      <trkpt lat="50.40887" lon="4.38452">
        <ele>95.2</ele>
        <time>2024-06-25T11:09:31Z</time>
      </trkpt>
      <trkpt lat="50.40883" lon="4.38485">
        <ele>95.6</ele>
        <time>2024-06-25T11:09:37Z</time>
      </trkpt>
      <trkpt lat="50.40881" lon="4.38489">
        <ele>95.6</ele>
        <time>2024-06-25T11:09:38Z</time>
      </trkpt>
      <trkpt lat="50.40871" lon="4.38496">
        <ele>95.4</ele>
        <time>2024-06-25T11:09:41Z</time>
      </trkpt>
      <trkpt lat="50.40867" lon="4.38499">
        <ele>95.4</ele>
        <time>2024-06-25T11:09:43Z</time>
      </trkpt>
      <trkpt lat="50.40862" lon="4.385">
        <ele>95.6</ele>
        <time>2024-06-25T11:09:45Z</time>
      </trkpt>
      <trkpt lat="50.40858" lon="4.38498">
        <ele>95.8</ele>
        <time>2024-06-25T11:09:49Z</time>
      </trkpt>
      <trkpt lat="50.40851" lon="4.38482">
        <ele>96.4</ele>
        <time>2024-06-25T11:09:53Z</time>
      </trkpt>
      <trkpt lat="50.40841" lon="4.38456">
        <ele>96.8</ele>
        <time>2024-06-25T11:09:57Z</time>
      </trkpt>
      <trkpt lat="50.4084" lon="4.38447">
        <ele>96.8</ele>
        <time>2024-06-25T11:09:58Z</time>
      </trkpt>
      <trkpt lat="50.40837" lon="4.38411">
        <ele>97.2</ele>
        <time>2024-06-25T11:10:02Z</time>
      </trkpt>
      <trkpt lat="50.40834" lon="4.38402">
        <ele>97.2</ele>
        <time>2024-06-25T11:10:03Z</time>
      </trkpt>
      <trkpt lat="50.40831" lon="4.38396">
        <ele>97.2</ele>
        <time>2024-06-25T11:10:04Z</time>
      </trkpt>
      <trkpt lat="50.4082" lon="4.3839">
        <ele>97.4</ele>
        <time>2024-06-25T11:10:06Z</time>
      </trkpt>
      <trkpt lat="50.40809" lon="4.38395">
        <ele>97.6</ele>
        <time>2024-06-25T11:10:08Z</time>
      </trkpt>
      <trkpt lat="50.40805" lon="4.384">
        <ele>97.6</ele>
        <time>2024-06-25T11:10:09Z</time>
      </trkpt>
      <trkpt lat="50.40801" lon="4.38407">
        <ele>97.6</ele>
        <time>2024-06-25T11:10:10Z</time>
      </trkpt>
      <trkpt lat="50.40792" lon="4.3843">
        <ele>97.8</ele>
        <time>2024-06-25T11:10:13Z</time>
      </trkpt>
      <trkpt lat="50.40782" lon="4.38437">
        <ele>97.8</ele>
        <time>2024-06-25T11:10:15Z</time>
      </trkpt>
      <trkpt lat="50.40777" lon="4.38438">
        <ele>98</ele>
        <time>2024-06-25T11:10:16Z</time>
      </trkpt>
      <trkpt lat="50.40772" lon="4.38437">
        <ele>98</ele>
        <time>2024-06-25T11:10:17Z</time>
      </trkpt>
      <trkpt lat="50.40763" lon="4.38434">
        <ele>98.2</ele>
        <time>2024-06-25T11:10:19Z</time>
      </trkpt>
      <trkpt lat="50.4076" lon="4.38431">
        <ele>98.2</ele>
        <time>2024-06-25T11:10:20Z</time>
      </trkpt>
      <trkpt lat="50.40756" lon="4.38426">
        <ele>98.2</ele>
        <time>2024-06-25T11:10:21Z</time>
      </trkpt>
      <trkpt lat="50.40749" lon="4.3841">
        <ele>98.4</ele>
        <time>2024-06-25T11:10:24Z</time>
      </trkpt>
      <trkpt lat="50.4074" lon="4.38396">
        <ele>98.6</ele>
        <time>2024-06-25T11:10:27Z</time>
      </trkpt>
      <trkpt lat="50.40731" lon="4.38383">
        <ele>98.8</ele>
        <time>2024-06-25T11:10:30Z</time>
      </trkpt>
      <trkpt lat="50.4071" lon="4.38351">
        <ele>99.2</ele>
        <time>2024-06-25T11:10:36Z</time>
      </trkpt>
      <trkpt lat="50.40676" lon="4.38304">
        <ele>99.8</ele>
        <time>2024-06-25T11:10:45Z</time>
      </trkpt>
      <trkpt lat="50.40655" lon="4.38282">
        <ele>100</ele>
        <time>2024-06-25T11:10:50Z</time>
      </trkpt>
      <trkpt lat="50.4065" lon="4.38279">
        <ele>100</ele>
        <time>2024-06-25T11:10:51Z</time>
      </trkpt>
      <trkpt lat="50.4062" lon="4.38269">
        <ele>100.6</ele>
        <time>2024-06-25T11:10:57Z</time>
      </trkpt>
      <trkpt lat="50.40602" lon="4.38271">
        <ele>101</ele>
        <time>2024-06-25T11:11:01Z</time>
      </trkpt>
      <trkpt lat="50.40593" lon="4.38276">
        <ele>101.2</ele>
        <time>2024-06-25T11:11:03Z</time>
      </trkpt>
      <trkpt lat="50.40586" lon="4.38283">
        <ele>101.4</ele>
        <time>2024-06-25T11:11:05Z</time>
      </trkpt>
      <trkpt lat="50.40581" lon="4.38295">
        <ele>101.4</ele>
        <time>2024-06-25T11:11:07Z</time>
      </trkpt>
      <trkpt lat="50.40579" lon="4.38308">
        <ele>101.6</ele>
        <time>2024-06-25T11:11:09Z</time>
      </trkpt>
      <trkpt lat="50.40574" lon="4.38318">
        <ele>101.8</ele>
        <time>2024-06-25T11:11:11Z</time>
      </trkpt>
      <trkpt lat="50.40562" lon="4.38327">
        <ele>102.2</ele>
        <time>2024-06-25T11:11:14Z</time>
      </trkpt>
      <trkpt lat="50.40559" lon="4.38332">
        <ele>102.2</ele>
        <time>2024-06-25T11:11:15Z</time>
      </trkpt>
      <trkpt lat="50.40556" lon="4.38338">
        <ele>102.2</ele>
        <time>2024-06-25T11:11:16Z</time>
      </trkpt>
      <trkpt lat="50.40544" lon="4.38355">
        <ele>102.4</ele>
        <time>2024-06-25T11:11:19Z</time>
      </trkpt>
      <trkpt lat="50.40533" lon="4.38375">
        <ele>102.4</ele>
        <time>2024-06-25T11:11:22Z</time>
      </trkpt>
      <trkpt lat="50.40532" lon="4.38383">
        <ele>102.6</ele>
        <time>2024-06-25T11:11:23Z</time>
      </trkpt>
      <trkpt lat="50.40532" lon="4.38391">
        <ele>102.6</ele>
        <time>2024-06-25T11:11:24Z</time>
      </trkpt>
      <trkpt lat="50.40535" lon="4.38399">
        <ele>102.6</ele>
        <time>2024-06-25T11:11:25Z</time>
      </trkpt>
      <trkpt lat="50.40543" lon="4.38412">
        <ele>102.6</ele>
        <time>2024-06-25T11:11:27Z</time>
      </trkpt>
      <trkpt lat="50.40552" lon="4.38424">
        <ele>102.6</ele>
        <time>2024-06-25T11:11:29Z</time>
      </trkpt>
      <trkpt lat="50.40559" lon="4.38438">
        <ele>102.6</ele>
        <time>2024-06-25T11:11:31Z</time>
      </trkpt>
      <trkpt lat="50.40562" lon="4.38451">
        <ele>102.6</ele>
        <time>2024-06-25T11:11:33Z</time>
      </trkpt>
      <trkpt lat="50.40562" lon="4.38463">
        <ele>102.4</ele>
        <time>2024-06-25T11:11:35Z</time>
      </trkpt>
      <trkpt lat="50.40568" lon="4.38473">
        <ele>103</ele>
        <time>2024-06-25T11:11:37Z</time>
      </trkpt>
      <trkpt lat="50.40577" lon="4.38479">
        <ele>102.2</ele>
        <time>2024-06-25T11:11:39Z</time>
      </trkpt>
      <trkpt lat="50.40586" lon="4.38484">
        <ele>101.8</ele>
        <time>2024-06-25T11:11:41Z</time>
      </trkpt>
      <trkpt lat="50.40592" lon="4.38495">
        <ele>102</ele>
        <time>2024-06-25T11:11:43Z</time>
      </trkpt>
      <trkpt lat="50.40593" lon="4.38502">
        <ele>102</ele>
        <time>2024-06-25T11:11:44Z</time>
      </trkpt>
      <trkpt lat="50.40604" lon="4.38549">
        <ele>102</ele>
        <time>2024-06-25T11:11:51Z</time>
      </trkpt>
      <trkpt lat="50.40615" lon="4.38599">
        <ele>102</ele>
        <time>2024-06-25T11:11:58Z</time>
      </trkpt>
      <trkpt lat="50.40627" lon="4.38652">
        <ele>102</ele>
        <time>2024-06-25T11:12:06Z</time>
      </trkpt>
      <trkpt lat="50.40641" lon="4.38705">
        <ele>101.8</ele>
        <time>2024-06-25T11:12:14Z</time>
      </trkpt>
      <trkpt lat="50.40649" lon="4.38744">
        <ele>101.8</ele>
        <time>2024-06-25T11:12:20Z</time>
      </trkpt>
      <trkpt lat="50.40649" lon="4.38751">
        <ele>101.8</ele>
        <time>2024-06-25T11:12:21Z</time>
      </trkpt>
      <trkpt lat="50.4065" lon="4.38795">
        <ele>101.8</ele>
        <time>2024-06-25T11:12:27Z</time>
      </trkpt>
      <trkpt lat="50.40656" lon="4.38843">
        <ele>102</ele>
        <time>2024-06-25T11:12:33Z</time>
      </trkpt>
      <trkpt lat="50.40667" lon="4.38914">
        <ele>102.4</ele>
        <time>2024-06-25T11:12:42Z</time>
      </trkpt>
      <trkpt lat="50.40671" lon="4.38944">
        <ele>102.6</ele>
        <time>2024-06-25T11:12:46Z</time>
      </trkpt>
      <trkpt lat="50.40675" lon="4.38958">
        <ele>102.8</ele>
        <time>2024-06-25T11:12:48Z</time>
      </trkpt>
      <trkpt lat="50.40692" lon="4.39">
        <ele>103.2</ele>
        <time>2024-06-25T11:12:55Z</time>
      </trkpt>
      <trkpt lat="50.40698" lon="4.39025">
        <ele>103.4</ele>
        <time>2024-06-25T11:13:00Z</time>
      </trkpt>
      <trkpt lat="50.40695" lon="4.39058">
        <ele>103.6</ele>
        <time>2024-06-25T11:13:05Z</time>
      </trkpt>
      <trkpt lat="50.40692" lon="4.39106">
        <ele>103.6</ele>
        <time>2024-06-25T11:13:10Z</time>
      </trkpt>
      <trkpt lat="50.40691" lon="4.39128">
        <ele>103.6</ele>
        <time>2024-06-25T11:13:12Z</time>
      </trkpt>
      <trkpt lat="50.40691" lon="4.39139">
        <ele>103.6</ele>
        <time>2024-06-25T11:13:13Z</time>
      </trkpt>
      <trkpt lat="50.40695" lon="4.39194">
        <ele>103.6</ele>
        <time>2024-06-25T11:13:19Z</time>
      </trkpt>
      <trkpt lat="50.40697" lon="4.39202">
        <ele>103.6</ele>
        <time>2024-06-25T11:13:20Z</time>
      </trkpt>
      <trkpt lat="50.40703" lon="4.39217">
        <ele>103.8</ele>
        <time>2024-06-25T11:13:22Z</time>
      </trkpt>
      <trkpt lat="50.40707" lon="4.39223">
        <ele>103.4</ele>
        <time>2024-06-25T11:13:23Z</time>
      </trkpt>
      <trkpt lat="50.40729" lon="4.39274">
        <ele>103.2</ele>
        <time>2024-06-25T11:13:30Z</time>
      </trkpt>
      <trkpt lat="50.40746" lon="4.39319">
        <ele>103</ele>
        <time>2024-06-25T11:13:36Z</time>
      </trkpt>
      <trkpt lat="50.40766" lon="4.39374">
        <ele>103</ele>
        <time>2024-06-25T11:13:43Z</time>
      </trkpt>
      <trkpt lat="50.40785" lon="4.39429">
        <ele>103</ele>
        <time>2024-06-25T11:13:50Z</time>
      </trkpt>
      <trkpt lat="50.408" lon="4.39482">
        <ele>102.8</ele>
        <time>2024-06-25T11:13:57Z</time>
      </trkpt>
      <trkpt lat="50.40806" lon="4.39512">
        <ele>102.8</ele>
        <time>2024-06-25T11:14:02Z</time>
      </trkpt>
      <trkpt lat="50.40815" lon="4.39551">
        <ele>102.8</ele>
        <time>2024-06-25T11:14:07Z</time>
      </trkpt>
      <trkpt lat="50.40829" lon="4.39596">
        <ele>102.8</ele>
        <time>2024-06-25T11:14:13Z</time>
      </trkpt>
      <trkpt lat="50.40836" lon="4.39619">
        <ele>102.8</ele>
        <time>2024-06-25T11:14:17Z</time>
      </trkpt>
      <trkpt lat="50.40839" lon="4.39621">
        <ele>102.6</ele>
        <time>2024-06-25T11:14:18Z</time>
      </trkpt>
      <trkpt lat="50.40844" lon="4.39616">
        <ele>103</ele>
        <time>2024-06-25T11:14:20Z</time>
      </trkpt>
      <trkpt lat="50.40845" lon="4.39611">
        <ele>103</ele>
        <time>2024-06-25T11:14:21Z</time>
      </trkpt>
      <trkpt lat="50.40845" lon="4.39606">
        <ele>103</ele>
        <time>2024-06-25T11:14:22Z</time>
      </trkpt>
      <trkpt lat="50.40841" lon="4.39598">
        <ele>102.8</ele>
        <time>2024-06-25T11:14:24Z</time>
      </trkpt>
      <trkpt lat="50.40837" lon="4.39594">
        <ele>102.8</ele>
        <time>2024-06-25T11:14:25Z</time>
      </trkpt>
      <trkpt lat="50.40835" lon="4.39583">
        <ele>103</ele>
        <time>2024-06-25T11:14:27Z</time>
      </trkpt>
      <trkpt lat="50.40828" lon="4.39549">
        <ele>103</ele>
        <time>2024-06-25T11:14:33Z</time>
      </trkpt>
      <trkpt lat="50.40823" lon="4.39527">
        <ele>103.2</ele>
        <time>2024-06-25T11:14:38Z</time>
      </trkpt>
      <trkpt lat="50.40821" lon="4.39515">
        <ele>103.6</ele>
        <time>2024-06-25T11:14:41Z</time>
      </trkpt>
      <trkpt lat="50.40819" lon="4.39512">
        <ele>103.6</ele>
        <time>2024-06-25T11:14:42Z</time>
      </trkpt>
      <trkpt lat="50.40815" lon="4.3951">
        <ele>103.8</ele>
        <time>2024-06-25T11:14:43Z</time>
      </trkpt>
      <trkpt lat="50.40808" lon="4.39513">
        <ele>104</ele>
        <time>2024-06-25T11:14:45Z</time>
      </trkpt>
      <trkpt lat="50.40801" lon="4.39518">
        <ele>104.2</ele>
        <time>2024-06-25T11:14:47Z</time>
      </trkpt>
      <trkpt lat="50.40789" lon="4.39526">
        <ele>104.6</ele>
        <time>2024-06-25T11:14:50Z</time>
      </trkpt>
      <trkpt lat="50.40769" lon="4.39541">
        <ele>104.8</ele>
        <time>2024-06-25T11:14:56Z</time>
      </trkpt>
      <trkpt lat="50.40767" lon="4.39553">
        <ele>104.8</ele>
        <time>2024-06-25T11:14:59Z</time>
      </trkpt>
      <trkpt lat="50.40762" lon="4.39568">
        <ele>104.6</ele>
        <time>2024-06-25T11:15:03Z</time>
      </trkpt>
      <trkpt lat="50.40753" lon="4.39601">
        <ele>104.6</ele>
        <time>2024-06-25T11:15:08Z</time>
      </trkpt>
      <trkpt lat="50.4075" lon="4.39615">
        <ele>104.6</ele>
        <time>2024-06-25T11:15:10Z</time>
      </trkpt>
      <trkpt lat="50.40749" lon="4.39634">
        <ele>105.2</ele>
        <time>2024-06-25T11:15:13Z</time>
      </trkpt>
      <trkpt lat="50.40746" lon="4.39671">
        <ele>104.4</ele>
        <time>2024-06-25T11:15:19Z</time>
      </trkpt>
      <trkpt lat="50.40743" lon="4.39686">
        <ele>104.2</ele>
        <time>2024-06-25T11:15:22Z</time>
      </trkpt>
      <trkpt lat="50.40741" lon="4.39689">
        <ele>104.2</ele>
        <time>2024-06-25T11:15:23Z</time>
      </trkpt>
      <trkpt lat="50.40731" lon="4.39695">
        <ele>103.8</ele>
        <time>2024-06-25T11:15:27Z</time>
      </trkpt>
      <trkpt lat="50.40727" lon="4.39698">
        <ele>103.8</ele>
        <time>2024-06-25T11:15:29Z</time>
      </trkpt>
      <trkpt lat="50.40726" lon="4.39704">
        <ele>103.8</ele>
        <time>2024-06-25T11:15:30Z</time>
      </trkpt>
      <trkpt lat="50.40727" lon="4.39719">
        <ele>103.8</ele>
        <time>2024-06-25T11:15:32Z</time>
      </trkpt>
      <trkpt lat="50.40729" lon="4.39726">
        <ele>103.8</ele>
        <time>2024-06-25T11:15:33Z</time>
      </trkpt>
      <trkpt lat="50.40743" lon="4.3978">
        <ele>104</ele>
        <time>2024-06-25T11:15:39Z</time>
      </trkpt>
      <trkpt lat="50.40746" lon="4.3979">
        <ele>104</ele>
        <time>2024-06-25T11:15:40Z</time>
      </trkpt>
      <trkpt lat="50.40757" lon="4.39821">
        <ele>103.8</ele>
        <time>2024-06-25T11:15:43Z</time>
      </trkpt>
      <trkpt lat="50.40759" lon="4.39832">
        <ele>103.6</ele>
        <time>2024-06-25T11:15:44Z</time>
      </trkpt>
      <trkpt lat="50.4076" lon="4.39843">
        <ele>103.6</ele>
        <time>2024-06-25T11:15:45Z</time>
      </trkpt>
      <trkpt lat="50.40761" lon="4.39875">
        <ele>103.4</ele>
        <time>2024-06-25T11:15:48Z</time>
      </trkpt>
      <trkpt lat="50.40765" lon="4.39926">
        <ele>103.4</ele>
        <time>2024-06-25T11:15:53Z</time>
      </trkpt>
      <trkpt lat="50.40768" lon="4.39993">
        <ele>103.2</ele>
        <time>2024-06-25T11:16:00Z</time>
      </trkpt>
      <trkpt lat="50.40771" lon="4.40057">
        <ele>103</ele>
        <time>2024-06-25T11:16:08Z</time>
      </trkpt>
      <trkpt lat="50.40773" lon="4.40116">
        <ele>103.4</ele>
        <time>2024-06-25T11:16:14Z</time>
      </trkpt>
      <trkpt lat="50.40769" lon="4.40137">
        <ele>103.2</ele>
        <time>2024-06-25T11:16:16Z</time>
      </trkpt>
      <trkpt lat="50.40763" lon="4.40157">
        <ele>103.2</ele>
        <time>2024-06-25T11:16:18Z</time>
      </trkpt>
      <trkpt lat="50.40742" lon="4.40227">
        <ele>103</ele>
        <time>2024-06-25T11:16:26Z</time>
      </trkpt>
      <trkpt lat="50.40729" lon="4.40277">
        <ele>103.4</ele>
        <time>2024-06-25T11:16:32Z</time>
      </trkpt>
      <trkpt lat="50.40712" lon="4.40332">
        <ele>103.4</ele>
        <time>2024-06-25T11:16:39Z</time>
      </trkpt>
      <trkpt lat="50.40688" lon="4.40412">
        <ele>103.6</ele>
        <time>2024-06-25T11:16:49Z</time>
      </trkpt>
      <trkpt lat="50.40665" lon="4.40493">
        <ele>103.2</ele>
        <time>2024-06-25T11:16:59Z</time>
      </trkpt>
      <trkpt lat="50.40645" lon="4.40562">
        <ele>103.4</ele>
        <time>2024-06-25T11:17:08Z</time>
      </trkpt>
      <trkpt lat="50.40625" lon="4.40632">
        <ele>103.6</ele>
        <time>2024-06-25T11:17:17Z</time>
      </trkpt>
      <trkpt lat="50.40614" lon="4.40708">
        <ele>103.6</ele>
        <time>2024-06-25T11:17:26Z</time>
      </trkpt>
      <trkpt lat="50.40614" lon="4.40753">
        <ele>103.4</ele>
        <time>2024-06-25T11:17:31Z</time>
      </trkpt>
      <trkpt lat="50.40617" lon="4.4077">
        <ele>103.4</ele>
        <time>2024-06-25T11:17:33Z</time>
      </trkpt>
      <trkpt lat="50.40626" lon="4.40829">
        <ele>103.2</ele>
        <time>2024-06-25T11:17:40Z</time>
      </trkpt>
      <trkpt lat="50.40639" lon="4.40875">
        <ele>103.2</ele>
        <time>2024-06-25T11:17:46Z</time>
      </trkpt>
      <trkpt lat="50.4064" lon="4.40882">
        <ele>103.2</ele>
        <time>2024-06-25T11:17:47Z</time>
      </trkpt>
      <trkpt lat="50.40635" lon="4.40893">
        <ele>103.2</ele>
        <time>2024-06-25T11:17:49Z</time>
      </trkpt>
      <trkpt lat="50.40595" lon="4.40919">
        <ele>102.6</ele>
        <time>2024-06-25T11:17:57Z</time>
      </trkpt>
      <trkpt lat="50.40559" lon="4.40942">
        <ele>102.2</ele>
        <time>2024-06-25T11:18:04Z</time>
      </trkpt>
      <trkpt lat="50.40552" lon="4.40954">
        <ele>102</ele>
        <time>2024-06-25T11:18:06Z</time>
      </trkpt>
      <trkpt lat="50.40544" lon="4.40974">
        <ele>101.8</ele>
        <time>2024-06-25T11:18:09Z</time>
      </trkpt>
      <trkpt lat="50.4054" lon="4.40988">
        <ele>101.8</ele>
        <time>2024-06-25T11:18:11Z</time>
      </trkpt>
      <trkpt lat="50.40537" lon="4.41014">
        <ele>102</ele>
        <time>2024-06-25T11:18:14Z</time>
      </trkpt>
      <trkpt lat="50.40527" lon="4.41072">
        <ele>101.6</ele>
        <time>2024-06-25T11:18:21Z</time>
      </trkpt>
      <trkpt lat="50.40519" lon="4.4115">
        <ele>102.6</ele>
        <time>2024-06-25T11:18:30Z</time>
      </trkpt>
      <trkpt lat="50.40513" lon="4.4121">
        <ele>102.8</ele>
        <time>2024-06-25T11:18:37Z</time>
      </trkpt>
      <trkpt lat="50.40506" lon="4.41278">
        <ele>103</ele>
        <time>2024-06-25T11:18:45Z</time>
      </trkpt>
      <trkpt lat="50.405" lon="4.41341">
        <ele>103.4</ele>
        <time>2024-06-25T11:18:52Z</time>
      </trkpt>
      <trkpt lat="50.40499" lon="4.4136">
        <ele>103.4</ele>
        <time>2024-06-25T11:18:54Z</time>
      </trkpt>
      <trkpt lat="50.40497" lon="4.41387">
        <ele>103.4</ele>
        <time>2024-06-25T11:18:57Z</time>
      </trkpt>
      <trkpt lat="50.40491" lon="4.41443">
        <ele>103.6</ele>
        <time>2024-06-25T11:19:03Z</time>
      </trkpt>
      <trkpt lat="50.40478" lon="4.41517">
        <ele>103.8</ele>
        <time>2024-06-25T11:19:11Z</time>
      </trkpt>
      <trkpt lat="50.40475" lon="4.41525">
        <ele>103.8</ele>
        <time>2024-06-25T11:19:12Z</time>
      </trkpt>
      <trkpt lat="50.40467" lon="4.4154">
        <ele>103.8</ele>
        <time>2024-06-25T11:19:14Z</time>
      </trkpt>
      <trkpt lat="50.40463" lon="4.41547">
        <ele>103.8</ele>
        <time>2024-06-25T11:19:15Z</time>
      </trkpt>
      <trkpt lat="50.40435" lon="4.41578">
        <ele>104</ele>
        <time>2024-06-25T11:19:21Z</time>
      </trkpt>
      <trkpt lat="50.40395" lon="4.41615">
        <ele>104.4</ele>
        <time>2024-06-25T11:19:29Z</time>
      </trkpt>
      <trkpt lat="50.40356" lon="4.4165">
        <ele>104.8</ele>
        <time>2024-06-25T11:19:37Z</time>
      </trkpt>
      <trkpt lat="50.40315" lon="4.41688">
        <ele>105.6</ele>
        <time>2024-06-25T11:19:45Z</time>
      </trkpt>
      <trkpt lat="50.4028" lon="4.41723">
        <ele>106</ele>
        <time>2024-06-25T11:19:52Z</time>
      </trkpt>
      <trkpt lat="50.40271" lon="4.41736">
        <ele>106</ele>
        <time>2024-06-25T11:19:54Z</time>
      </trkpt>
      <trkpt lat="50.40245" lon="4.41791">
        <ele>106.4</ele>
        <time>2024-06-25T11:20:01Z</time>
      </trkpt>
      <trkpt lat="50.40218" lon="4.41851">
        <ele>106.8</ele>
        <time>2024-06-25T11:20:09Z</time>
      </trkpt>
      <trkpt lat="50.40189" lon="4.41923">
        <ele>107.2</ele>
        <time>2024-06-25T11:20:18Z</time>
      </trkpt>
      <trkpt lat="50.40168" lon="4.42001">
        <ele>107.6</ele>
        <time>2024-06-25T11:20:27Z</time>
      </trkpt>
      <trkpt lat="50.40157" lon="4.42074">
        <ele>108</ele>
        <time>2024-06-25T11:20:35Z</time>
      </trkpt>
      <trkpt lat="50.40147" lon="4.42157">
        <ele>108.4</ele>
        <time>2024-06-25T11:20:44Z</time>
      </trkpt>
      <trkpt lat="50.40138" lon="4.42231">
        <ele>109</ele>
        <time>2024-06-25T11:20:52Z</time>
      </trkpt>
      <trkpt lat="50.40129" lon="4.42294">
        <ele>109.2</ele>
        <time>2024-06-25T11:20:59Z</time>
      </trkpt>
      <trkpt lat="50.40115" lon="4.42377">
        <ele>109.8</ele>
        <time>2024-06-25T11:21:08Z</time>
      </trkpt>
      <trkpt lat="50.40113" lon="4.42386">
        <ele>109.8</ele>
        <time>2024-06-25T11:21:09Z</time>
      </trkpt>
      <trkpt lat="50.40096" lon="4.42435">
        <ele>110.2</ele>
        <time>2024-06-25T11:21:15Z</time>
      </trkpt>
      <trkpt lat="50.40081" lon="4.42464">
        <ele>110.4</ele>
        <time>2024-06-25T11:21:19Z</time>
      </trkpt>
      <trkpt lat="50.40077" lon="4.42471">
        <ele>110.4</ele>
        <time>2024-06-25T11:21:20Z</time>
      </trkpt>
      <trkpt lat="50.40054" lon="4.42521">
        <ele>110.8</ele>
        <time>2024-06-25T11:21:27Z</time>
      </trkpt>
      <trkpt lat="50.40038" lon="4.42552">
        <ele>111.2</ele>
        <time>2024-06-25T11:21:33Z</time>
      </trkpt>
      <trkpt lat="50.4003" lon="4.42568">
        <ele>112</ele>
        <time>2024-06-25T11:21:39Z</time>
      </trkpt>
      <trkpt lat="50.4003" lon="4.42568">
        <ele>112.8</ele>
        <time>2024-06-25T11:21:53Z</time>
      </trkpt>
      <trkpt lat="50.40028" lon="4.42572">
        <ele>113.8</ele>
        <time>2024-06-25T11:22:06Z</time>
      </trkpt>
      <trkpt lat="50.40026" lon="4.42591">
        <ele>113.8</ele>
        <time>2024-06-25T11:22:10Z</time>
      </trkpt>
      <trkpt lat="50.4002" lon="4.42625">
        <ele>113.6</ele>
        <time>2024-06-25T11:22:14Z</time>
      </trkpt>
      <trkpt lat="50.40006" lon="4.42706">
        <ele>112.6</ele>
        <time>2024-06-25T11:22:22Z</time>
      </trkpt>
      <trkpt lat="50.39997" lon="4.42713">
        <ele>112.8</ele>
        <time>2024-06-25T11:22:24Z</time>
      </trkpt>
      <trkpt lat="50.39975" lon="4.42703">
        <ele>112.8</ele>
        <time>2024-06-25T11:22:28Z</time>
      </trkpt>
      <trkpt lat="50.39931" lon="4.42683">
        <ele>112.8</ele>
        <time>2024-06-25T11:22:36Z</time>
      </trkpt>
      <trkpt lat="50.39922" lon="4.42678">
        <ele>112.8</ele>
        <time>2024-06-25T11:22:38Z</time>
      </trkpt>
      <trkpt lat="50.39916" lon="4.42666">
        <ele>112.8</ele>
        <time>2024-06-25T11:22:40Z</time>
      </trkpt>
      <trkpt lat="50.39914" lon="4.42649">
        <ele>113.8</ele>
        <time>2024-06-25T11:22:43Z</time>
      </trkpt>
      <trkpt lat="50.39907" lon="4.42646">
        <ele>113.6</ele>
        <time>2024-06-25T11:22:46Z</time>
      </trkpt>
      <trkpt lat="50.399" lon="4.42648">
        <ele>114</ele>
        <time>2024-06-25T11:22:51Z</time>
      </trkpt>
      <trkpt lat="50.399" lon="4.42648">
        <ele>114</ele>
        <time>2024-06-25T11:23:10Z</time>
      </trkpt>
      <trkpt lat="50.399" lon="4.42648">
        <ele>114</ele>
        <time>2024-06-25T11:23:29Z</time>
      </trkpt>
      <trkpt lat="50.39899" lon="4.42648">
        <ele>114</ele>
        <time>2024-06-25T11:23:39Z</time>
      </trkpt>
      <trkpt lat="50.39898" lon="4.4265">
        <ele>114</ele>
        <time>2024-06-25T11:23:40Z</time>
      </trkpt>
      <trkpt lat="50.39897" lon="4.42654">
        <ele>113.8</ele>
        <time>2024-06-25T11:23:44Z</time>
      </trkpt>
      <trkpt lat="50.39894" lon="4.42653">
        <ele>113.8</ele>
        <time>2024-06-25T11:23:50Z</time>
      </trkpt>
      <trkpt lat="50.39893" lon="4.42651">
        <ele>113.8</ele>
        <time>2024-06-25T11:23:51Z</time>
      </trkpt>
      <trkpt lat="50.39889" lon="4.42637">
        <ele>113.6</ele>
        <time>2024-06-25T11:23:59Z</time>
      </trkpt>
      <trkpt lat="50.39888" lon="4.42634">
        <ele>113.6</ele>
        <time>2024-06-25T11:24:09Z</time>
        <extensions>
          <visugpx:TrkExtension xmlns:visugpx="https://www.visugpx.com/editgpx/">
            <visugpx:node>1</visugpx:node>
            </visugpx:TrkExtension>
        </extensions>
      </trkpt>
      <trkpt lat="50.39913" lon="4.4268">
        <ele>115.2</ele>
      </trkpt>
      <trkpt lat="50.39912" lon="4.4268">
        <ele>115.3</ele>
        <extensions>
          <visugpx:TrkExtension xmlns:visugpx="https://www.visugpx.com/editgpx/">
            <visugpx:node>2</visugpx:node>
            </visugpx:TrkExtension>
        </extensions>
      </trkpt>
      <trkpt lat="50.39912" lon="4.4268">
        <ele>115.3</ele>
      </trkpt>
      <trkpt lat="50.39913" lon="4.4268">
        <ele>115.2</ele>
      </trkpt>
      <trkpt lat="50.39927" lon="4.42682">
        <ele>114.5</ele>
      </trkpt>
      <trkpt lat="50.40005" lon="4.42719">
        <ele>111.6</ele>
      </trkpt>
      <trkpt lat="50.39989" lon="4.42812">
        <ele>112.5</ele>
      </trkpt>
      <trkpt lat="50.39989" lon="4.42872">
        <ele>112.4</ele>
      </trkpt>
      <trkpt lat="50.39991" lon="4.4294">
        <ele>113.3</ele>
        <extensions>
          <visugpx:TrkExtension xmlns:visugpx="https://www.visugpx.com/editgpx/">
            <visugpx:node>3</visugpx:node>
            </visugpx:TrkExtension>
        </extensions>
      </trkpt>
      <trkpt lat="50.39991" lon="4.42947">
        <ele>113.4</ele>
      </trkpt>
      <trkpt lat="50.39984" lon="4.42987">
        <ele>114.6</ele>
      </trkpt>
      <trkpt lat="50.39968" lon="4.43042">
        <ele>115.7</ele>
      </trkpt>
      <trkpt lat="50.39966" lon="4.43044">
        <ele>115.9</ele>
        <extensions>
          <visugpx:TrkExtension xmlns:visugpx="https://www.visugpx.com/editgpx/">
            <visugpx:node>4</visugpx:node>
            </visugpx:TrkExtension>
        </extensions>
      </trkpt>
      <trkpt lat="50.39959" lon="4.43058">
        <ele>116.5</ele>
      </trkpt>
      <trkpt lat="50.39915" lon="4.43106">
        <ele>120.9</ele>
      </trkpt>
      <trkpt lat="50.39874" lon="4.43159">
        <ele>125.4</ele>
      </trkpt>
      <trkpt lat="50.39871" lon="4.43164">
        <ele>125.6</ele>
        <extensions>
          <visugpx:TrkExtension xmlns:visugpx="https://www.visugpx.com/editgpx/">
            <visugpx:node>5</visugpx:node>
            </visugpx:TrkExtension>
        </extensions>
      </trkpt>
      <trkpt lat="50.39871" lon="4.43164">
        <ele>125.6</ele>
      </trkpt>
      <trkpt lat="50.3982" lon="4.43244">
        <ele>130</ele>
      </trkpt>
      <trkpt lat="50.39817" lon="4.43249">
        <ele>130.2</ele>
      </trkpt>
      <trkpt lat="50.39767" lon="4.43335">
        <ele>129.3</ele>
      </trkpt>
      <trkpt lat="50.39744" lon="4.43374">
        <ele>127.8</ele>
        <extensions>
          <visugpx:TrkExtension xmlns:visugpx="https://www.visugpx.com/editgpx/">
            <visugpx:node>6</visugpx:node>
            </visugpx:TrkExtension>
        </extensions>
      </trkpt>
      <trkpt lat="50.39722" lon="4.43412">
        <ele>126.2</ele>
      </trkpt>
      <trkpt lat="50.39699" lon="4.43451">
        <ele>124.9</ele>
      </trkpt>
      <trkpt lat="50.39691" lon="4.43465">
        <ele>124.1</ele>
      </trkpt>
      <trkpt lat="50.39676" lon="4.43491">
        <ele>123.3</ele>
      </trkpt>
      <trkpt lat="50.39661" lon="4.4353">
        <ele>119.7</ele>
      </trkpt>
      <trkpt lat="50.3966" lon="4.43534">
        <ele>119.1</ele>
      </trkpt>
      <trkpt lat="50.39643" lon="4.43579">
        <ele>116.5</ele>
      </trkpt>
      <trkpt lat="50.3963" lon="4.4361">
        <ele>120.2</ele>
      </trkpt>
      <trkpt lat="50.39615" lon="4.43642">
        <ele>121.6</ele>
      </trkpt>
      <trkpt lat="50.39611" lon="4.4365">
        <ele>121.6</ele>
      </trkpt>
      <trkpt lat="50.39555" lon="4.43729">
        <ele>123.1</ele>
      </trkpt>
      <trkpt lat="50.39555" lon="4.43729">
        <ele>123.1</ele>
        <extensions>
          <visugpx:TrkExtension xmlns:visugpx="https://www.visugpx.com/editgpx/">
            <visugpx:node>7</visugpx:node>
            </visugpx:TrkExtension>
        </extensions>
      </trkpt>
      <trkpt lat="50.39491" lon="4.43818">
        <ele>124.9</ele>
      </trkpt>
      <trkpt lat="50.39466" lon="4.43854">
        <ele>125.2</ele>
      </trkpt>
      <trkpt lat="50.39451" lon="4.43888">
        <ele>125.8</ele>
        <extensions>
          <visugpx:TrkExtension xmlns:visugpx="https://www.visugpx.com/editgpx/">
            <visugpx:node>8</visugpx:node>
            </visugpx:TrkExtension>
        </extensions>
      </trkpt>
      <trkpt lat="50.39438" lon="4.43917">
        <ele>125.2</ele>
      </trkpt>
      <trkpt lat="50.39395" lon="4.44101">
        <ele>124</ele>
      </trkpt>
      <trkpt lat="50.39374" lon="4.44171">
        <ele>124.9</ele>
        <extensions>
          <visugpx:TrkExtension xmlns:visugpx="https://www.visugpx.com/editgpx/">
            <visugpx:node>9</visugpx:node>
            </visugpx:TrkExtension>
        </extensions>
      </trkpt>
      <trkpt lat="50.39372" lon="4.44179">
        <ele>124.8</ele>
      </trkpt>
      <trkpt lat="50.39303" lon="4.44421">
        <ele>123.2</ele>
      </trkpt>
      <trkpt lat="50.39301" lon="4.4442">
        <ele>123.3</ele>
        <extensions>
          <visugpx:TrkExtension xmlns:visugpx="https://www.visugpx.com/editgpx/">
            <visugpx:node>10</visugpx:node>
            </visugpx:TrkExtension>
        </extensions>
      </trkpt>
      <trkpt lat="50.39303" lon="4.44421">
        <ele>123.2</ele>
      </trkpt>
      <trkpt lat="50.39265" lon="4.44506">
        <ele>123.9</ele>
        <extensions>
          <visugpx:TrkExtension xmlns:visugpx="https://www.visugpx.com/editgpx/">
            <visugpx:node>11</visugpx:node>
            </visugpx:TrkExtension>
        </extensions>
      </trkpt>
      <trkpt lat="50.39259" lon="4.44519">
        <ele>123.8</ele>
      </trkpt>
      <trkpt lat="50.39298" lon="4.44713">
        <ele>121.1</ele>
      </trkpt>
      <trkpt lat="50.39305" lon="4.44707">
        <ele>121</ele>
        <extensions>
          <visugpx:TrkExtension xmlns:visugpx="https://www.visugpx.com/editgpx/">
            <visugpx:node>12</visugpx:node>
            </visugpx:TrkExtension>
        </extensions>
      </trkpt>
      <trkpt lat="50.39298" lon="4.44713">
        <ele>121.1</ele>
      </trkpt>
      <trkpt lat="50.39295" lon="4.44825">
        <ele>120</ele>
      </trkpt>
      <trkpt lat="50.39291" lon="4.44862">
        <ele>120</ele>
        <extensions>
          <visugpx:TrkExtension xmlns:visugpx="https://www.visugpx.com/editgpx/">
            <visugpx:node>13</visugpx:node>
            </visugpx:TrkExtension>
        </extensions>
      </trkpt>
      <trkpt lat="50.39287" lon="4.44904">
        <ele>119</ele>
      </trkpt>
      <trkpt lat="50.39271" lon="4.45014">
        <ele>117.1</ele>
      </trkpt>
      <trkpt lat="50.39265" lon="4.4504">
        <ele>116.8</ele>
      </trkpt>
      <trkpt lat="50.39257" lon="4.45066">
        <ele>116.2</ele>
      </trkpt>
      <trkpt lat="50.39213" lon="4.4516">
        <ele>114.2</ele>
      </trkpt>
      <trkpt lat="50.39212" lon="4.45161">
        <ele>114.2</ele>
        <extensions>
          <visugpx:TrkExtension xmlns:visugpx="https://www.visugpx.com/editgpx/">
            <visugpx:node>14</visugpx:node>
            </visugpx:TrkExtension>
        </extensions>
      </trkpt>
      <trkpt lat="50.39209" lon="4.45165">
        <ele>114.1</ele>
      </trkpt>
      <trkpt lat="50.39217" lon="4.45196">
        <ele>112.8</ele>
      </trkpt>
      <trkpt lat="50.39226" lon="4.45229">
        <ele>112</ele>
      </trkpt>
      <trkpt lat="50.39251" lon="4.45328">
        <ele>110</ele>
      </trkpt>
      <trkpt lat="50.39258" lon="4.45366">
        <ele>109</ele>
      </trkpt>
      <trkpt lat="50.39263" lon="4.454">
        <ele>108.6</ele>
      </trkpt>
      <trkpt lat="50.39272" lon="4.45445">
        <ele>108</ele>
      </trkpt>
      <trkpt lat="50.39274" lon="4.45463">
        <ele>108</ele>
      </trkpt>
      <trkpt lat="50.39274" lon="4.45471">
        <ele>108</ele>
        <extensions>
          <visugpx:TrkExtension xmlns:visugpx="https://www.visugpx.com/editgpx/">
            <visugpx:node>15</visugpx:node>
            </visugpx:TrkExtension>
        </extensions>
      </trkpt>
      <trkpt lat="50.39273" lon="4.45478">
        <ele>108</ele>
      </trkpt>
      <trkpt lat="50.39268" lon="4.45492">
        <ele>108</ele>
      </trkpt>
      <trkpt lat="50.39263" lon="4.45488">
        <ele>108</ele>
        <extensions>
          <visugpx:TrkExtension xmlns:visugpx="https://www.visugpx.com/editgpx/">
            <visugpx:node>16</visugpx:node>
            </visugpx:TrkExtension>
        </extensions>
      </trkpt>
      <trkpt lat="50.39261" lon="4.45487">
        <ele>108</ele>
      </trkpt>
      <trkpt lat="50.39255" lon="4.45489">
        <ele>108</ele>
      </trkpt>
      <trkpt lat="50.39229" lon="4.4551">
        <ele>108</ele>
      </trkpt>
      <trkpt lat="50.39225" lon="4.45514">
        <ele>108</ele>
        <extensions>
          <visugpx:TrkExtension xmlns:visugpx="https://www.visugpx.com/editgpx/">
            <visugpx:node>17</visugpx:node>
            </visugpx:TrkExtension>
        </extensions>
      </trkpt>
      <trkpt lat="50.3921" lon="4.45528">
        <ele>108.4</ele>
      </trkpt>
      <trkpt lat="50.39175" lon="4.45592">
        <ele>110.2</ele>
        <extensions>
          <visugpx:TrkExtension xmlns:visugpx="https://www.visugpx.com/editgpx/">
            <visugpx:node>18</visugpx:node>
            </visugpx:TrkExtension>
        </extensions>
      </trkpt>
      <trkpt lat="50.39173" lon="4.45595">
        <ele>110.3</ele>
      </trkpt>
      <trkpt lat="50.39122" lon="4.45711">
        <ele>115</ele>
      </trkpt>
      <trkpt lat="50.39109" lon="4.45735">
        <ele>116.5</ele>
      </trkpt>
      <trkpt lat="50.3909" lon="4.4573">
        <ele>116.8</ele>
      </trkpt>
      <trkpt lat="50.39034" lon="4.45684">
        <ele>117.9</ele>
      </trkpt>
      <trkpt lat="50.39022" lon="4.45679">
        <ele>118.1</ele>
        <extensions>
          <visugpx:TrkExtension xmlns:visugpx="https://www.visugpx.com/editgpx/">
            <visugpx:node>19</visugpx:node>
            </visugpx:TrkExtension>
        </extensions>
      </trkpt>
    </trkseg>
  </trk>
</gpx>